<?xml version="1.0" encoding="UTF-8" standalone="no" ?>
<gpx xmlns="http://www.topografix.com/GPX/1/1" xmlns:xsi="http://www.w3.org/2001/XMLSchema-instance" xsi:schemaLocation="http://www.topografix.com/GPX/1/1 http://www.topografix.com/GPX/1/1/gpx.xsd" version="1.1" creator="VisuGPX - https://www.visugpx.com">
  <metadata>
    <name>Entrainement du 19032014</name>
    <desc><![CDATA[Sortie avec le Barbu du nd2BR sur Salavre et retour par le Mont Myon]]></desc>
  </metadata>
  <wpt lat="46.33051" lon="5.38479">
    <ele>316.6</ele>
    <name><![CDATA[Lap 1]]></name>
    <desc><![CDATA[20.05km, 118:23, 10.2kph]]></desc>
  </wpt>
  <trk>
    <name><![CDATA[19_03_2014 15_53_33_history]]></name>
    <desc><![CDATA[118:23 - 20.0km]]></desc>
    <trkseg>
      <trkpt lat="46.33015" lon="5.3852">
        <ele>339.4</ele>
        <time>2014-03-19T14:53:38Z</time>
      </trkpt>
      <trkpt lat="46.33015" lon="5.3852">
        <ele>339.4</ele>
        <time>2014-03-19T14:53:38Z</time>
      </trkpt>
      <trkpt lat="46.33029" lon="5.38502">
        <ele>340.4</ele>
        <time>2014-03-19T14:54:10Z</time>
      </trkpt>
      <trkpt lat="46.33042" lon="5.38492">
        <ele>340.2</ele>
        <time>2014-03-19T14:54:14Z</time>
      </trkpt>
      <trkpt lat="46.33047" lon="5.3849">
        <ele>340</ele>
        <time>2014-03-19T14:54:16Z</time>
      </trkpt>
      <trkpt lat="46.33052" lon="5.38498">
        <ele>339.4</ele>
        <time>2014-03-19T14:54:20Z</time>
      </trkpt>
      <trkpt lat="46.33054" lon="5.38503">
        <ele>339</ele>
        <time>2014-03-19T14:54:22Z</time>
      </trkpt>
      <trkpt lat="46.33057" lon="5.38512">
        <ele>338.6</ele>
        <time>2014-03-19T14:54:25Z</time>
      </trkpt>
      <trkpt lat="46.33059" lon="5.38523">
        <ele>338.2</ele>
        <time>2014-03-19T14:54:29Z</time>
      </trkpt>
      <trkpt lat="46.33061" lon="5.38526">
        <ele>338</ele>
        <time>2014-03-19T14:54:30Z</time>
      </trkpt>
      <trkpt lat="46.33062" lon="5.38532">
        <ele>337.8</ele>
        <time>2014-03-19T14:54:32Z</time>
      </trkpt>
      <trkpt lat="46.33063" lon="5.38542">
        <ele>337.4</ele>
        <time>2014-03-19T14:54:35Z</time>
      </trkpt>
      <trkpt lat="46.33068" lon="5.38558">
        <ele>336.8</ele>
        <time>2014-03-19T14:54:40Z</time>
      </trkpt>
      <trkpt lat="46.33073" lon="5.3857">
        <ele>336.4</ele>
        <time>2014-03-19T14:54:44Z</time>
      </trkpt>
      <trkpt lat="46.33074" lon="5.38573">
        <ele>336.4</ele>
        <time>2014-03-19T14:54:45Z</time>
      </trkpt>
      <trkpt lat="46.33075" lon="5.38575">
        <ele>336.2</ele>
        <time>2014-03-19T14:54:46Z</time>
      </trkpt>
      <trkpt lat="46.33078" lon="5.38584">
        <ele>336</ele>
        <time>2014-03-19T14:54:49Z</time>
      </trkpt>
      <trkpt lat="46.33082" lon="5.38594">
        <ele>335.6</ele>
        <time>2014-03-19T14:54:53Z</time>
      </trkpt>
      <trkpt lat="46.33083" lon="5.38597">
        <ele>335.4</ele>
        <time>2014-03-19T14:54:55Z</time>
      </trkpt>
      <trkpt lat="46.33085" lon="5.38599">
        <ele>335.4</ele>
        <time>2014-03-19T14:54:56Z</time>
      </trkpt>
      <trkpt lat="46.33087" lon="5.38599">
        <ele>335.4</ele>
        <time>2014-03-19T14:54:57Z</time>
      </trkpt>
      <trkpt lat="46.33097" lon="5.38602">
        <ele>335</ele>
        <time>2014-03-19T14:55:01Z</time>
      </trkpt>
      <trkpt lat="46.33102" lon="5.38606">
        <ele>334.8</ele>
        <time>2014-03-19T14:55:04Z</time>
      </trkpt>
      <trkpt lat="46.33105" lon="5.38604">
        <ele>334.6</ele>
        <time>2014-03-19T14:55:05Z</time>
      </trkpt>
      <trkpt lat="46.33108" lon="5.38603">
        <ele>334.6</ele>
        <time>2014-03-19T14:55:06Z</time>
      </trkpt>
      <trkpt lat="46.33114" lon="5.38599">
        <ele>334.2</ele>
        <time>2014-03-19T14:55:09Z</time>
      </trkpt>
      <trkpt lat="46.33121" lon="5.38595">
        <ele>334</ele>
        <time>2014-03-19T14:55:12Z</time>
      </trkpt>
      <trkpt lat="46.3314" lon="5.38584">
        <ele>333.6</ele>
        <time>2014-03-19T14:55:20Z</time>
      </trkpt>
      <trkpt lat="46.33154" lon="5.38575">
        <ele>333.4</ele>
        <time>2014-03-19T14:55:26Z</time>
      </trkpt>
      <trkpt lat="46.33167" lon="5.3857">
        <ele>333.2</ele>
        <time>2014-03-19T14:55:31Z</time>
      </trkpt>
      <trkpt lat="46.33185" lon="5.38564">
        <ele>333.2</ele>
        <time>2014-03-19T14:55:38Z</time>
      </trkpt>
      <trkpt lat="46.33202" lon="5.38557">
        <ele>333.2</ele>
        <time>2014-03-19T14:55:45Z</time>
      </trkpt>
      <trkpt lat="46.33214" lon="5.38556">
        <ele>333.4</ele>
        <time>2014-03-19T14:55:50Z</time>
      </trkpt>
      <trkpt lat="46.33229" lon="5.38554">
        <ele>333.8</ele>
        <time>2014-03-19T14:55:56Z</time>
      </trkpt>
      <trkpt lat="46.33245" lon="5.38554">
        <ele>334.2</ele>
        <time>2014-03-19T14:56:02Z</time>
      </trkpt>
      <trkpt lat="46.33259" lon="5.38552">
        <ele>335</ele>
        <time>2014-03-19T14:56:08Z</time>
      </trkpt>
      <trkpt lat="46.33275" lon="5.38553">
        <ele>335.8</ele>
        <time>2014-03-19T14:56:14Z</time>
      </trkpt>
      <trkpt lat="46.33287" lon="5.38554">
        <ele>336.6</ele>
        <time>2014-03-19T14:56:19Z</time>
      </trkpt>
      <trkpt lat="46.33305" lon="5.38554">
        <ele>337.4</ele>
        <time>2014-03-19T14:56:26Z</time>
      </trkpt>
      <trkpt lat="46.33323" lon="5.38556">
        <ele>338.2</ele>
        <time>2014-03-19T14:56:33Z</time>
      </trkpt>
      <trkpt lat="46.33342" lon="5.3856">
        <ele>338.8</ele>
        <time>2014-03-19T14:56:40Z</time>
      </trkpt>
      <trkpt lat="46.33344" lon="5.3856">
        <ele>338.8</ele>
        <time>2014-03-19T14:56:41Z</time>
      </trkpt>
      <trkpt lat="46.3336" lon="5.38568">
        <ele>339.2</ele>
        <time>2014-03-19T14:56:47Z</time>
      </trkpt>
      <trkpt lat="46.33374" lon="5.38576">
        <ele>339.6</ele>
        <time>2014-03-19T14:56:52Z</time>
      </trkpt>
      <trkpt lat="46.3339" lon="5.38587">
        <ele>340</ele>
        <time>2014-03-19T14:56:58Z</time>
      </trkpt>
      <trkpt lat="46.334" lon="5.386">
        <ele>340.4</ele>
        <time>2014-03-19T14:57:03Z</time>
      </trkpt>
      <trkpt lat="46.33412" lon="5.38618">
        <ele>341.2</ele>
        <time>2014-03-19T14:57:09Z</time>
      </trkpt>
      <trkpt lat="46.3342" lon="5.38634">
        <ele>341.8</ele>
        <time>2014-03-19T14:57:14Z</time>
      </trkpt>
      <trkpt lat="46.33424" lon="5.38648">
        <ele>342.4</ele>
        <time>2014-03-19T14:57:18Z</time>
      </trkpt>
      <trkpt lat="46.3343" lon="5.38667">
        <ele>343</ele>
        <time>2014-03-19T14:57:23Z</time>
      </trkpt>
      <trkpt lat="46.33437" lon="5.38686">
        <ele>343.4</ele>
        <time>2014-03-19T14:57:28Z</time>
      </trkpt>
      <trkpt lat="46.33438" lon="5.38704">
        <ele>343.8</ele>
        <time>2014-03-19T14:57:33Z</time>
      </trkpt>
      <trkpt lat="46.33438" lon="5.38721">
        <ele>344.4</ele>
        <time>2014-03-19T14:57:37Z</time>
      </trkpt>
      <trkpt lat="46.33441" lon="5.38733">
        <ele>344.8</ele>
        <time>2014-03-19T14:57:40Z</time>
      </trkpt>
      <trkpt lat="46.33441" lon="5.38737">
        <ele>344.8</ele>
        <time>2014-03-19T14:57:41Z</time>
      </trkpt>
      <trkpt lat="46.33441" lon="5.38749">
        <ele>345.4</ele>
        <time>2014-03-19T14:57:44Z</time>
      </trkpt>
      <trkpt lat="46.33442" lon="5.38753">
        <ele>345.6</ele>
        <time>2014-03-19T14:57:45Z</time>
      </trkpt>
      <trkpt lat="46.33447" lon="5.38769">
        <ele>346.4</ele>
        <time>2014-03-19T14:57:50Z</time>
      </trkpt>
      <trkpt lat="46.33453" lon="5.38779">
        <ele>347.4</ele>
        <time>2014-03-19T14:57:55Z</time>
      </trkpt>
      <trkpt lat="46.33459" lon="5.38783">
        <ele>348</ele>
        <time>2014-03-19T14:57:58Z</time>
      </trkpt>
      <trkpt lat="46.33471" lon="5.38783">
        <ele>348.8</ele>
        <time>2014-03-19T14:58:03Z</time>
      </trkpt>
      <trkpt lat="46.33484" lon="5.38774">
        <ele>349.8</ele>
        <time>2014-03-19T14:58:09Z</time>
      </trkpt>
      <trkpt lat="46.33497" lon="5.38767">
        <ele>350.4</ele>
        <time>2014-03-19T14:58:14Z</time>
      </trkpt>
      <trkpt lat="46.33509" lon="5.38765">
        <ele>351.4</ele>
        <time>2014-03-19T14:58:19Z</time>
      </trkpt>
      <trkpt lat="46.33523" lon="5.38766">
        <ele>352.2</ele>
        <time>2014-03-19T14:58:24Z</time>
      </trkpt>
      <trkpt lat="46.33536" lon="5.38766">
        <ele>353</ele>
        <time>2014-03-19T14:58:29Z</time>
      </trkpt>
      <trkpt lat="46.33552" lon="5.38764">
        <ele>354</ele>
        <time>2014-03-19T14:58:35Z</time>
      </trkpt>
      <trkpt lat="46.33565" lon="5.38765">
        <ele>355</ele>
        <time>2014-03-19T14:58:40Z</time>
      </trkpt>
      <trkpt lat="46.33579" lon="5.38768">
        <ele>356.2</ele>
        <time>2014-03-19T14:58:46Z</time>
      </trkpt>
      <trkpt lat="46.33592" lon="5.38769">
        <ele>357.2</ele>
        <time>2014-03-19T14:58:51Z</time>
      </trkpt>
      <trkpt lat="46.33605" lon="5.38769">
        <ele>358.6</ele>
        <time>2014-03-19T14:58:57Z</time>
      </trkpt>
      <trkpt lat="46.3362" lon="5.38769">
        <ele>360.4</ele>
        <time>2014-03-19T14:59:04Z</time>
      </trkpt>
      <trkpt lat="46.33631" lon="5.38773">
        <ele>362</ele>
        <time>2014-03-19T14:59:10Z</time>
      </trkpt>
      <trkpt lat="46.33642" lon="5.38777">
        <ele>363.6</ele>
        <time>2014-03-19T14:59:16Z</time>
      </trkpt>
      <trkpt lat="46.33648" lon="5.38782">
        <ele>364.8</ele>
        <time>2014-03-19T14:59:20Z</time>
      </trkpt>
      <trkpt lat="46.33649" lon="5.38785">
        <ele>365.2</ele>
        <time>2014-03-19T14:59:21Z</time>
      </trkpt>
      <trkpt lat="46.3365" lon="5.38791">
        <ele>365.8</ele>
        <time>2014-03-19T14:59:23Z</time>
      </trkpt>
      <trkpt lat="46.3365" lon="5.38795">
        <ele>366.4</ele>
        <time>2014-03-19T14:59:25Z</time>
      </trkpt>
      <trkpt lat="46.33647" lon="5.38802">
        <ele>367.2</ele>
        <time>2014-03-19T14:59:28Z</time>
      </trkpt>
      <trkpt lat="46.33646" lon="5.38803">
        <ele>367.6</ele>
        <time>2014-03-19T14:59:29Z</time>
      </trkpt>
      <trkpt lat="46.33638" lon="5.38812">
        <ele>368.8</ele>
        <time>2014-03-19T14:59:33Z</time>
      </trkpt>
      <trkpt lat="46.3363" lon="5.38825">
        <ele>370.4</ele>
        <time>2014-03-19T14:59:38Z</time>
      </trkpt>
      <trkpt lat="46.33619" lon="5.38842">
        <ele>372.6</ele>
        <time>2014-03-19T14:59:45Z</time>
      </trkpt>
      <trkpt lat="46.33612" lon="5.38856">
        <ele>374.6</ele>
        <time>2014-03-19T14:59:51Z</time>
      </trkpt>
      <trkpt lat="46.33613" lon="5.38869">
        <ele>376.2</ele>
        <time>2014-03-19T14:59:56Z</time>
      </trkpt>
      <trkpt lat="46.33614" lon="5.3887">
        <ele>376.4</ele>
        <time>2014-03-19T14:59:57Z</time>
      </trkpt>
      <trkpt lat="46.33621" lon="5.38875">
        <ele>377.8</ele>
        <time>2014-03-19T15:00:01Z</time>
      </trkpt>
      <trkpt lat="46.3363" lon="5.38877">
        <ele>379.6</ele>
        <time>2014-03-19T15:00:06Z</time>
      </trkpt>
      <trkpt lat="46.33642" lon="5.38878">
        <ele>381.8</ele>
        <time>2014-03-19T15:00:12Z</time>
      </trkpt>
      <trkpt lat="46.3366" lon="5.38882">
        <ele>384.2</ele>
        <time>2014-03-19T15:00:19Z</time>
      </trkpt>
      <trkpt lat="46.33668" lon="5.38879">
        <ele>385.4</ele>
        <time>2014-03-19T15:00:23Z</time>
      </trkpt>
      <trkpt lat="46.33674" lon="5.38873">
        <ele>386.6</ele>
        <time>2014-03-19T15:00:27Z</time>
      </trkpt>
      <trkpt lat="46.3368" lon="5.3887">
        <ele>387.6</ele>
        <time>2014-03-19T15:00:30Z</time>
      </trkpt>
      <trkpt lat="46.33687" lon="5.3887">
        <ele>388.4</ele>
        <time>2014-03-19T15:00:33Z</time>
      </trkpt>
      <trkpt lat="46.33689" lon="5.3887">
        <ele>388.8</ele>
        <time>2014-03-19T15:00:34Z</time>
      </trkpt>
      <trkpt lat="46.33702" lon="5.38867">
        <ele>390.6</ele>
        <time>2014-03-19T15:00:40Z</time>
      </trkpt>
      <trkpt lat="46.33713" lon="5.38865">
        <ele>392.4</ele>
        <time>2014-03-19T15:00:45Z</time>
      </trkpt>
      <trkpt lat="46.33722" lon="5.38865">
        <ele>393.6</ele>
        <time>2014-03-19T15:00:49Z</time>
      </trkpt>
      <trkpt lat="46.33735" lon="5.38866">
        <ele>395.8</ele>
        <time>2014-03-19T15:00:55Z</time>
      </trkpt>
      <trkpt lat="46.33744" lon="5.38868">
        <ele>397.6</ele>
        <time>2014-03-19T15:01:00Z</time>
      </trkpt>
      <trkpt lat="46.33751" lon="5.3887">
        <ele>399.2</ele>
        <time>2014-03-19T15:01:04Z</time>
      </trkpt>
      <trkpt lat="46.33761" lon="5.38871">
        <ele>400.8</ele>
        <time>2014-03-19T15:01:09Z</time>
      </trkpt>
      <trkpt lat="46.3377" lon="5.38871">
        <ele>402.2</ele>
        <time>2014-03-19T15:01:13Z</time>
      </trkpt>
      <trkpt lat="46.33781" lon="5.38871">
        <ele>404</ele>
        <time>2014-03-19T15:01:18Z</time>
      </trkpt>
      <trkpt lat="46.33795" lon="5.38873">
        <ele>406.2</ele>
        <time>2014-03-19T15:01:24Z</time>
      </trkpt>
      <trkpt lat="46.33804" lon="5.38873">
        <ele>407.8</ele>
        <time>2014-03-19T15:01:28Z</time>
      </trkpt>
      <trkpt lat="46.33814" lon="5.38872">
        <ele>409.4</ele>
        <time>2014-03-19T15:01:33Z</time>
      </trkpt>
      <trkpt lat="46.33826" lon="5.38871">
        <ele>411.2</ele>
        <time>2014-03-19T15:01:38Z</time>
      </trkpt>
      <trkpt lat="46.3384" lon="5.3887">
        <ele>413.6</ele>
        <time>2014-03-19T15:01:45Z</time>
      </trkpt>
      <trkpt lat="46.33857" lon="5.38873">
        <ele>416</ele>
        <time>2014-03-19T15:01:52Z</time>
      </trkpt>
      <trkpt lat="46.33869" lon="5.38875">
        <ele>417.6</ele>
        <time>2014-03-19T15:01:57Z</time>
      </trkpt>
      <trkpt lat="46.3388" lon="5.38875">
        <ele>419.2</ele>
        <time>2014-03-19T15:02:02Z</time>
      </trkpt>
      <trkpt lat="46.33891" lon="5.38873">
        <ele>420.8</ele>
        <time>2014-03-19T15:02:07Z</time>
      </trkpt>
      <trkpt lat="46.33902" lon="5.38869">
        <ele>422.2</ele>
        <time>2014-03-19T15:02:12Z</time>
      </trkpt>
      <trkpt lat="46.33913" lon="5.38859">
        <ele>423.6</ele>
        <time>2014-03-19T15:02:17Z</time>
      </trkpt>
      <trkpt lat="46.33921" lon="5.38844">
        <ele>425.4</ele>
        <time>2014-03-19T15:02:22Z</time>
      </trkpt>
      <trkpt lat="46.33932" lon="5.38827">
        <ele>427.4</ele>
        <time>2014-03-19T15:02:28Z</time>
      </trkpt>
      <trkpt lat="46.33945" lon="5.38825">
        <ele>429</ele>
        <time>2014-03-19T15:02:33Z</time>
      </trkpt>
      <trkpt lat="46.33957" lon="5.38824">
        <ele>430.8</ele>
        <time>2014-03-19T15:02:38Z</time>
      </trkpt>
      <trkpt lat="46.33971" lon="5.38824">
        <ele>432.4</ele>
        <time>2014-03-19T15:02:43Z</time>
      </trkpt>
      <trkpt lat="46.33984" lon="5.38819">
        <ele>434</ele>
        <time>2014-03-19T15:02:48Z</time>
      </trkpt>
      <trkpt lat="46.33991" lon="5.38807">
        <ele>435.4</ele>
        <time>2014-03-19T15:02:52Z</time>
      </trkpt>
      <trkpt lat="46.34001" lon="5.38786">
        <ele>437</ele>
        <time>2014-03-19T15:02:58Z</time>
      </trkpt>
      <trkpt lat="46.34007" lon="5.3877">
        <ele>438</ele>
        <time>2014-03-19T15:03:02Z</time>
      </trkpt>
      <trkpt lat="46.34018" lon="5.38746">
        <ele>439.2</ele>
        <time>2014-03-19T15:03:08Z</time>
      </trkpt>
      <trkpt lat="46.34029" lon="5.38723">
        <ele>440.6</ele>
        <time>2014-03-19T15:03:14Z</time>
      </trkpt>
      <trkpt lat="46.34039" lon="5.38707">
        <ele>442</ele>
        <time>2014-03-19T15:03:19Z</time>
      </trkpt>
      <trkpt lat="46.34047" lon="5.38684">
        <ele>443.4</ele>
        <time>2014-03-19T15:03:25Z</time>
      </trkpt>
      <trkpt lat="46.34051" lon="5.38658">
        <ele>444.8</ele>
        <time>2014-03-19T15:03:31Z</time>
      </trkpt>
      <trkpt lat="46.34051" lon="5.38654">
        <ele>445</ele>
        <time>2014-03-19T15:03:32Z</time>
      </trkpt>
      <trkpt lat="46.34056" lon="5.38628">
        <ele>446</ele>
        <time>2014-03-19T15:03:38Z</time>
      </trkpt>
      <trkpt lat="46.34057" lon="5.38624">
        <ele>446.2</ele>
        <time>2014-03-19T15:03:39Z</time>
      </trkpt>
      <trkpt lat="46.34062" lon="5.38598">
        <ele>447.2</ele>
        <time>2014-03-19T15:03:45Z</time>
      </trkpt>
      <trkpt lat="46.34063" lon="5.38589">
        <ele>447.6</ele>
        <time>2014-03-19T15:03:47Z</time>
      </trkpt>
      <trkpt lat="46.34067" lon="5.38563">
        <ele>448.4</ele>
        <time>2014-03-19T15:03:53Z</time>
      </trkpt>
      <trkpt lat="46.34068" lon="5.38559">
        <ele>448.6</ele>
        <time>2014-03-19T15:03:54Z</time>
      </trkpt>
      <trkpt lat="46.34071" lon="5.38532">
        <ele>449.4</ele>
        <time>2014-03-19T15:04:00Z</time>
      </trkpt>
      <trkpt lat="46.34076" lon="5.38508">
        <ele>449.8</ele>
        <time>2014-03-19T15:04:06Z</time>
      </trkpt>
      <trkpt lat="46.34081" lon="5.38492">
        <ele>450.2</ele>
        <time>2014-03-19T15:04:10Z</time>
      </trkpt>
      <trkpt lat="46.34087" lon="5.38474">
        <ele>450.4</ele>
        <time>2014-03-19T15:04:15Z</time>
      </trkpt>
      <trkpt lat="46.34094" lon="5.38457">
        <ele>450.8</ele>
        <time>2014-03-19T15:04:20Z</time>
      </trkpt>
      <trkpt lat="46.34102" lon="5.3844">
        <ele>451.2</ele>
        <time>2014-03-19T15:04:25Z</time>
      </trkpt>
      <trkpt lat="46.3411" lon="5.38424">
        <ele>451.6</ele>
        <time>2014-03-19T15:04:30Z</time>
      </trkpt>
      <trkpt lat="46.34118" lon="5.38406">
        <ele>452.2</ele>
        <time>2014-03-19T15:04:36Z</time>
      </trkpt>
      <trkpt lat="46.34126" lon="5.38385">
        <ele>453</ele>
        <time>2014-03-19T15:04:42Z</time>
      </trkpt>
      <trkpt lat="46.34133" lon="5.38368">
        <ele>453.6</ele>
        <time>2014-03-19T15:04:47Z</time>
      </trkpt>
      <trkpt lat="46.34142" lon="5.38347">
        <ele>454.2</ele>
        <time>2014-03-19T15:04:53Z</time>
      </trkpt>
      <trkpt lat="46.34147" lon="5.38333">
        <ele>454.8</ele>
        <time>2014-03-19T15:04:57Z</time>
      </trkpt>
      <trkpt lat="46.34153" lon="5.38319">
        <ele>455</ele>
        <time>2014-03-19T15:05:01Z</time>
      </trkpt>
      <trkpt lat="46.34161" lon="5.38304">
        <ele>455.4</ele>
        <time>2014-03-19T15:05:06Z</time>
      </trkpt>
      <trkpt lat="46.34168" lon="5.3829">
        <ele>455.8</ele>
        <time>2014-03-19T15:05:10Z</time>
      </trkpt>
      <trkpt lat="46.34178" lon="5.38277">
        <ele>456.2</ele>
        <time>2014-03-19T15:05:15Z</time>
      </trkpt>
      <trkpt lat="46.34188" lon="5.38263">
        <ele>456.6</ele>
        <time>2014-03-19T15:05:20Z</time>
      </trkpt>
      <trkpt lat="46.342" lon="5.38248">
        <ele>457.2</ele>
        <time>2014-03-19T15:05:25Z</time>
      </trkpt>
      <trkpt lat="46.34212" lon="5.38235">
        <ele>457.6</ele>
        <time>2014-03-19T15:05:30Z</time>
      </trkpt>
      <trkpt lat="46.34226" lon="5.38218">
        <ele>458.2</ele>
        <time>2014-03-19T15:05:36Z</time>
      </trkpt>
      <trkpt lat="46.34228" lon="5.38215">
        <ele>458.4</ele>
        <time>2014-03-19T15:05:37Z</time>
      </trkpt>
      <trkpt lat="46.34241" lon="5.38195">
        <ele>458.8</ele>
        <time>2014-03-19T15:05:43Z</time>
      </trkpt>
      <trkpt lat="46.34253" lon="5.38174">
        <ele>459.2</ele>
        <time>2014-03-19T15:05:49Z</time>
      </trkpt>
      <trkpt lat="46.34262" lon="5.38155">
        <ele>459.6</ele>
        <time>2014-03-19T15:05:54Z</time>
      </trkpt>
      <trkpt lat="46.34267" lon="5.38135">
        <ele>460</ele>
        <time>2014-03-19T15:05:59Z</time>
      </trkpt>
      <trkpt lat="46.34272" lon="5.38112">
        <ele>460.6</ele>
        <time>2014-03-19T15:06:05Z</time>
      </trkpt>
      <trkpt lat="46.34279" lon="5.38094">
        <ele>461.2</ele>
        <time>2014-03-19T15:06:10Z</time>
      </trkpt>
      <trkpt lat="46.34292" lon="5.38075">
        <ele>461.8</ele>
        <time>2014-03-19T15:06:16Z</time>
      </trkpt>
      <trkpt lat="46.34306" lon="5.3806">
        <ele>462.6</ele>
        <time>2014-03-19T15:06:22Z</time>
      </trkpt>
      <trkpt lat="46.34318" lon="5.38049">
        <ele>463.2</ele>
        <time>2014-03-19T15:06:27Z</time>
      </trkpt>
      <trkpt lat="46.34335" lon="5.38032">
        <ele>463.8</ele>
        <time>2014-03-19T15:06:34Z</time>
      </trkpt>
      <trkpt lat="46.34352" lon="5.38015">
        <ele>464.6</ele>
        <time>2014-03-19T15:06:41Z</time>
      </trkpt>
      <trkpt lat="46.34365" lon="5.38005">
        <ele>465.2</ele>
        <time>2014-03-19T15:06:46Z</time>
      </trkpt>
      <trkpt lat="46.34381" lon="5.37995">
        <ele>466.2</ele>
        <time>2014-03-19T15:06:52Z</time>
      </trkpt>
      <trkpt lat="46.34399" lon="5.37987">
        <ele>467.2</ele>
        <time>2014-03-19T15:06:59Z</time>
      </trkpt>
      <trkpt lat="46.34415" lon="5.37979">
        <ele>468.2</ele>
        <time>2014-03-19T15:07:05Z</time>
      </trkpt>
      <trkpt lat="46.34433" lon="5.3797">
        <ele>469.4</ele>
        <time>2014-03-19T15:07:12Z</time>
      </trkpt>
      <trkpt lat="46.3445" lon="5.37961">
        <ele>470.6</ele>
        <time>2014-03-19T15:07:19Z</time>
      </trkpt>
      <trkpt lat="46.34451" lon="5.3796">
        <ele>470.8</ele>
        <time>2014-03-19T15:07:20Z</time>
      </trkpt>
      <trkpt lat="46.34457" lon="5.37958">
        <ele>471.4</ele>
        <time>2014-03-19T15:07:24Z</time>
      </trkpt>
      <trkpt lat="46.34458" lon="5.37958">
        <ele>471.6</ele>
        <time>2014-03-19T15:07:25Z</time>
      </trkpt>
      <trkpt lat="46.3446" lon="5.37958">
        <ele>471.8</ele>
        <time>2014-03-19T15:07:28Z</time>
      </trkpt>
      <trkpt lat="46.34461" lon="5.37955">
        <ele>472.2</ele>
        <time>2014-03-19T15:07:32Z</time>
      </trkpt>
      <trkpt lat="46.34473" lon="5.37949">
        <ele>472.8</ele>
        <time>2014-03-19T15:07:37Z</time>
      </trkpt>
      <trkpt lat="46.34477" lon="5.37946">
        <ele>473</ele>
        <time>2014-03-19T15:07:39Z</time>
      </trkpt>
      <trkpt lat="46.34482" lon="5.37939">
        <ele>473.2</ele>
        <time>2014-03-19T15:07:41Z</time>
      </trkpt>
      <trkpt lat="46.34498" lon="5.3793">
        <ele>474.2</ele>
        <time>2014-03-19T15:07:47Z</time>
      </trkpt>
      <trkpt lat="46.34511" lon="5.37923">
        <ele>475.2</ele>
        <time>2014-03-19T15:07:52Z</time>
      </trkpt>
      <trkpt lat="46.34525" lon="5.37911">
        <ele>476</ele>
        <time>2014-03-19T15:07:57Z</time>
      </trkpt>
      <trkpt lat="46.34539" lon="5.37897">
        <ele>477</ele>
        <time>2014-03-19T15:08:02Z</time>
      </trkpt>
      <trkpt lat="46.34554" lon="5.37889">
        <ele>477.8</ele>
        <time>2014-03-19T15:08:07Z</time>
      </trkpt>
      <trkpt lat="46.34568" lon="5.37889">
        <ele>478.4</ele>
        <time>2014-03-19T15:08:11Z</time>
      </trkpt>
      <trkpt lat="46.34587" lon="5.37892">
        <ele>479</ele>
        <time>2014-03-19T15:08:16Z</time>
      </trkpt>
      <trkpt lat="46.34598" lon="5.37895">
        <ele>479.2</ele>
        <time>2014-03-19T15:08:19Z</time>
      </trkpt>
      <trkpt lat="46.34617" lon="5.37897">
        <ele>479.6</ele>
        <time>2014-03-19T15:08:24Z</time>
      </trkpt>
      <trkpt lat="46.3462" lon="5.37897">
        <ele>479.6</ele>
        <time>2014-03-19T15:08:25Z</time>
      </trkpt>
      <trkpt lat="46.34641" lon="5.379">
        <ele>480</ele>
        <time>2014-03-19T15:08:31Z</time>
      </trkpt>
      <trkpt lat="46.34657" lon="5.37896">
        <ele>480.2</ele>
        <time>2014-03-19T15:08:36Z</time>
      </trkpt>
      <trkpt lat="46.34675" lon="5.3789">
        <ele>480.4</ele>
        <time>2014-03-19T15:08:42Z</time>
      </trkpt>
      <trkpt lat="46.34687" lon="5.37882">
        <ele>480.4</ele>
        <time>2014-03-19T15:08:46Z</time>
      </trkpt>
      <trkpt lat="46.34704" lon="5.37871">
        <ele>480.6</ele>
        <time>2014-03-19T15:08:52Z</time>
      </trkpt>
      <trkpt lat="46.34718" lon="5.37862">
        <ele>481</ele>
        <time>2014-03-19T15:08:57Z</time>
      </trkpt>
      <trkpt lat="46.34735" lon="5.37851">
        <ele>481.4</ele>
        <time>2014-03-19T15:09:03Z</time>
      </trkpt>
      <trkpt lat="46.34747" lon="5.37844">
        <ele>481.8</ele>
        <time>2014-03-19T15:09:07Z</time>
      </trkpt>
      <trkpt lat="46.34765" lon="5.37836">
        <ele>482.4</ele>
        <time>2014-03-19T15:09:13Z</time>
      </trkpt>
      <trkpt lat="46.34783" lon="5.37827">
        <ele>483</ele>
        <time>2014-03-19T15:09:19Z</time>
      </trkpt>
      <trkpt lat="46.34786" lon="5.37826">
        <ele>483.2</ele>
        <time>2014-03-19T15:09:20Z</time>
      </trkpt>
      <trkpt lat="46.34794" lon="5.37817">
        <ele>483.6</ele>
        <time>2014-03-19T15:09:24Z</time>
      </trkpt>
      <trkpt lat="46.34805" lon="5.37815">
        <ele>484</ele>
        <time>2014-03-19T15:09:28Z</time>
      </trkpt>
      <trkpt lat="46.34818" lon="5.37817">
        <ele>484.4</ele>
        <time>2014-03-19T15:09:33Z</time>
      </trkpt>
      <trkpt lat="46.3482" lon="5.37816">
        <ele>484.4</ele>
        <time>2014-03-19T15:09:34Z</time>
      </trkpt>
      <trkpt lat="46.34823" lon="5.3781">
        <ele>484.4</ele>
        <time>2014-03-19T15:09:36Z</time>
      </trkpt>
      <trkpt lat="46.34822" lon="5.37805">
        <ele>484.4</ele>
        <time>2014-03-19T15:09:37Z</time>
      </trkpt>
      <trkpt lat="46.3482" lon="5.37778">
        <ele>484.2</ele>
        <time>2014-03-19T15:09:42Z</time>
      </trkpt>
      <trkpt lat="46.34815" lon="5.37754">
        <ele>483.8</ele>
        <time>2014-03-19T15:09:47Z</time>
      </trkpt>
      <trkpt lat="46.34807" lon="5.37729">
        <ele>483.6</ele>
        <time>2014-03-19T15:09:52Z</time>
      </trkpt>
      <trkpt lat="46.34806" lon="5.37718">
        <ele>483.4</ele>
        <time>2014-03-19T15:09:54Z</time>
      </trkpt>
      <trkpt lat="46.34807" lon="5.37706">
        <ele>483.2</ele>
        <time>2014-03-19T15:09:56Z</time>
      </trkpt>
      <trkpt lat="46.34813" lon="5.37697">
        <ele>482.8</ele>
        <time>2014-03-19T15:09:59Z</time>
      </trkpt>
      <trkpt lat="46.34825" lon="5.37676">
        <ele>482</ele>
        <time>2014-03-19T15:10:06Z</time>
      </trkpt>
      <trkpt lat="46.34833" lon="5.37661">
        <ele>481.2</ele>
        <time>2014-03-19T15:10:11Z</time>
      </trkpt>
      <trkpt lat="46.34843" lon="5.37646">
        <ele>480.4</ele>
        <time>2014-03-19T15:10:16Z</time>
      </trkpt>
      <trkpt lat="46.3485" lon="5.37632">
        <ele>479.6</ele>
        <time>2014-03-19T15:10:20Z</time>
      </trkpt>
      <trkpt lat="46.3486" lon="5.37614">
        <ele>478.4</ele>
        <time>2014-03-19T15:10:25Z</time>
      </trkpt>
      <trkpt lat="46.34867" lon="5.37594">
        <ele>477.2</ele>
        <time>2014-03-19T15:10:30Z</time>
      </trkpt>
      <trkpt lat="46.34871" lon="5.37572">
        <ele>476.2</ele>
        <time>2014-03-19T15:10:35Z</time>
      </trkpt>
      <trkpt lat="46.3487" lon="5.37557">
        <ele>475.6</ele>
        <time>2014-03-19T15:10:39Z</time>
      </trkpt>
      <trkpt lat="46.34857" lon="5.37541">
        <ele>474.4</ele>
        <time>2014-03-19T15:10:45Z</time>
      </trkpt>
      <trkpt lat="46.3485" lon="5.37531">
        <ele>473.8</ele>
        <time>2014-03-19T15:10:50Z</time>
      </trkpt>
      <trkpt lat="46.34848" lon="5.37526">
        <ele>473.4</ele>
        <time>2014-03-19T15:10:52Z</time>
      </trkpt>
      <trkpt lat="46.34843" lon="5.37521">
        <ele>473</ele>
        <time>2014-03-19T15:10:55Z</time>
      </trkpt>
      <trkpt lat="46.34832" lon="5.37513">
        <ele>472.2</ele>
        <time>2014-03-19T15:11:01Z</time>
      </trkpt>
      <trkpt lat="46.34824" lon="5.3751">
        <ele>471.6</ele>
        <time>2014-03-19T15:11:05Z</time>
      </trkpt>
      <trkpt lat="46.34822" lon="5.37506">
        <ele>471.4</ele>
        <time>2014-03-19T15:11:06Z</time>
      </trkpt>
      <trkpt lat="46.34815" lon="5.37487">
        <ele>470.8</ele>
        <time>2014-03-19T15:11:12Z</time>
      </trkpt>
      <trkpt lat="46.34814" lon="5.37471">
        <ele>470.4</ele>
        <time>2014-03-19T15:11:17Z</time>
      </trkpt>
      <trkpt lat="46.3481" lon="5.37454">
        <ele>470</ele>
        <time>2014-03-19T15:11:23Z</time>
      </trkpt>
      <trkpt lat="46.34806" lon="5.37443">
        <ele>469.8</ele>
        <time>2014-03-19T15:11:27Z</time>
      </trkpt>
      <trkpt lat="46.34802" lon="5.37425">
        <ele>469.8</ele>
        <time>2014-03-19T15:11:33Z</time>
      </trkpt>
      <trkpt lat="46.34795" lon="5.37412">
        <ele>469.6</ele>
        <time>2014-03-19T15:11:38Z</time>
      </trkpt>
      <trkpt lat="46.34792" lon="5.37405">
        <ele>469.6</ele>
        <time>2014-03-19T15:11:42Z</time>
      </trkpt>
      <trkpt lat="46.34792" lon="5.37403">
        <ele>469.6</ele>
        <time>2014-03-19T15:11:43Z</time>
      </trkpt>
      <trkpt lat="46.34787" lon="5.37387">
        <ele>470</ele>
        <time>2014-03-19T15:11:49Z</time>
      </trkpt>
      <trkpt lat="46.34782" lon="5.37368">
        <ele>470.8</ele>
        <time>2014-03-19T15:11:56Z</time>
      </trkpt>
      <trkpt lat="46.3478" lon="5.37357">
        <ele>471.4</ele>
        <time>2014-03-19T15:12:01Z</time>
      </trkpt>
      <trkpt lat="46.3478" lon="5.3734">
        <ele>472.6</ele>
        <time>2014-03-19T15:12:07Z</time>
      </trkpt>
      <trkpt lat="46.3478" lon="5.37339">
        <ele>472.8</ele>
        <time>2014-03-19T15:12:08Z</time>
      </trkpt>
      <trkpt lat="46.3478" lon="5.37331">
        <ele>473.6</ele>
        <time>2014-03-19T15:12:12Z</time>
      </trkpt>
      <trkpt lat="46.34776" lon="5.3732">
        <ele>474.8</ele>
        <time>2014-03-19T15:12:18Z</time>
      </trkpt>
      <trkpt lat="46.34767" lon="5.37314">
        <ele>476</ele>
        <time>2014-03-19T15:12:23Z</time>
      </trkpt>
      <trkpt lat="46.34757" lon="5.37308">
        <ele>477.2</ele>
        <time>2014-03-19T15:12:28Z</time>
      </trkpt>
      <trkpt lat="46.3474" lon="5.37299">
        <ele>478.8</ele>
        <time>2014-03-19T15:12:35Z</time>
      </trkpt>
      <trkpt lat="46.34726" lon="5.37288">
        <ele>480.2</ele>
        <time>2014-03-19T15:12:41Z</time>
      </trkpt>
      <trkpt lat="46.34713" lon="5.37276">
        <ele>481.4</ele>
        <time>2014-03-19T15:12:47Z</time>
      </trkpt>
      <trkpt lat="46.34701" lon="5.37266">
        <ele>482.8</ele>
        <time>2014-03-19T15:12:53Z</time>
      </trkpt>
      <trkpt lat="46.3469" lon="5.37256">
        <ele>484</ele>
        <time>2014-03-19T15:12:58Z</time>
      </trkpt>
      <trkpt lat="46.34678" lon="5.37245">
        <ele>485.2</ele>
        <time>2014-03-19T15:13:03Z</time>
      </trkpt>
      <trkpt lat="46.34673" lon="5.37232">
        <ele>486</ele>
        <time>2014-03-19T15:13:07Z</time>
      </trkpt>
      <trkpt lat="46.34666" lon="5.37221">
        <ele>486.8</ele>
        <time>2014-03-19T15:13:11Z</time>
      </trkpt>
      <trkpt lat="46.34655" lon="5.37208">
        <ele>488</ele>
        <time>2014-03-19T15:13:16Z</time>
      </trkpt>
      <trkpt lat="46.34643" lon="5.37188">
        <ele>489.6</ele>
        <time>2014-03-19T15:13:23Z</time>
      </trkpt>
      <trkpt lat="46.34639" lon="5.37174">
        <ele>490.4</ele>
        <time>2014-03-19T15:13:27Z</time>
      </trkpt>
      <trkpt lat="46.34633" lon="5.37164">
        <ele>491.4</ele>
        <time>2014-03-19T15:13:33Z</time>
      </trkpt>
      <trkpt lat="46.34633" lon="5.37163">
        <ele>491.6</ele>
        <time>2014-03-19T15:13:34Z</time>
      </trkpt>
      <trkpt lat="46.34631" lon="5.37159">
        <ele>492</ele>
        <time>2014-03-19T15:13:38Z</time>
      </trkpt>
      <trkpt lat="46.3463" lon="5.37159">
        <ele>492.2</ele>
        <time>2014-03-19T15:13:40Z</time>
      </trkpt>
      <trkpt lat="46.34629" lon="5.37159">
        <ele>492.4</ele>
        <time>2014-03-19T15:13:42Z</time>
      </trkpt>
      <trkpt lat="46.34632" lon="5.37155">
        <ele>494</ele>
        <time>2014-03-19T15:14:05Z</time>
      </trkpt>
      <trkpt lat="46.34632" lon="5.37154">
        <ele>494</ele>
        <time>2014-03-19T15:14:06Z</time>
      </trkpt>
      <trkpt lat="46.34631" lon="5.37153">
        <ele>494.4</ele>
        <time>2014-03-19T15:14:10Z</time>
      </trkpt>
      <trkpt lat="46.3463" lon="5.37152">
        <ele>495</ele>
        <time>2014-03-19T15:14:20Z</time>
      </trkpt>
      <trkpt lat="46.34627" lon="5.37147">
        <ele>495</ele>
        <time>2014-03-19T15:14:25Z</time>
      </trkpt>
      <trkpt lat="46.34622" lon="5.37137">
        <ele>494.8</ele>
        <time>2014-03-19T15:14:29Z</time>
      </trkpt>
      <trkpt lat="46.34609" lon="5.37122">
        <ele>494.4</ele>
        <time>2014-03-19T15:14:35Z</time>
      </trkpt>
      <trkpt lat="46.34596" lon="5.37104">
        <ele>493.4</ele>
        <time>2014-03-19T15:14:41Z</time>
      </trkpt>
      <trkpt lat="46.34594" lon="5.37094">
        <ele>493.2</ele>
        <time>2014-03-19T15:14:43Z</time>
      </trkpt>
      <trkpt lat="46.34593" lon="5.3709">
        <ele>493</ele>
        <time>2014-03-19T15:14:44Z</time>
      </trkpt>
      <trkpt lat="46.34593" lon="5.37071">
        <ele>492.4</ele>
        <time>2014-03-19T15:14:47Z</time>
      </trkpt>
      <trkpt lat="46.34594" lon="5.37044">
        <ele>491.6</ele>
        <time>2014-03-19T15:14:52Z</time>
      </trkpt>
      <trkpt lat="46.34596" lon="5.37022">
        <ele>490.6</ele>
        <time>2014-03-19T15:14:57Z</time>
      </trkpt>
      <trkpt lat="46.34597" lon="5.37007">
        <ele>489.8</ele>
        <time>2014-03-19T15:15:01Z</time>
      </trkpt>
      <trkpt lat="46.34597" lon="5.36994">
        <ele>488.8</ele>
        <time>2014-03-19T15:15:05Z</time>
      </trkpt>
      <trkpt lat="46.34592" lon="5.36996">
        <ele>488.4</ele>
        <time>2014-03-19T15:15:07Z</time>
      </trkpt>
      <trkpt lat="46.34583" lon="5.37004">
        <ele>487.8</ele>
        <time>2014-03-19T15:15:10Z</time>
      </trkpt>
      <trkpt lat="46.34575" lon="5.37015">
        <ele>487</ele>
        <time>2014-03-19T15:15:13Z</time>
      </trkpt>
      <trkpt lat="46.34566" lon="5.37042">
        <ele>486</ele>
        <time>2014-03-19T15:15:18Z</time>
      </trkpt>
      <trkpt lat="46.34562" lon="5.37062">
        <ele>485.2</ele>
        <time>2014-03-19T15:15:22Z</time>
      </trkpt>
      <trkpt lat="46.34556" lon="5.37087">
        <ele>484</ele>
        <time>2014-03-19T15:15:27Z</time>
      </trkpt>
      <trkpt lat="46.34555" lon="5.37091">
        <ele>483.8</ele>
        <time>2014-03-19T15:15:28Z</time>
      </trkpt>
      <trkpt lat="46.34547" lon="5.37115">
        <ele>482.8</ele>
        <time>2014-03-19T15:15:33Z</time>
      </trkpt>
      <trkpt lat="46.34543" lon="5.37125">
        <ele>482.4</ele>
        <time>2014-03-19T15:15:35Z</time>
      </trkpt>
      <trkpt lat="46.34534" lon="5.37148">
        <ele>481.4</ele>
        <time>2014-03-19T15:15:40Z</time>
      </trkpt>
      <trkpt lat="46.34527" lon="5.37174">
        <ele>480.6</ele>
        <time>2014-03-19T15:15:45Z</time>
      </trkpt>
      <trkpt lat="46.34526" lon="5.37179">
        <ele>480.4</ele>
        <time>2014-03-19T15:15:46Z</time>
      </trkpt>
      <trkpt lat="46.34522" lon="5.37205">
        <ele>479.6</ele>
        <time>2014-03-19T15:15:51Z</time>
      </trkpt>
      <trkpt lat="46.34522" lon="5.3721">
        <ele>479.4</ele>
        <time>2014-03-19T15:15:52Z</time>
      </trkpt>
      <trkpt lat="46.34523" lon="5.37237">
        <ele>478.6</ele>
        <time>2014-03-19T15:15:57Z</time>
      </trkpt>
      <trkpt lat="46.34523" lon="5.37264">
        <ele>477.8</ele>
        <time>2014-03-19T15:16:03Z</time>
      </trkpt>
      <trkpt lat="46.34524" lon="5.37289">
        <ele>477</ele>
        <time>2014-03-19T15:16:08Z</time>
      </trkpt>
      <trkpt lat="46.34523" lon="5.37314">
        <ele>476.2</ele>
        <time>2014-03-19T15:16:14Z</time>
      </trkpt>
      <trkpt lat="46.34524" lon="5.37316">
        <ele>476</ele>
        <time>2014-03-19T15:16:15Z</time>
      </trkpt>
      <trkpt lat="46.34524" lon="5.37319">
        <ele>475.6</ele>
        <time>2014-03-19T15:16:17Z</time>
      </trkpt>
      <trkpt lat="46.34518" lon="5.37319">
        <ele>475</ele>
        <time>2014-03-19T15:16:21Z</time>
      </trkpt>
      <trkpt lat="46.34511" lon="5.37313">
        <ele>474.6</ele>
        <time>2014-03-19T15:16:23Z</time>
      </trkpt>
      <trkpt lat="46.345" lon="5.373">
        <ele>474.2</ele>
        <time>2014-03-19T15:16:26Z</time>
      </trkpt>
      <trkpt lat="46.34495" lon="5.3728">
        <ele>473.2</ele>
        <time>2014-03-19T15:16:30Z</time>
      </trkpt>
      <trkpt lat="46.3449" lon="5.37254">
        <ele>472</ele>
        <time>2014-03-19T15:16:35Z</time>
      </trkpt>
      <trkpt lat="46.34488" lon="5.37251">
        <ele>471.8</ele>
        <time>2014-03-19T15:16:36Z</time>
      </trkpt>
      <trkpt lat="46.34486" lon="5.37249">
        <ele>471.4</ele>
        <time>2014-03-19T15:16:37Z</time>
      </trkpt>
      <trkpt lat="46.34482" lon="5.37253">
        <ele>471</ele>
        <time>2014-03-19T15:16:39Z</time>
      </trkpt>
      <trkpt lat="46.3448" lon="5.37247">
        <ele>470.6</ele>
        <time>2014-03-19T15:16:41Z</time>
      </trkpt>
      <trkpt lat="46.3447" lon="5.37239">
        <ele>469</ele>
        <time>2014-03-19T15:16:46Z</time>
      </trkpt>
      <trkpt lat="46.34469" lon="5.37237">
        <ele>468.8</ele>
        <time>2014-03-19T15:16:47Z</time>
      </trkpt>
      <trkpt lat="46.3446" lon="5.37231">
        <ele>467.2</ele>
        <time>2014-03-19T15:16:52Z</time>
      </trkpt>
      <trkpt lat="46.34448" lon="5.37229">
        <ele>465.4</ele>
        <time>2014-03-19T15:16:57Z</time>
      </trkpt>
      <trkpt lat="46.34428" lon="5.37231">
        <ele>463.4</ele>
        <time>2014-03-19T15:17:02Z</time>
      </trkpt>
      <trkpt lat="46.3441" lon="5.37226">
        <ele>462</ele>
        <time>2014-03-19T15:17:06Z</time>
      </trkpt>
      <trkpt lat="46.34397" lon="5.37218">
        <ele>461</ele>
        <time>2014-03-19T15:17:09Z</time>
      </trkpt>
      <trkpt lat="46.34391" lon="5.37209">
        <ele>460.2</ele>
        <time>2014-03-19T15:17:11Z</time>
      </trkpt>
      <trkpt lat="46.34387" lon="5.37199">
        <ele>459.4</ele>
        <time>2014-03-19T15:17:13Z</time>
      </trkpt>
      <trkpt lat="46.34385" lon="5.37191">
        <ele>458.8</ele>
        <time>2014-03-19T15:17:15Z</time>
      </trkpt>
      <trkpt lat="46.34381" lon="5.37183">
        <ele>458</ele>
        <time>2014-03-19T15:17:17Z</time>
      </trkpt>
      <trkpt lat="46.34374" lon="5.37163">
        <ele>456.4</ele>
        <time>2014-03-19T15:17:22Z</time>
      </trkpt>
      <trkpt lat="46.34372" lon="5.37144">
        <ele>455</ele>
        <time>2014-03-19T15:17:26Z</time>
      </trkpt>
      <trkpt lat="46.34378" lon="5.37115">
        <ele>453</ele>
        <time>2014-03-19T15:17:32Z</time>
      </trkpt>
      <trkpt lat="46.34383" lon="5.37098">
        <ele>451.2</ele>
        <time>2014-03-19T15:17:37Z</time>
      </trkpt>
      <trkpt lat="46.34385" lon="5.37094">
        <ele>450.2</ele>
        <time>2014-03-19T15:17:40Z</time>
      </trkpt>
      <trkpt lat="46.34385" lon="5.37092">
        <ele>449.8</ele>
        <time>2014-03-19T15:17:41Z</time>
      </trkpt>
      <trkpt lat="46.34384" lon="5.3709">
        <ele>449.4</ele>
        <time>2014-03-19T15:17:42Z</time>
      </trkpt>
      <trkpt lat="46.34385" lon="5.3708">
        <ele>448.8</ele>
        <time>2014-03-19T15:17:44Z</time>
      </trkpt>
      <trkpt lat="46.34393" lon="5.37052">
        <ele>446.6</ele>
        <time>2014-03-19T15:17:50Z</time>
      </trkpt>
      <trkpt lat="46.34397" lon="5.37041">
        <ele>445.6</ele>
        <time>2014-03-19T15:17:53Z</time>
      </trkpt>
      <trkpt lat="46.34397" lon="5.37037">
        <ele>445.2</ele>
        <time>2014-03-19T15:17:54Z</time>
      </trkpt>
      <trkpt lat="46.34402" lon="5.37012">
        <ele>443.6</ele>
        <time>2014-03-19T15:17:58Z</time>
      </trkpt>
      <trkpt lat="46.34408" lon="5.36986">
        <ele>442.2</ele>
        <time>2014-03-19T15:18:02Z</time>
      </trkpt>
      <trkpt lat="46.3441" lon="5.3698">
        <ele>441.8</ele>
        <time>2014-03-19T15:18:03Z</time>
      </trkpt>
      <trkpt lat="46.34411" lon="5.36974">
        <ele>441.4</ele>
        <time>2014-03-19T15:18:04Z</time>
      </trkpt>
      <trkpt lat="46.34414" lon="5.36961">
        <ele>440.6</ele>
        <time>2014-03-19T15:18:06Z</time>
      </trkpt>
      <trkpt lat="46.34416" lon="5.36951">
        <ele>440</ele>
        <time>2014-03-19T15:18:08Z</time>
      </trkpt>
      <trkpt lat="46.34417" lon="5.36946">
        <ele>439.6</ele>
        <time>2014-03-19T15:18:09Z</time>
      </trkpt>
      <trkpt lat="46.34416" lon="5.36937">
        <ele>438.6</ele>
        <time>2014-03-19T15:18:12Z</time>
      </trkpt>
      <trkpt lat="46.34408" lon="5.36932">
        <ele>437.4</ele>
        <time>2014-03-19T15:18:15Z</time>
      </trkpt>
      <trkpt lat="46.34405" lon="5.36931">
        <ele>437</ele>
        <time>2014-03-19T15:18:16Z</time>
      </trkpt>
      <trkpt lat="46.34399" lon="5.36926">
        <ele>436.2</ele>
        <time>2014-03-19T15:18:18Z</time>
      </trkpt>
      <trkpt lat="46.34394" lon="5.36918">
        <ele>435.4</ele>
        <time>2014-03-19T15:18:20Z</time>
      </trkpt>
      <trkpt lat="46.34383" lon="5.36897">
        <ele>433</ele>
        <time>2014-03-19T15:18:26Z</time>
      </trkpt>
      <trkpt lat="46.3437" lon="5.36881">
        <ele>430.8</ele>
        <time>2014-03-19T15:18:31Z</time>
      </trkpt>
      <trkpt lat="46.34351" lon="5.36873">
        <ele>428</ele>
        <time>2014-03-19T15:18:37Z</time>
      </trkpt>
      <trkpt lat="46.34337" lon="5.36885">
        <ele>426.2</ele>
        <time>2014-03-19T15:18:41Z</time>
      </trkpt>
      <trkpt lat="46.34319" lon="5.36899">
        <ele>423.8</ele>
        <time>2014-03-19T15:18:46Z</time>
      </trkpt>
      <trkpt lat="46.34304" lon="5.36915">
        <ele>421.4</ele>
        <time>2014-03-19T15:18:51Z</time>
      </trkpt>
      <trkpt lat="46.34294" lon="5.36932">
        <ele>419.6</ele>
        <time>2014-03-19T15:18:55Z</time>
      </trkpt>
      <trkpt lat="46.34281" lon="5.36949">
        <ele>417.4</ele>
        <time>2014-03-19T15:19:00Z</time>
      </trkpt>
      <trkpt lat="46.34275" lon="5.36954">
        <ele>416.4</ele>
        <time>2014-03-19T15:19:02Z</time>
      </trkpt>
      <trkpt lat="46.34268" lon="5.36953">
        <ele>415.6</ele>
        <time>2014-03-19T15:19:04Z</time>
      </trkpt>
      <trkpt lat="46.3426" lon="5.36952">
        <ele>414.6</ele>
        <time>2014-03-19T15:19:06Z</time>
      </trkpt>
      <trkpt lat="46.3425" lon="5.36954">
        <ele>413.2</ele>
        <time>2014-03-19T15:19:09Z</time>
      </trkpt>
      <trkpt lat="46.34234" lon="5.36966">
        <ele>411</ele>
        <time>2014-03-19T15:19:14Z</time>
      </trkpt>
      <trkpt lat="46.34222" lon="5.36975">
        <ele>408.8</ele>
        <time>2014-03-19T15:19:19Z</time>
      </trkpt>
      <trkpt lat="46.34215" lon="5.36975">
        <ele>408</ele>
        <time>2014-03-19T15:19:21Z</time>
      </trkpt>
      <trkpt lat="46.34213" lon="5.36972">
        <ele>407.4</ele>
        <time>2014-03-19T15:19:22Z</time>
      </trkpt>
      <trkpt lat="46.34215" lon="5.36957">
        <ele>406</ele>
        <time>2014-03-19T15:19:25Z</time>
      </trkpt>
      <trkpt lat="46.34218" lon="5.36931">
        <ele>403.6</ele>
        <time>2014-03-19T15:19:30Z</time>
      </trkpt>
      <trkpt lat="46.3422" lon="5.36902">
        <ele>400.8</ele>
        <time>2014-03-19T15:19:36Z</time>
      </trkpt>
      <trkpt lat="46.34224" lon="5.36895">
        <ele>399.4</ele>
        <time>2014-03-19T15:19:39Z</time>
      </trkpt>
      <trkpt lat="46.34227" lon="5.36892">
        <ele>398</ele>
        <time>2014-03-19T15:19:42Z</time>
      </trkpt>
      <trkpt lat="46.34228" lon="5.3688">
        <ele>396</ele>
        <time>2014-03-19T15:19:46Z</time>
      </trkpt>
      <trkpt lat="46.34228" lon="5.36872">
        <ele>394.8</ele>
        <time>2014-03-19T15:19:49Z</time>
      </trkpt>
      <trkpt lat="46.3423" lon="5.36868">
        <ele>394.2</ele>
        <time>2014-03-19T15:19:50Z</time>
      </trkpt>
      <trkpt lat="46.34235" lon="5.36853">
        <ele>392.6</ele>
        <time>2014-03-19T15:19:54Z</time>
      </trkpt>
      <trkpt lat="46.34231" lon="5.36846">
        <ele>391.2</ele>
        <time>2014-03-19T15:19:57Z</time>
      </trkpt>
      <trkpt lat="46.34226" lon="5.3683">
        <ele>389.4</ele>
        <time>2014-03-19T15:20:01Z</time>
      </trkpt>
      <trkpt lat="46.34224" lon="5.36813">
        <ele>387.4</ele>
        <time>2014-03-19T15:20:05Z</time>
      </trkpt>
      <trkpt lat="46.34223" lon="5.36808">
        <ele>387</ele>
        <time>2014-03-19T15:20:06Z</time>
      </trkpt>
      <trkpt lat="46.34225" lon="5.36788">
        <ele>385</ele>
        <time>2014-03-19T15:20:10Z</time>
      </trkpt>
      <trkpt lat="46.34231" lon="5.36782">
        <ele>383.6</ele>
        <time>2014-03-19T15:20:13Z</time>
      </trkpt>
      <trkpt lat="46.34236" lon="5.36777">
        <ele>382.2</ele>
        <time>2014-03-19T15:20:16Z</time>
      </trkpt>
      <trkpt lat="46.3424" lon="5.36773">
        <ele>381.4</ele>
        <time>2014-03-19T15:20:18Z</time>
      </trkpt>
      <trkpt lat="46.34248" lon="5.36766">
        <ele>379.2</ele>
        <time>2014-03-19T15:20:23Z</time>
      </trkpt>
      <trkpt lat="46.34255" lon="5.36759">
        <ele>377.2</ele>
        <time>2014-03-19T15:20:28Z</time>
      </trkpt>
      <trkpt lat="46.34257" lon="5.36757">
        <ele>376.8</ele>
        <time>2014-03-19T15:20:29Z</time>
      </trkpt>
      <trkpt lat="46.34268" lon="5.36748">
        <ele>375</ele>
        <time>2014-03-19T15:20:34Z</time>
      </trkpt>
      <trkpt lat="46.34279" lon="5.36742">
        <ele>373.2</ele>
        <time>2014-03-19T15:20:39Z</time>
      </trkpt>
      <trkpt lat="46.34291" lon="5.36736">
        <ele>371.6</ele>
        <time>2014-03-19T15:20:44Z</time>
      </trkpt>
      <trkpt lat="46.343" lon="5.36731">
        <ele>370.4</ele>
        <time>2014-03-19T15:20:48Z</time>
      </trkpt>
      <trkpt lat="46.34311" lon="5.36723">
        <ele>369</ele>
        <time>2014-03-19T15:20:54Z</time>
      </trkpt>
      <trkpt lat="46.34324" lon="5.36714">
        <ele>367.6</ele>
        <time>2014-03-19T15:21:00Z</time>
      </trkpt>
      <trkpt lat="46.34338" lon="5.36706">
        <ele>366.4</ele>
        <time>2014-03-19T15:21:06Z</time>
      </trkpt>
      <trkpt lat="46.34343" lon="5.36706">
        <ele>366</ele>
        <time>2014-03-19T15:21:09Z</time>
      </trkpt>
      <trkpt lat="46.34344" lon="5.36706">
        <ele>365.8</ele>
        <time>2014-03-19T15:21:10Z</time>
      </trkpt>
      <trkpt lat="46.3435" lon="5.36703">
        <ele>365.2</ele>
        <time>2014-03-19T15:21:14Z</time>
      </trkpt>
      <trkpt lat="46.34351" lon="5.367">
        <ele>365</ele>
        <time>2014-03-19T15:21:15Z</time>
      </trkpt>
      <trkpt lat="46.34355" lon="5.36693">
        <ele>364.6</ele>
        <time>2014-03-19T15:21:18Z</time>
      </trkpt>
      <trkpt lat="46.34365" lon="5.36684">
        <ele>364</ele>
        <time>2014-03-19T15:21:23Z</time>
      </trkpt>
      <trkpt lat="46.34376" lon="5.36672">
        <ele>363.4</ele>
        <time>2014-03-19T15:21:28Z</time>
      </trkpt>
      <trkpt lat="46.34389" lon="5.3666">
        <ele>363</ele>
        <time>2014-03-19T15:21:33Z</time>
      </trkpt>
      <trkpt lat="46.344" lon="5.36643">
        <ele>362.6</ele>
        <time>2014-03-19T15:21:38Z</time>
      </trkpt>
      <trkpt lat="46.34412" lon="5.36628">
        <ele>362.2</ele>
        <time>2014-03-19T15:21:43Z</time>
      </trkpt>
      <trkpt lat="46.34421" lon="5.36615">
        <ele>362</ele>
        <time>2014-03-19T15:21:47Z</time>
      </trkpt>
      <trkpt lat="46.34431" lon="5.36604">
        <ele>361.6</ele>
        <time>2014-03-19T15:21:51Z</time>
      </trkpt>
      <trkpt lat="46.34443" lon="5.36599">
        <ele>361.4</ele>
        <time>2014-03-19T15:21:55Z</time>
      </trkpt>
      <trkpt lat="46.34445" lon="5.366">
        <ele>361.2</ele>
        <time>2014-03-19T15:21:56Z</time>
      </trkpt>
      <trkpt lat="46.34448" lon="5.36594">
        <ele>361</ele>
        <time>2014-03-19T15:22:00Z</time>
      </trkpt>
      <trkpt lat="46.34444" lon="5.36578">
        <ele>360.8</ele>
        <time>2014-03-19T15:22:04Z</time>
      </trkpt>
      <trkpt lat="46.34437" lon="5.36571">
        <ele>360.6</ele>
        <time>2014-03-19T15:22:07Z</time>
      </trkpt>
      <trkpt lat="46.34434" lon="5.36569">
        <ele>360.4</ele>
        <time>2014-03-19T15:22:08Z</time>
      </trkpt>
      <trkpt lat="46.34433" lon="5.36565">
        <ele>360.4</ele>
        <time>2014-03-19T15:22:09Z</time>
      </trkpt>
      <trkpt lat="46.3443" lon="5.36552">
        <ele>360</ele>
        <time>2014-03-19T15:22:12Z</time>
      </trkpt>
      <trkpt lat="46.34429" lon="5.36548">
        <ele>359.8</ele>
        <time>2014-03-19T15:22:13Z</time>
      </trkpt>
      <trkpt lat="46.34422" lon="5.36529">
        <ele>359.2</ele>
        <time>2014-03-19T15:22:18Z</time>
      </trkpt>
      <trkpt lat="46.34419" lon="5.36521">
        <ele>358.6</ele>
        <time>2014-03-19T15:22:22Z</time>
      </trkpt>
      <trkpt lat="46.34418" lon="5.36521">
        <ele>358.4</ele>
        <time>2014-03-19T15:22:23Z</time>
      </trkpt>
      <trkpt lat="46.34415" lon="5.36524">
        <ele>358</ele>
        <time>2014-03-19T15:22:26Z</time>
      </trkpt>
      <trkpt lat="46.34408" lon="5.3652">
        <ele>357.2</ele>
        <time>2014-03-19T15:22:31Z</time>
      </trkpt>
      <trkpt lat="46.34401" lon="5.36521">
        <ele>356.6</ele>
        <time>2014-03-19T15:22:35Z</time>
      </trkpt>
      <trkpt lat="46.34397" lon="5.36516">
        <ele>356</ele>
        <time>2014-03-19T15:22:39Z</time>
      </trkpt>
      <trkpt lat="46.34404" lon="5.36502">
        <ele>355.2</ele>
        <time>2014-03-19T15:22:43Z</time>
      </trkpt>
      <trkpt lat="46.34408" lon="5.36489">
        <ele>354.8</ele>
        <time>2014-03-19T15:22:46Z</time>
      </trkpt>
      <trkpt lat="46.34412" lon="5.36474">
        <ele>354</ele>
        <time>2014-03-19T15:22:50Z</time>
      </trkpt>
      <trkpt lat="46.34417" lon="5.36457">
        <ele>353.2</ele>
        <time>2014-03-19T15:22:55Z</time>
      </trkpt>
      <trkpt lat="46.34422" lon="5.36448">
        <ele>352.6</ele>
        <time>2014-03-19T15:22:58Z</time>
      </trkpt>
      <trkpt lat="46.34422" lon="5.36443">
        <ele>352.2</ele>
        <time>2014-03-19T15:23:00Z</time>
      </trkpt>
      <trkpt lat="46.34421" lon="5.36439">
        <ele>351.8</ele>
        <time>2014-03-19T15:23:02Z</time>
      </trkpt>
      <trkpt lat="46.34415" lon="5.36431">
        <ele>350.8</ele>
        <time>2014-03-19T15:23:06Z</time>
      </trkpt>
      <trkpt lat="46.34406" lon="5.36417">
        <ele>350</ele>
        <time>2014-03-19T15:23:10Z</time>
      </trkpt>
      <trkpt lat="46.344" lon="5.36401">
        <ele>349</ele>
        <time>2014-03-19T15:23:14Z</time>
      </trkpt>
      <trkpt lat="46.34398" lon="5.36396">
        <ele>348.8</ele>
        <time>2014-03-19T15:23:15Z</time>
      </trkpt>
      <trkpt lat="46.34396" lon="5.36387">
        <ele>348.4</ele>
        <time>2014-03-19T15:23:17Z</time>
      </trkpt>
      <trkpt lat="46.34397" lon="5.36384">
        <ele>348</ele>
        <time>2014-03-19T15:23:18Z</time>
      </trkpt>
      <trkpt lat="46.344" lon="5.36375">
        <ele>346.8</ele>
        <time>2014-03-19T15:23:23Z</time>
      </trkpt>
      <trkpt lat="46.34401" lon="5.36369">
        <ele>346.2</ele>
        <time>2014-03-19T15:23:25Z</time>
      </trkpt>
      <trkpt lat="46.34406" lon="5.36363">
        <ele>345.8</ele>
        <time>2014-03-19T15:23:27Z</time>
      </trkpt>
      <trkpt lat="46.34417" lon="5.36348">
        <ele>344.6</ele>
        <time>2014-03-19T15:23:31Z</time>
      </trkpt>
      <trkpt lat="46.3442" lon="5.36341">
        <ele>343.8</ele>
        <time>2014-03-19T15:23:34Z</time>
      </trkpt>
      <trkpt lat="46.34421" lon="5.3634">
        <ele>343.4</ele>
        <time>2014-03-19T15:23:35Z</time>
      </trkpt>
      <trkpt lat="46.34422" lon="5.36341">
        <ele>343</ele>
        <time>2014-03-19T15:23:37Z</time>
      </trkpt>
      <trkpt lat="46.34425" lon="5.36342">
        <ele>342.2</ele>
        <time>2014-03-19T15:23:40Z</time>
      </trkpt>
      <trkpt lat="46.34427" lon="5.36338">
        <ele>341</ele>
        <time>2014-03-19T15:23:44Z</time>
      </trkpt>
      <trkpt lat="46.34425" lon="5.36336">
        <ele>340.6</ele>
        <time>2014-03-19T15:23:46Z</time>
      </trkpt>
      <trkpt lat="46.34424" lon="5.36334">
        <ele>340.2</ele>
        <time>2014-03-19T15:23:47Z</time>
      </trkpt>
      <trkpt lat="46.34424" lon="5.36333">
        <ele>340</ele>
        <time>2014-03-19T15:23:48Z</time>
      </trkpt>
      <trkpt lat="46.34425" lon="5.36321">
        <ele>339.2</ele>
        <time>2014-03-19T15:23:51Z</time>
      </trkpt>
      <trkpt lat="46.34427" lon="5.36309">
        <ele>338.4</ele>
        <time>2014-03-19T15:23:54Z</time>
      </trkpt>
      <trkpt lat="46.34426" lon="5.36304">
        <ele>338.2</ele>
        <time>2014-03-19T15:23:55Z</time>
      </trkpt>
      <trkpt lat="46.34427" lon="5.36283">
        <ele>336.8</ele>
        <time>2014-03-19T15:24:00Z</time>
      </trkpt>
      <trkpt lat="46.34426" lon="5.36275">
        <ele>336.4</ele>
        <time>2014-03-19T15:24:02Z</time>
      </trkpt>
      <trkpt lat="46.34424" lon="5.36266">
        <ele>335.8</ele>
        <time>2014-03-19T15:24:04Z</time>
      </trkpt>
      <trkpt lat="46.34422" lon="5.36246">
        <ele>334.8</ele>
        <time>2014-03-19T15:24:09Z</time>
      </trkpt>
      <trkpt lat="46.34417" lon="5.36223">
        <ele>333.8</ele>
        <time>2014-03-19T15:24:14Z</time>
      </trkpt>
      <trkpt lat="46.34415" lon="5.36209">
        <ele>333.2</ele>
        <time>2014-03-19T15:24:17Z</time>
      </trkpt>
      <trkpt lat="46.34415" lon="5.36189">
        <ele>332.4</ele>
        <time>2014-03-19T15:24:22Z</time>
      </trkpt>
      <trkpt lat="46.34413" lon="5.36175">
        <ele>332</ele>
        <time>2014-03-19T15:24:25Z</time>
      </trkpt>
      <trkpt lat="46.34412" lon="5.36172">
        <ele>331.8</ele>
        <time>2014-03-19T15:24:26Z</time>
      </trkpt>
      <trkpt lat="46.34413" lon="5.3615">
        <ele>330.8</ele>
        <time>2014-03-19T15:24:32Z</time>
      </trkpt>
      <trkpt lat="46.34408" lon="5.36128">
        <ele>329.8</ele>
        <time>2014-03-19T15:24:37Z</time>
      </trkpt>
      <trkpt lat="46.34402" lon="5.36111">
        <ele>329.2</ele>
        <time>2014-03-19T15:24:41Z</time>
      </trkpt>
      <trkpt lat="46.34398" lon="5.36095">
        <ele>328.4</ele>
        <time>2014-03-19T15:24:45Z</time>
      </trkpt>
      <trkpt lat="46.34393" lon="5.36077">
        <ele>327.6</ele>
        <time>2014-03-19T15:24:50Z</time>
      </trkpt>
      <trkpt lat="46.34392" lon="5.36073">
        <ele>327.6</ele>
        <time>2014-03-19T15:24:51Z</time>
      </trkpt>
      <trkpt lat="46.34389" lon="5.36064">
        <ele>327.2</ele>
        <time>2014-03-19T15:24:53Z</time>
      </trkpt>
      <trkpt lat="46.34385" lon="5.36046">
        <ele>326.6</ele>
        <time>2014-03-19T15:24:57Z</time>
      </trkpt>
      <trkpt lat="46.34384" lon="5.36039">
        <ele>326.4</ele>
        <time>2014-03-19T15:24:59Z</time>
      </trkpt>
      <trkpt lat="46.34381" lon="5.36024">
        <ele>325.8</ele>
        <time>2014-03-19T15:25:02Z</time>
      </trkpt>
      <trkpt lat="46.34379" lon="5.36004">
        <ele>325.2</ele>
        <time>2014-03-19T15:25:06Z</time>
      </trkpt>
      <trkpt lat="46.34381" lon="5.35982">
        <ele>324.6</ele>
        <time>2014-03-19T15:25:10Z</time>
      </trkpt>
      <trkpt lat="46.34384" lon="5.35952">
        <ele>323.8</ele>
        <time>2014-03-19T15:25:15Z</time>
      </trkpt>
      <trkpt lat="46.34385" lon="5.35923">
        <ele>323</ele>
        <time>2014-03-19T15:25:20Z</time>
      </trkpt>
      <trkpt lat="46.34385" lon="5.35918">
        <ele>322.8</ele>
        <time>2014-03-19T15:25:21Z</time>
      </trkpt>
      <trkpt lat="46.34385" lon="5.35913">
        <ele>322.6</ele>
        <time>2014-03-19T15:25:22Z</time>
      </trkpt>
      <trkpt lat="46.34387" lon="5.35896">
        <ele>322.2</ele>
        <time>2014-03-19T15:25:25Z</time>
      </trkpt>
      <trkpt lat="46.34387" lon="5.35891">
        <ele>322</ele>
        <time>2014-03-19T15:25:26Z</time>
      </trkpt>
      <trkpt lat="46.34391" lon="5.35876">
        <ele>321.4</ele>
        <time>2014-03-19T15:25:29Z</time>
      </trkpt>
      <trkpt lat="46.34399" lon="5.35857">
        <ele>320.6</ele>
        <time>2014-03-19T15:25:34Z</time>
      </trkpt>
      <trkpt lat="46.34412" lon="5.35835">
        <ele>319.4</ele>
        <time>2014-03-19T15:25:40Z</time>
      </trkpt>
      <trkpt lat="46.34423" lon="5.35816">
        <ele>318.4</ele>
        <time>2014-03-19T15:25:45Z</time>
      </trkpt>
      <trkpt lat="46.34434" lon="5.35799">
        <ele>317.4</ele>
        <time>2014-03-19T15:25:50Z</time>
      </trkpt>
      <trkpt lat="46.34445" lon="5.35787">
        <ele>316.6</ele>
        <time>2014-03-19T15:25:54Z</time>
      </trkpt>
      <trkpt lat="46.34456" lon="5.35772">
        <ele>315.8</ele>
        <time>2014-03-19T15:25:59Z</time>
      </trkpt>
      <trkpt lat="46.34465" lon="5.35759">
        <ele>315</ele>
        <time>2014-03-19T15:26:03Z</time>
      </trkpt>
      <trkpt lat="46.34476" lon="5.3575">
        <ele>314.2</ele>
        <time>2014-03-19T15:26:07Z</time>
      </trkpt>
      <trkpt lat="46.34487" lon="5.3574">
        <ele>313.4</ele>
        <time>2014-03-19T15:26:11Z</time>
      </trkpt>
      <trkpt lat="46.34502" lon="5.35726">
        <ele>312.4</ele>
        <time>2014-03-19T15:26:16Z</time>
      </trkpt>
      <trkpt lat="46.34516" lon="5.3571">
        <ele>311.4</ele>
        <time>2014-03-19T15:26:21Z</time>
      </trkpt>
      <trkpt lat="46.34518" lon="5.35706">
        <ele>311.2</ele>
        <time>2014-03-19T15:26:22Z</time>
      </trkpt>
      <trkpt lat="46.34524" lon="5.35693">
        <ele>310.6</ele>
        <time>2014-03-19T15:26:25Z</time>
      </trkpt>
      <trkpt lat="46.34537" lon="5.35671">
        <ele>309.6</ele>
        <time>2014-03-19T15:26:30Z</time>
      </trkpt>
      <trkpt lat="46.34539" lon="5.35666">
        <ele>309.4</ele>
        <time>2014-03-19T15:26:31Z</time>
      </trkpt>
      <trkpt lat="46.3455" lon="5.35644">
        <ele>308.4</ele>
        <time>2014-03-19T15:26:36Z</time>
      </trkpt>
      <trkpt lat="46.34551" lon="5.3564">
        <ele>308.2</ele>
        <time>2014-03-19T15:26:37Z</time>
      </trkpt>
      <trkpt lat="46.3456" lon="5.35623">
        <ele>307.4</ele>
        <time>2014-03-19T15:26:41Z</time>
      </trkpt>
      <trkpt lat="46.34569" lon="5.35596">
        <ele>306.4</ele>
        <time>2014-03-19T15:26:47Z</time>
      </trkpt>
      <trkpt lat="46.34575" lon="5.3558">
        <ele>305.6</ele>
        <time>2014-03-19T15:26:51Z</time>
      </trkpt>
      <trkpt lat="46.34581" lon="5.3556">
        <ele>304.6</ele>
        <time>2014-03-19T15:26:56Z</time>
      </trkpt>
      <trkpt lat="46.34586" lon="5.35554">
        <ele>304</ele>
        <time>2014-03-19T15:26:59Z</time>
      </trkpt>
      <trkpt lat="46.34591" lon="5.35554">
        <ele>303.4</ele>
        <time>2014-03-19T15:27:03Z</time>
      </trkpt>
      <trkpt lat="46.3459" lon="5.35554">
        <ele>302.6</ele>
        <time>2014-03-19T15:27:07Z</time>
      </trkpt>
      <trkpt lat="46.34599" lon="5.35559">
        <ele>302</ele>
        <time>2014-03-19T15:27:11Z</time>
      </trkpt>
      <trkpt lat="46.34614" lon="5.35549">
        <ele>301.2</ele>
        <time>2014-03-19T15:27:16Z</time>
      </trkpt>
      <trkpt lat="46.34628" lon="5.35532">
        <ele>300.2</ele>
        <time>2014-03-19T15:27:22Z</time>
      </trkpt>
      <trkpt lat="46.34643" lon="5.35516">
        <ele>299.2</ele>
        <time>2014-03-19T15:27:28Z</time>
      </trkpt>
      <trkpt lat="46.34654" lon="5.35495">
        <ele>298.4</ele>
        <time>2014-03-19T15:27:34Z</time>
      </trkpt>
      <trkpt lat="46.34664" lon="5.3548">
        <ele>297.8</ele>
        <time>2014-03-19T15:27:39Z</time>
      </trkpt>
      <trkpt lat="46.34677" lon="5.35461">
        <ele>297.2</ele>
        <time>2014-03-19T15:27:45Z</time>
      </trkpt>
      <trkpt lat="46.34685" lon="5.35449">
        <ele>297</ele>
        <time>2014-03-19T15:27:49Z</time>
      </trkpt>
      <trkpt lat="46.34699" lon="5.35433">
        <ele>296.4</ele>
        <time>2014-03-19T15:27:55Z</time>
      </trkpt>
      <trkpt lat="46.34716" lon="5.35419">
        <ele>295.8</ele>
        <time>2014-03-19T15:28:01Z</time>
      </trkpt>
      <trkpt lat="46.34719" lon="5.35416">
        <ele>295.8</ele>
        <time>2014-03-19T15:28:02Z</time>
      </trkpt>
      <trkpt lat="46.34733" lon="5.35405">
        <ele>295.4</ele>
        <time>2014-03-19T15:28:07Z</time>
      </trkpt>
      <trkpt lat="46.34747" lon="5.35391">
        <ele>295</ele>
        <time>2014-03-19T15:28:12Z</time>
      </trkpt>
      <trkpt lat="46.34765" lon="5.35375">
        <ele>294.4</ele>
        <time>2014-03-19T15:28:18Z</time>
      </trkpt>
      <trkpt lat="46.34778" lon="5.35365">
        <ele>294.2</ele>
        <time>2014-03-19T15:28:23Z</time>
      </trkpt>
      <trkpt lat="46.34792" lon="5.35354">
        <ele>293.8</ele>
        <time>2014-03-19T15:28:29Z</time>
      </trkpt>
      <trkpt lat="46.34804" lon="5.35344">
        <ele>293.4</ele>
        <time>2014-03-19T15:28:34Z</time>
      </trkpt>
      <trkpt lat="46.34818" lon="5.35334">
        <ele>293.2</ele>
        <time>2014-03-19T15:28:39Z</time>
      </trkpt>
      <trkpt lat="46.34832" lon="5.35323">
        <ele>293</ele>
        <time>2014-03-19T15:28:44Z</time>
      </trkpt>
      <trkpt lat="46.34845" lon="5.35312">
        <ele>292.8</ele>
        <time>2014-03-19T15:28:49Z</time>
      </trkpt>
      <trkpt lat="46.34864" lon="5.35299">
        <ele>292.6</ele>
        <time>2014-03-19T15:28:55Z</time>
      </trkpt>
      <trkpt lat="46.34879" lon="5.3529">
        <ele>292.2</ele>
        <time>2014-03-19T15:29:00Z</time>
      </trkpt>
      <trkpt lat="46.34894" lon="5.35285">
        <ele>292</ele>
        <time>2014-03-19T15:29:05Z</time>
      </trkpt>
      <trkpt lat="46.34913" lon="5.35277">
        <ele>291.8</ele>
        <time>2014-03-19T15:29:11Z</time>
      </trkpt>
      <trkpt lat="46.34931" lon="5.35268">
        <ele>291.6</ele>
        <time>2014-03-19T15:29:17Z</time>
      </trkpt>
      <trkpt lat="46.34935" lon="5.35266">
        <ele>291.6</ele>
        <time>2014-03-19T15:29:18Z</time>
      </trkpt>
      <trkpt lat="46.34954" lon="5.35265">
        <ele>291.4</ele>
        <time>2014-03-19T15:29:24Z</time>
      </trkpt>
      <trkpt lat="46.34975" lon="5.35269">
        <ele>291.4</ele>
        <time>2014-03-19T15:29:30Z</time>
      </trkpt>
      <trkpt lat="46.34979" lon="5.35269">
        <ele>291.2</ele>
        <time>2014-03-19T15:29:31Z</time>
      </trkpt>
      <trkpt lat="46.34998" lon="5.35272">
        <ele>291.2</ele>
        <time>2014-03-19T15:29:37Z</time>
      </trkpt>
      <trkpt lat="46.35005" lon="5.35273">
        <ele>291.2</ele>
        <time>2014-03-19T15:29:39Z</time>
      </trkpt>
      <trkpt lat="46.35025" lon="5.35277">
        <ele>291</ele>
        <time>2014-03-19T15:29:45Z</time>
      </trkpt>
      <trkpt lat="46.35045" lon="5.3528">
        <ele>291</ele>
        <time>2014-03-19T15:29:51Z</time>
      </trkpt>
      <trkpt lat="46.35049" lon="5.3528">
        <ele>291</ele>
        <time>2014-03-19T15:29:52Z</time>
      </trkpt>
      <trkpt lat="46.35068" lon="5.35282">
        <ele>291</ele>
        <time>2014-03-19T15:29:58Z</time>
      </trkpt>
      <trkpt lat="46.3507" lon="5.35283">
        <ele>291</ele>
        <time>2014-03-19T15:29:59Z</time>
      </trkpt>
      <trkpt lat="46.35086" lon="5.3528">
        <ele>291</ele>
        <time>2014-03-19T15:30:05Z</time>
      </trkpt>
      <trkpt lat="46.35092" lon="5.35281">
        <ele>291</ele>
        <time>2014-03-19T15:30:08Z</time>
      </trkpt>
      <trkpt lat="46.35093" lon="5.35281">
        <ele>291</ele>
        <time>2014-03-19T15:30:09Z</time>
      </trkpt>
      <trkpt lat="46.35095" lon="5.35281">
        <ele>291</ele>
        <time>2014-03-19T15:30:10Z</time>
      </trkpt>
      <trkpt lat="46.35103" lon="5.35276">
        <ele>291</ele>
        <time>2014-03-19T15:30:13Z</time>
      </trkpt>
      <trkpt lat="46.35115" lon="5.35265">
        <ele>290.8</ele>
        <time>2014-03-19T15:30:17Z</time>
      </trkpt>
      <trkpt lat="46.35132" lon="5.35258">
        <ele>290.8</ele>
        <time>2014-03-19T15:30:21Z</time>
      </trkpt>
      <trkpt lat="46.35149" lon="5.35246">
        <ele>290.6</ele>
        <time>2014-03-19T15:30:25Z</time>
      </trkpt>
      <trkpt lat="46.35158" lon="5.35234">
        <ele>290.4</ele>
        <time>2014-03-19T15:30:28Z</time>
      </trkpt>
      <trkpt lat="46.35159" lon="5.35228">
        <ele>290.4</ele>
        <time>2014-03-19T15:30:29Z</time>
      </trkpt>
      <trkpt lat="46.35158" lon="5.35213">
        <ele>290.4</ele>
        <time>2014-03-19T15:30:32Z</time>
      </trkpt>
      <trkpt lat="46.35151" lon="5.35197">
        <ele>290.2</ele>
        <time>2014-03-19T15:30:35Z</time>
      </trkpt>
      <trkpt lat="46.35151" lon="5.35192">
        <ele>290</ele>
        <time>2014-03-19T15:30:36Z</time>
      </trkpt>
      <trkpt lat="46.35149" lon="5.35185">
        <ele>290</ele>
        <time>2014-03-19T15:30:39Z</time>
      </trkpt>
      <trkpt lat="46.35149" lon="5.35188">
        <ele>289.8</ele>
        <time>2014-03-19T15:30:42Z</time>
      </trkpt>
      <trkpt lat="46.3515" lon="5.35188">
        <ele>289.8</ele>
        <time>2014-03-19T15:30:43Z</time>
      </trkpt>
      <trkpt lat="46.35159" lon="5.35188">
        <ele>289.6</ele>
        <time>2014-03-19T15:30:47Z</time>
      </trkpt>
      <trkpt lat="46.35163" lon="5.35189">
        <ele>289.6</ele>
        <time>2014-03-19T15:30:49Z</time>
      </trkpt>
      <trkpt lat="46.35167" lon="5.3519">
        <ele>289.4</ele>
        <time>2014-03-19T15:30:51Z</time>
      </trkpt>
      <trkpt lat="46.35182" lon="5.35188">
        <ele>289.2</ele>
        <time>2014-03-19T15:30:58Z</time>
      </trkpt>
      <trkpt lat="46.3519" lon="5.3519">
        <ele>289.2</ele>
        <time>2014-03-19T15:31:02Z</time>
      </trkpt>
      <trkpt lat="46.352" lon="5.35189">
        <ele>289</ele>
        <time>2014-03-19T15:31:06Z</time>
      </trkpt>
      <trkpt lat="46.3521" lon="5.35189">
        <ele>289</ele>
        <time>2014-03-19T15:31:10Z</time>
      </trkpt>
      <trkpt lat="46.3522" lon="5.3519">
        <ele>289</ele>
        <time>2014-03-19T15:31:14Z</time>
      </trkpt>
      <trkpt lat="46.35226" lon="5.3519">
        <ele>289</ele>
        <time>2014-03-19T15:31:17Z</time>
      </trkpt>
      <trkpt lat="46.35233" lon="5.35191">
        <ele>289</ele>
        <time>2014-03-19T15:31:20Z</time>
      </trkpt>
      <trkpt lat="46.35245" lon="5.35194">
        <ele>289.4</ele>
        <time>2014-03-19T15:31:25Z</time>
      </trkpt>
      <trkpt lat="46.35258" lon="5.35198">
        <ele>289.8</ele>
        <time>2014-03-19T15:31:30Z</time>
      </trkpt>
      <trkpt lat="46.35268" lon="5.35203">
        <ele>290.2</ele>
        <time>2014-03-19T15:31:34Z</time>
      </trkpt>
      <trkpt lat="46.35275" lon="5.35206">
        <ele>290.4</ele>
        <time>2014-03-19T15:31:36Z</time>
      </trkpt>
      <trkpt lat="46.3528" lon="5.35209">
        <ele>290.6</ele>
        <time>2014-03-19T15:31:38Z</time>
      </trkpt>
      <trkpt lat="46.35285" lon="5.35212">
        <ele>291</ele>
        <time>2014-03-19T15:31:40Z</time>
      </trkpt>
      <trkpt lat="46.3529" lon="5.35214">
        <ele>291.2</ele>
        <time>2014-03-19T15:31:42Z</time>
      </trkpt>
      <trkpt lat="46.35302" lon="5.35216">
        <ele>292</ele>
        <time>2014-03-19T15:31:47Z</time>
      </trkpt>
      <trkpt lat="46.35307" lon="5.35215">
        <ele>292.2</ele>
        <time>2014-03-19T15:31:49Z</time>
      </trkpt>
      <trkpt lat="46.35316" lon="5.35217">
        <ele>292.4</ele>
        <time>2014-03-19T15:31:52Z</time>
      </trkpt>
      <trkpt lat="46.3533" lon="5.35226">
        <ele>292.8</ele>
        <time>2014-03-19T15:31:56Z</time>
      </trkpt>
      <trkpt lat="46.35346" lon="5.35232">
        <ele>293.2</ele>
        <time>2014-03-19T15:32:01Z</time>
      </trkpt>
      <trkpt lat="46.35362" lon="5.35228">
        <ele>293.6</ele>
        <time>2014-03-19T15:32:06Z</time>
      </trkpt>
      <trkpt lat="46.3538" lon="5.35217">
        <ele>294.2</ele>
        <time>2014-03-19T15:32:12Z</time>
      </trkpt>
      <trkpt lat="46.35397" lon="5.35208">
        <ele>294.8</ele>
        <time>2014-03-19T15:32:18Z</time>
      </trkpt>
      <trkpt lat="46.35409" lon="5.352">
        <ele>295.2</ele>
        <time>2014-03-19T15:32:22Z</time>
      </trkpt>
      <trkpt lat="46.35422" lon="5.3519">
        <ele>295.6</ele>
        <time>2014-03-19T15:32:26Z</time>
      </trkpt>
      <trkpt lat="46.35438" lon="5.35181">
        <ele>296.2</ele>
        <time>2014-03-19T15:32:31Z</time>
      </trkpt>
      <trkpt lat="46.35453" lon="5.35175">
        <ele>296.8</ele>
        <time>2014-03-19T15:32:36Z</time>
      </trkpt>
      <trkpt lat="46.35468" lon="5.35169">
        <ele>297.2</ele>
        <time>2014-03-19T15:32:41Z</time>
      </trkpt>
      <trkpt lat="46.35483" lon="5.35165">
        <ele>297.6</ele>
        <time>2014-03-19T15:32:46Z</time>
      </trkpt>
      <trkpt lat="46.35503" lon="5.3516">
        <ele>298.2</ele>
        <time>2014-03-19T15:32:52Z</time>
      </trkpt>
      <trkpt lat="46.35519" lon="5.35152">
        <ele>298.8</ele>
        <time>2014-03-19T15:32:57Z</time>
      </trkpt>
      <trkpt lat="46.35537" lon="5.35142">
        <ele>299</ele>
        <time>2014-03-19T15:33:03Z</time>
      </trkpt>
      <trkpt lat="46.3554" lon="5.3514">
        <ele>299</ele>
        <time>2014-03-19T15:33:04Z</time>
      </trkpt>
      <trkpt lat="46.35553" lon="5.35133">
        <ele>299.2</ele>
        <time>2014-03-19T15:33:08Z</time>
      </trkpt>
      <trkpt lat="46.35571" lon="5.35124">
        <ele>299.4</ele>
        <time>2014-03-19T15:33:14Z</time>
      </trkpt>
      <trkpt lat="46.35583" lon="5.35119">
        <ele>299.8</ele>
        <time>2014-03-19T15:33:18Z</time>
      </trkpt>
      <trkpt lat="46.35598" lon="5.35108">
        <ele>300</ele>
        <time>2014-03-19T15:33:23Z</time>
      </trkpt>
      <trkpt lat="46.35612" lon="5.35097">
        <ele>300.4</ele>
        <time>2014-03-19T15:33:28Z</time>
      </trkpt>
      <trkpt lat="46.35627" lon="5.35086">
        <ele>300.8</ele>
        <time>2014-03-19T15:33:33Z</time>
      </trkpt>
      <trkpt lat="46.35643" lon="5.35076">
        <ele>301</ele>
        <time>2014-03-19T15:33:38Z</time>
      </trkpt>
      <trkpt lat="46.35659" lon="5.35069">
        <ele>301.2</ele>
        <time>2014-03-19T15:33:43Z</time>
      </trkpt>
      <trkpt lat="46.35671" lon="5.35065">
        <ele>301.2</ele>
        <time>2014-03-19T15:33:47Z</time>
      </trkpt>
      <trkpt lat="46.35684" lon="5.35063">
        <ele>301.2</ele>
        <time>2014-03-19T15:33:51Z</time>
      </trkpt>
      <trkpt lat="46.357" lon="5.35062">
        <ele>301.2</ele>
        <time>2014-03-19T15:33:55Z</time>
      </trkpt>
      <trkpt lat="46.35719" lon="5.35062">
        <ele>301.2</ele>
        <time>2014-03-19T15:34:00Z</time>
      </trkpt>
      <trkpt lat="46.35722" lon="5.35061">
        <ele>301.2</ele>
        <time>2014-03-19T15:34:01Z</time>
      </trkpt>
      <trkpt lat="46.35741" lon="5.35059">
        <ele>301.2</ele>
        <time>2014-03-19T15:34:06Z</time>
      </trkpt>
      <trkpt lat="46.3576" lon="5.35061">
        <ele>301.2</ele>
        <time>2014-03-19T15:34:11Z</time>
      </trkpt>
      <trkpt lat="46.35781" lon="5.35062">
        <ele>301</ele>
        <time>2014-03-19T15:34:16Z</time>
      </trkpt>
      <trkpt lat="46.35801" lon="5.35064">
        <ele>300.8</ele>
        <time>2014-03-19T15:34:21Z</time>
      </trkpt>
      <trkpt lat="46.35808" lon="5.35052">
        <ele>300.8</ele>
        <time>2014-03-19T15:34:24Z</time>
      </trkpt>
      <trkpt lat="46.35808" lon="5.35039">
        <ele>300.8</ele>
        <time>2014-03-19T15:34:27Z</time>
      </trkpt>
      <trkpt lat="46.35809" lon="5.35026">
        <ele>300.6</ele>
        <time>2014-03-19T15:34:30Z</time>
      </trkpt>
      <trkpt lat="46.35811" lon="5.3502">
        <ele>300.6</ele>
        <time>2014-03-19T15:34:32Z</time>
      </trkpt>
      <trkpt lat="46.35821" lon="5.35007">
        <ele>300.4</ele>
        <time>2014-03-19T15:34:37Z</time>
      </trkpt>
      <trkpt lat="46.35833" lon="5.34992">
        <ele>300.4</ele>
        <time>2014-03-19T15:34:42Z</time>
      </trkpt>
      <trkpt lat="46.35844" lon="5.34976">
        <ele>300.4</ele>
        <time>2014-03-19T15:34:47Z</time>
      </trkpt>
      <trkpt lat="46.35855" lon="5.34956">
        <ele>300.2</ele>
        <time>2014-03-19T15:34:53Z</time>
      </trkpt>
      <trkpt lat="46.35857" lon="5.34953">
        <ele>300.2</ele>
        <time>2014-03-19T15:34:54Z</time>
      </trkpt>
      <trkpt lat="46.3587" lon="5.34935">
        <ele>300.4</ele>
        <time>2014-03-19T15:35:00Z</time>
      </trkpt>
      <trkpt lat="46.35883" lon="5.34923">
        <ele>300.6</ele>
        <time>2014-03-19T15:35:05Z</time>
      </trkpt>
      <trkpt lat="46.35894" lon="5.34919">
        <ele>300.8</ele>
        <time>2014-03-19T15:35:10Z</time>
      </trkpt>
      <trkpt lat="46.35904" lon="5.34902">
        <ele>301.2</ele>
        <time>2014-03-19T15:35:15Z</time>
      </trkpt>
      <trkpt lat="46.35915" lon="5.34879">
        <ele>301.2</ele>
        <time>2014-03-19T15:35:20Z</time>
      </trkpt>
      <trkpt lat="46.35918" lon="5.34875">
        <ele>301.4</ele>
        <time>2014-03-19T15:35:21Z</time>
      </trkpt>
      <trkpt lat="46.35927" lon="5.34849">
        <ele>301.6</ele>
        <time>2014-03-19T15:35:26Z</time>
      </trkpt>
      <trkpt lat="46.35929" lon="5.34844">
        <ele>301.6</ele>
        <time>2014-03-19T15:35:27Z</time>
      </trkpt>
      <trkpt lat="46.35934" lon="5.34819">
        <ele>301.8</ele>
        <time>2014-03-19T15:35:32Z</time>
      </trkpt>
      <trkpt lat="46.35934" lon="5.34814">
        <ele>301.8</ele>
        <time>2014-03-19T15:35:33Z</time>
      </trkpt>
      <trkpt lat="46.35937" lon="5.34791">
        <ele>302</ele>
        <time>2014-03-19T15:35:38Z</time>
      </trkpt>
      <trkpt lat="46.35941" lon="5.34773">
        <ele>302</ele>
        <time>2014-03-19T15:35:42Z</time>
      </trkpt>
      <trkpt lat="46.35954" lon="5.34749">
        <ele>302</ele>
        <time>2014-03-19T15:35:48Z</time>
      </trkpt>
      <trkpt lat="46.35967" lon="5.34733">
        <ele>302</ele>
        <time>2014-03-19T15:35:53Z</time>
      </trkpt>
      <trkpt lat="46.35983" lon="5.34719">
        <ele>302</ele>
        <time>2014-03-19T15:35:58Z</time>
      </trkpt>
      <trkpt lat="46.35986" lon="5.34716">
        <ele>302</ele>
        <time>2014-03-19T15:35:59Z</time>
      </trkpt>
      <trkpt lat="46.36002" lon="5.34703">
        <ele>301.8</ele>
        <time>2014-03-19T15:36:04Z</time>
      </trkpt>
      <trkpt lat="46.36018" lon="5.34688">
        <ele>301.6</ele>
        <time>2014-03-19T15:36:09Z</time>
      </trkpt>
      <trkpt lat="46.36021" lon="5.34684">
        <ele>301.6</ele>
        <time>2014-03-19T15:36:10Z</time>
      </trkpt>
      <trkpt lat="46.36034" lon="5.34666">
        <ele>301.4</ele>
        <time>2014-03-19T15:36:15Z</time>
      </trkpt>
      <trkpt lat="46.36036" lon="5.34662">
        <ele>301.4</ele>
        <time>2014-03-19T15:36:16Z</time>
      </trkpt>
      <trkpt lat="46.3605" lon="5.34642">
        <ele>301.2</ele>
        <time>2014-03-19T15:36:21Z</time>
      </trkpt>
      <trkpt lat="46.36065" lon="5.34624">
        <ele>300.8</ele>
        <time>2014-03-19T15:36:26Z</time>
      </trkpt>
      <trkpt lat="46.36068" lon="5.34621">
        <ele>300.8</ele>
        <time>2014-03-19T15:36:27Z</time>
      </trkpt>
      <trkpt lat="46.36083" lon="5.34602">
        <ele>300.4</ele>
        <time>2014-03-19T15:36:32Z</time>
      </trkpt>
      <trkpt lat="46.36086" lon="5.34598">
        <ele>300.2</ele>
        <time>2014-03-19T15:36:33Z</time>
      </trkpt>
      <trkpt lat="46.36099" lon="5.34575">
        <ele>299.8</ele>
        <time>2014-03-19T15:36:38Z</time>
      </trkpt>
      <trkpt lat="46.36108" lon="5.34555">
        <ele>299.2</ele>
        <time>2014-03-19T15:36:42Z</time>
      </trkpt>
      <trkpt lat="46.36112" lon="5.34545">
        <ele>299</ele>
        <time>2014-03-19T15:36:44Z</time>
      </trkpt>
      <trkpt lat="46.36122" lon="5.34534">
        <ele>298.6</ele>
        <time>2014-03-19T15:36:48Z</time>
      </trkpt>
      <trkpt lat="46.36137" lon="5.3453">
        <ele>297.8</ele>
        <time>2014-03-19T15:36:53Z</time>
      </trkpt>
      <trkpt lat="46.36155" lon="5.34531">
        <ele>297</ele>
        <time>2014-03-19T15:36:59Z</time>
      </trkpt>
      <trkpt lat="46.36172" lon="5.34534">
        <ele>296.4</ele>
        <time>2014-03-19T15:37:04Z</time>
      </trkpt>
      <trkpt lat="46.36193" lon="5.34537">
        <ele>295.4</ele>
        <time>2014-03-19T15:37:10Z</time>
      </trkpt>
      <trkpt lat="46.36212" lon="5.34544">
        <ele>294.8</ele>
        <time>2014-03-19T15:37:15Z</time>
      </trkpt>
      <trkpt lat="46.36215" lon="5.34546">
        <ele>294.6</ele>
        <time>2014-03-19T15:37:16Z</time>
      </trkpt>
      <trkpt lat="46.36234" lon="5.34557">
        <ele>293.8</ele>
        <time>2014-03-19T15:37:21Z</time>
      </trkpt>
      <trkpt lat="46.36238" lon="5.34559">
        <ele>293.6</ele>
        <time>2014-03-19T15:37:22Z</time>
      </trkpt>
      <trkpt lat="46.36259" lon="5.34572">
        <ele>292.8</ele>
        <time>2014-03-19T15:37:27Z</time>
      </trkpt>
      <trkpt lat="46.36277" lon="5.34583">
        <ele>292.2</ele>
        <time>2014-03-19T15:37:31Z</time>
      </trkpt>
      <trkpt lat="46.36281" lon="5.34585">
        <ele>292</ele>
        <time>2014-03-19T15:37:32Z</time>
      </trkpt>
      <trkpt lat="46.36285" lon="5.34588">
        <ele>291.8</ele>
        <time>2014-03-19T15:37:33Z</time>
      </trkpt>
      <trkpt lat="46.363" lon="5.34597">
        <ele>291.2</ele>
        <time>2014-03-19T15:37:37Z</time>
      </trkpt>
      <trkpt lat="46.36304" lon="5.34598">
        <ele>291</ele>
        <time>2014-03-19T15:37:38Z</time>
      </trkpt>
      <trkpt lat="46.36317" lon="5.346">
        <ele>290.4</ele>
        <time>2014-03-19T15:37:42Z</time>
      </trkpt>
      <trkpt lat="46.3632" lon="5.346">
        <ele>290.2</ele>
        <time>2014-03-19T15:37:43Z</time>
      </trkpt>
      <trkpt lat="46.36334" lon="5.34596">
        <ele>289.2</ele>
        <time>2014-03-19T15:37:47Z</time>
      </trkpt>
      <trkpt lat="46.36346" lon="5.34589">
        <ele>288.4</ele>
        <time>2014-03-19T15:37:51Z</time>
      </trkpt>
      <trkpt lat="46.36365" lon="5.3458">
        <ele>287.2</ele>
        <time>2014-03-19T15:37:57Z</time>
      </trkpt>
      <trkpt lat="46.36379" lon="5.34579">
        <ele>286.2</ele>
        <time>2014-03-19T15:38:02Z</time>
      </trkpt>
      <trkpt lat="46.36387" lon="5.34594">
        <ele>285.4</ele>
        <time>2014-03-19T15:38:06Z</time>
      </trkpt>
      <trkpt lat="46.3639" lon="5.34603">
        <ele>284.8</ele>
        <time>2014-03-19T15:38:08Z</time>
      </trkpt>
      <trkpt lat="46.36394" lon="5.34621">
        <ele>284</ele>
        <time>2014-03-19T15:38:12Z</time>
      </trkpt>
      <trkpt lat="46.36396" lon="5.3463">
        <ele>283.2</ele>
        <time>2014-03-19T15:38:16Z</time>
      </trkpt>
      <trkpt lat="46.36396" lon="5.34631">
        <ele>282</ele>
        <time>2014-03-19T15:38:21Z</time>
      </trkpt>
      <trkpt lat="46.36393" lon="5.34637">
        <ele>281</ele>
        <time>2014-03-19T15:38:25Z</time>
      </trkpt>
      <trkpt lat="46.36391" lon="5.34641">
        <ele>280.6</ele>
        <time>2014-03-19T15:38:27Z</time>
      </trkpt>
      <trkpt lat="46.3639" lon="5.34647">
        <ele>280</ele>
        <time>2014-03-19T15:38:30Z</time>
      </trkpt>
      <trkpt lat="46.3639" lon="5.3465">
        <ele>279.8</ele>
        <time>2014-03-19T15:38:31Z</time>
      </trkpt>
      <trkpt lat="46.36389" lon="5.34658">
        <ele>279</ele>
        <time>2014-03-19T15:38:35Z</time>
      </trkpt>
      <trkpt lat="46.36388" lon="5.3466">
        <ele>278.8</ele>
        <time>2014-03-19T15:38:36Z</time>
      </trkpt>
      <trkpt lat="46.36387" lon="5.34666">
        <ele>278</ele>
        <time>2014-03-19T15:38:39Z</time>
      </trkpt>
      <trkpt lat="46.36387" lon="5.34676">
        <ele>277</ele>
        <time>2014-03-19T15:38:44Z</time>
      </trkpt>
      <trkpt lat="46.36388" lon="5.3468">
        <ele>276.8</ele>
        <time>2014-03-19T15:38:45Z</time>
      </trkpt>
      <trkpt lat="46.36389" lon="5.34696">
        <ele>275.8</ele>
        <time>2014-03-19T15:38:50Z</time>
      </trkpt>
      <trkpt lat="46.3639" lon="5.34715">
        <ele>274.8</ele>
        <time>2014-03-19T15:38:55Z</time>
      </trkpt>
      <trkpt lat="46.36387" lon="5.34731">
        <ele>274</ele>
        <time>2014-03-19T15:39:00Z</time>
      </trkpt>
      <trkpt lat="46.36374" lon="5.34736">
        <ele>273</ele>
        <time>2014-03-19T15:39:05Z</time>
      </trkpt>
      <trkpt lat="46.36362" lon="5.34738">
        <ele>272.2</ele>
        <time>2014-03-19T15:39:10Z</time>
      </trkpt>
      <trkpt lat="46.36343" lon="5.34735">
        <ele>271</ele>
        <time>2014-03-19T15:39:17Z</time>
      </trkpt>
      <trkpt lat="46.3633" lon="5.34732">
        <ele>270.4</ele>
        <time>2014-03-19T15:39:22Z</time>
      </trkpt>
      <trkpt lat="46.36317" lon="5.3473">
        <ele>269.8</ele>
        <time>2014-03-19T15:39:26Z</time>
      </trkpt>
      <trkpt lat="46.36297" lon="5.34727">
        <ele>269</ele>
        <time>2014-03-19T15:39:32Z</time>
      </trkpt>
      <trkpt lat="46.36283" lon="5.34724">
        <ele>268.4</ele>
        <time>2014-03-19T15:39:37Z</time>
      </trkpt>
      <trkpt lat="46.36266" lon="5.34727">
        <ele>267.8</ele>
        <time>2014-03-19T15:39:43Z</time>
      </trkpt>
      <trkpt lat="46.36248" lon="5.34733">
        <ele>267.4</ele>
        <time>2014-03-19T15:39:49Z</time>
      </trkpt>
      <trkpt lat="46.36245" lon="5.34734">
        <ele>267.2</ele>
        <time>2014-03-19T15:39:50Z</time>
      </trkpt>
      <trkpt lat="46.36227" lon="5.3474">
        <ele>266.8</ele>
        <time>2014-03-19T15:39:56Z</time>
      </trkpt>
      <trkpt lat="46.36224" lon="5.34742">
        <ele>266.8</ele>
        <time>2014-03-19T15:39:57Z</time>
      </trkpt>
      <trkpt lat="46.36211" lon="5.3475">
        <ele>266.6</ele>
        <time>2014-03-19T15:40:02Z</time>
      </trkpt>
      <trkpt lat="46.36199" lon="5.34752">
        <ele>266.6</ele>
        <time>2014-03-19T15:40:07Z</time>
      </trkpt>
      <trkpt lat="46.36185" lon="5.34746">
        <ele>266.4</ele>
        <time>2014-03-19T15:40:12Z</time>
      </trkpt>
      <trkpt lat="46.36174" lon="5.34733">
        <ele>266.6</ele>
        <time>2014-03-19T15:40:17Z</time>
      </trkpt>
      <trkpt lat="46.36169" lon="5.34732">
        <ele>266.6</ele>
        <time>2014-03-19T15:40:19Z</time>
      </trkpt>
      <trkpt lat="46.36164" lon="5.34733">
        <ele>266.6</ele>
        <time>2014-03-19T15:40:21Z</time>
      </trkpt>
      <trkpt lat="46.36153" lon="5.34738">
        <ele>266.8</ele>
        <time>2014-03-19T15:40:26Z</time>
      </trkpt>
      <trkpt lat="46.3614" lon="5.3475">
        <ele>267</ele>
        <time>2014-03-19T15:40:31Z</time>
      </trkpt>
      <trkpt lat="46.3613" lon="5.34762">
        <ele>267.4</ele>
        <time>2014-03-19T15:40:36Z</time>
      </trkpt>
      <trkpt lat="46.36121" lon="5.34776">
        <ele>267.8</ele>
        <time>2014-03-19T15:40:41Z</time>
      </trkpt>
      <trkpt lat="46.36112" lon="5.3479">
        <ele>268.2</ele>
        <time>2014-03-19T15:40:46Z</time>
      </trkpt>
      <trkpt lat="46.36101" lon="5.34811">
        <ele>269</ele>
        <time>2014-03-19T15:40:53Z</time>
      </trkpt>
      <trkpt lat="46.36094" lon="5.34826">
        <ele>269.6</ele>
        <time>2014-03-19T15:40:58Z</time>
      </trkpt>
      <trkpt lat="46.36088" lon="5.34836">
        <ele>270.4</ele>
        <time>2014-03-19T15:41:02Z</time>
      </trkpt>
      <trkpt lat="46.36082" lon="5.3485">
        <ele>271</ele>
        <time>2014-03-19T15:41:06Z</time>
      </trkpt>
      <trkpt lat="46.36074" lon="5.34863">
        <ele>272</ele>
        <time>2014-03-19T15:41:11Z</time>
      </trkpt>
      <trkpt lat="46.3607" lon="5.3488">
        <ele>273</ele>
        <time>2014-03-19T15:41:16Z</time>
      </trkpt>
      <trkpt lat="46.36066" lon="5.34897">
        <ele>274</ele>
        <time>2014-03-19T15:41:21Z</time>
      </trkpt>
      <trkpt lat="46.36061" lon="5.34912">
        <ele>275.2</ele>
        <time>2014-03-19T15:41:26Z</time>
      </trkpt>
      <trkpt lat="46.36059" lon="5.34917">
        <ele>275.6</ele>
        <time>2014-03-19T15:41:28Z</time>
      </trkpt>
      <trkpt lat="46.36057" lon="5.34926">
        <ele>276.2</ele>
        <time>2014-03-19T15:41:31Z</time>
      </trkpt>
      <trkpt lat="46.36054" lon="5.34936">
        <ele>277</ele>
        <time>2014-03-19T15:41:34Z</time>
      </trkpt>
      <trkpt lat="46.36053" lon="5.34943">
        <ele>277.4</ele>
        <time>2014-03-19T15:41:36Z</time>
      </trkpt>
      <trkpt lat="46.36059" lon="5.34965">
        <ele>279</ele>
        <time>2014-03-19T15:41:42Z</time>
      </trkpt>
      <trkpt lat="46.36063" lon="5.34979">
        <ele>280</ele>
        <time>2014-03-19T15:41:46Z</time>
      </trkpt>
      <trkpt lat="46.36065" lon="5.34995">
        <ele>281.6</ele>
        <time>2014-03-19T15:41:51Z</time>
      </trkpt>
      <trkpt lat="46.36071" lon="5.35008">
        <ele>283.2</ele>
        <time>2014-03-19T15:41:55Z</time>
      </trkpt>
      <trkpt lat="46.36074" lon="5.35017">
        <ele>284.4</ele>
        <time>2014-03-19T15:41:58Z</time>
      </trkpt>
      <trkpt lat="46.36076" lon="5.35023">
        <ele>285.2</ele>
        <time>2014-03-19T15:42:00Z</time>
      </trkpt>
      <trkpt lat="46.36081" lon="5.35041">
        <ele>287.2</ele>
        <time>2014-03-19T15:42:05Z</time>
      </trkpt>
      <trkpt lat="46.36082" lon="5.35044">
        <ele>287.6</ele>
        <time>2014-03-19T15:42:06Z</time>
      </trkpt>
      <trkpt lat="46.36086" lon="5.35052">
        <ele>288.8</ele>
        <time>2014-03-19T15:42:09Z</time>
      </trkpt>
      <trkpt lat="46.36091" lon="5.35072">
        <ele>290.6</ele>
        <time>2014-03-19T15:42:14Z</time>
      </trkpt>
      <trkpt lat="46.36097" lon="5.3509">
        <ele>292.4</ele>
        <time>2014-03-19T15:42:19Z</time>
      </trkpt>
      <trkpt lat="46.36101" lon="5.35104">
        <ele>293.8</ele>
        <time>2014-03-19T15:42:23Z</time>
      </trkpt>
      <trkpt lat="46.361" lon="5.35107">
        <ele>294.2</ele>
        <time>2014-03-19T15:42:24Z</time>
      </trkpt>
      <trkpt lat="46.36103" lon="5.35122">
        <ele>295.6</ele>
        <time>2014-03-19T15:42:28Z</time>
      </trkpt>
      <trkpt lat="46.36103" lon="5.35127">
        <ele>296</ele>
        <time>2014-03-19T15:42:29Z</time>
      </trkpt>
      <trkpt lat="46.36106" lon="5.35134">
        <ele>296.8</ele>
        <time>2014-03-19T15:42:31Z</time>
      </trkpt>
      <trkpt lat="46.36112" lon="5.35148">
        <ele>298.6</ele>
        <time>2014-03-19T15:42:36Z</time>
      </trkpt>
      <trkpt lat="46.36113" lon="5.35151">
        <ele>299</ele>
        <time>2014-03-19T15:42:37Z</time>
      </trkpt>
      <trkpt lat="46.36118" lon="5.3516">
        <ele>300</ele>
        <time>2014-03-19T15:42:40Z</time>
      </trkpt>
      <trkpt lat="46.36129" lon="5.35179">
        <ele>302.6</ele>
        <time>2014-03-19T15:42:47Z</time>
      </trkpt>
      <trkpt lat="46.36129" lon="5.35183">
        <ele>303</ele>
        <time>2014-03-19T15:42:48Z</time>
      </trkpt>
      <trkpt lat="46.36131" lon="5.35189">
        <ele>303.6</ele>
        <time>2014-03-19T15:42:50Z</time>
      </trkpt>
      <trkpt lat="46.36134" lon="5.35202">
        <ele>305</ele>
        <time>2014-03-19T15:42:54Z</time>
      </trkpt>
      <trkpt lat="46.36135" lon="5.35206">
        <ele>305.2</ele>
        <time>2014-03-19T15:42:55Z</time>
      </trkpt>
      <trkpt lat="46.36139" lon="5.35219">
        <ele>306.6</ele>
        <time>2014-03-19T15:42:59Z</time>
      </trkpt>
      <trkpt lat="46.36143" lon="5.35235">
        <ele>308.2</ele>
        <time>2014-03-19T15:43:04Z</time>
      </trkpt>
      <trkpt lat="46.36147" lon="5.35248">
        <ele>309.6</ele>
        <time>2014-03-19T15:43:08Z</time>
      </trkpt>
      <trkpt lat="46.36149" lon="5.35252">
        <ele>310</ele>
        <time>2014-03-19T15:43:09Z</time>
      </trkpt>
      <trkpt lat="46.36155" lon="5.35272">
        <ele>312</ele>
        <time>2014-03-19T15:43:15Z</time>
      </trkpt>
      <trkpt lat="46.36157" lon="5.35278">
        <ele>312.6</ele>
        <time>2014-03-19T15:43:17Z</time>
      </trkpt>
      <trkpt lat="46.36158" lon="5.35284">
        <ele>313.2</ele>
        <time>2014-03-19T15:43:19Z</time>
      </trkpt>
      <trkpt lat="46.36162" lon="5.35296">
        <ele>314.4</ele>
        <time>2014-03-19T15:43:23Z</time>
      </trkpt>
      <trkpt lat="46.36167" lon="5.35309">
        <ele>316</ele>
        <time>2014-03-19T15:43:28Z</time>
      </trkpt>
      <trkpt lat="46.36169" lon="5.35321">
        <ele>317</ele>
        <time>2014-03-19T15:43:32Z</time>
      </trkpt>
      <trkpt lat="46.36174" lon="5.35335">
        <ele>318.4</ele>
        <time>2014-03-19T15:43:37Z</time>
      </trkpt>
      <trkpt lat="46.36182" lon="5.35355">
        <ele>320</ele>
        <time>2014-03-19T15:43:43Z</time>
      </trkpt>
      <trkpt lat="46.36186" lon="5.35368">
        <ele>321</ele>
        <time>2014-03-19T15:43:47Z</time>
      </trkpt>
      <trkpt lat="46.36191" lon="5.35383">
        <ele>322.4</ele>
        <time>2014-03-19T15:43:52Z</time>
      </trkpt>
      <trkpt lat="46.36194" lon="5.35399">
        <ele>323.6</ele>
        <time>2014-03-19T15:43:56Z</time>
      </trkpt>
      <trkpt lat="46.36196" lon="5.35414">
        <ele>324.6</ele>
        <time>2014-03-19T15:44:00Z</time>
      </trkpt>
      <trkpt lat="46.36199" lon="5.35432">
        <ele>325.8</ele>
        <time>2014-03-19T15:44:05Z</time>
      </trkpt>
      <trkpt lat="46.362" lon="5.35435">
        <ele>326</ele>
        <time>2014-03-19T15:44:06Z</time>
      </trkpt>
      <trkpt lat="46.36206" lon="5.35444">
        <ele>327</ele>
        <time>2014-03-19T15:44:09Z</time>
      </trkpt>
      <trkpt lat="46.36206" lon="5.35448">
        <ele>327.2</ele>
        <time>2014-03-19T15:44:10Z</time>
      </trkpt>
      <trkpt lat="46.36208" lon="5.35459">
        <ele>328</ele>
        <time>2014-03-19T15:44:13Z</time>
      </trkpt>
      <trkpt lat="46.3621" lon="5.3547">
        <ele>328.8</ele>
        <time>2014-03-19T15:44:16Z</time>
      </trkpt>
      <trkpt lat="46.36211" lon="5.35473">
        <ele>329</ele>
        <time>2014-03-19T15:44:17Z</time>
      </trkpt>
      <trkpt lat="46.36213" lon="5.35476">
        <ele>329.2</ele>
        <time>2014-03-19T15:44:18Z</time>
      </trkpt>
      <trkpt lat="46.36217" lon="5.35485">
        <ele>330</ele>
        <time>2014-03-19T15:44:21Z</time>
      </trkpt>
      <trkpt lat="46.36222" lon="5.35498">
        <ele>331</ele>
        <time>2014-03-19T15:44:25Z</time>
      </trkpt>
      <trkpt lat="46.36227" lon="5.35514">
        <ele>332.2</ele>
        <time>2014-03-19T15:44:30Z</time>
      </trkpt>
      <trkpt lat="46.3623" lon="5.35516">
        <ele>332.4</ele>
        <time>2014-03-19T15:44:31Z</time>
      </trkpt>
      <trkpt lat="46.36233" lon="5.35523">
        <ele>332.8</ele>
        <time>2014-03-19T15:44:33Z</time>
      </trkpt>
      <trkpt lat="46.36236" lon="5.3553">
        <ele>333.2</ele>
        <time>2014-03-19T15:44:35Z</time>
      </trkpt>
      <trkpt lat="46.36238" lon="5.35533">
        <ele>333.6</ele>
        <time>2014-03-19T15:44:36Z</time>
      </trkpt>
      <trkpt lat="46.3624" lon="5.35536">
        <ele>333.8</ele>
        <time>2014-03-19T15:44:37Z</time>
      </trkpt>
      <trkpt lat="46.36243" lon="5.35545">
        <ele>334.4</ele>
        <time>2014-03-19T15:44:40Z</time>
      </trkpt>
      <trkpt lat="46.36245" lon="5.35548">
        <ele>334.6</ele>
        <time>2014-03-19T15:44:41Z</time>
      </trkpt>
      <trkpt lat="46.36252" lon="5.3555">
        <ele>335.2</ele>
        <time>2014-03-19T15:44:45Z</time>
      </trkpt>
      <trkpt lat="46.36261" lon="5.35543">
        <ele>335.8</ele>
        <time>2014-03-19T15:44:49Z</time>
      </trkpt>
      <trkpt lat="46.36273" lon="5.35531">
        <ele>336.4</ele>
        <time>2014-03-19T15:44:54Z</time>
      </trkpt>
      <trkpt lat="46.36283" lon="5.35526">
        <ele>336.8</ele>
        <time>2014-03-19T15:44:58Z</time>
      </trkpt>
      <trkpt lat="46.36293" lon="5.35519">
        <ele>337.4</ele>
        <time>2014-03-19T15:45:02Z</time>
      </trkpt>
      <trkpt lat="46.36299" lon="5.35515">
        <ele>338</ele>
        <time>2014-03-19T15:45:06Z</time>
      </trkpt>
      <trkpt lat="46.36308" lon="5.35517">
        <ele>338.6</ele>
        <time>2014-03-19T15:45:10Z</time>
      </trkpt>
      <trkpt lat="46.36316" lon="5.35529">
        <ele>339.4</ele>
        <time>2014-03-19T15:45:15Z</time>
      </trkpt>
      <trkpt lat="46.36323" lon="5.35541">
        <ele>340.2</ele>
        <time>2014-03-19T15:45:20Z</time>
      </trkpt>
      <trkpt lat="46.36329" lon="5.35555">
        <ele>340.8</ele>
        <time>2014-03-19T15:45:24Z</time>
      </trkpt>
      <trkpt lat="46.36332" lon="5.35574">
        <ele>341.4</ele>
        <time>2014-03-19T15:45:29Z</time>
      </trkpt>
      <trkpt lat="46.36326" lon="5.35594">
        <ele>342.2</ele>
        <time>2014-03-19T15:45:34Z</time>
      </trkpt>
      <trkpt lat="46.36316" lon="5.35617">
        <ele>343.2</ele>
        <time>2014-03-19T15:45:40Z</time>
      </trkpt>
      <trkpt lat="46.36307" lon="5.35635">
        <ele>344.4</ele>
        <time>2014-03-19T15:45:46Z</time>
      </trkpt>
      <trkpt lat="46.36298" lon="5.35652">
        <ele>345.8</ele>
        <time>2014-03-19T15:45:52Z</time>
      </trkpt>
      <trkpt lat="46.3629" lon="5.35673">
        <ele>347.4</ele>
        <time>2014-03-19T15:45:59Z</time>
      </trkpt>
      <trkpt lat="46.36288" lon="5.3569">
        <ele>348.6</ele>
        <time>2014-03-19T15:46:04Z</time>
      </trkpt>
      <trkpt lat="46.36285" lon="5.35715">
        <ele>350</ele>
        <time>2014-03-19T15:46:11Z</time>
      </trkpt>
      <trkpt lat="46.36282" lon="5.35736">
        <ele>351.6</ele>
        <time>2014-03-19T15:46:17Z</time>
      </trkpt>
      <trkpt lat="46.36275" lon="5.35753">
        <ele>353</ele>
        <time>2014-03-19T15:46:23Z</time>
      </trkpt>
      <trkpt lat="46.36267" lon="5.35771">
        <ele>354.6</ele>
        <time>2014-03-19T15:46:29Z</time>
      </trkpt>
      <trkpt lat="46.36259" lon="5.3578">
        <ele>356.2</ele>
        <time>2014-03-19T15:46:35Z</time>
      </trkpt>
      <trkpt lat="46.36258" lon="5.35774">
        <ele>357.2</ele>
        <time>2014-03-19T15:46:39Z</time>
      </trkpt>
      <trkpt lat="46.36258" lon="5.35773">
        <ele>357.6</ele>
        <time>2014-03-19T15:46:41Z</time>
      </trkpt>
      <trkpt lat="46.36257" lon="5.35773">
        <ele>358.6</ele>
        <time>2014-03-19T15:46:45Z</time>
      </trkpt>
      <trkpt lat="46.36259" lon="5.35778">
        <ele>360.2</ele>
        <time>2014-03-19T15:46:51Z</time>
      </trkpt>
      <trkpt lat="46.36259" lon="5.35794">
        <ele>361.4</ele>
        <time>2014-03-19T15:46:56Z</time>
      </trkpt>
      <trkpt lat="46.36258" lon="5.35807">
        <ele>362.6</ele>
        <time>2014-03-19T15:47:01Z</time>
      </trkpt>
      <trkpt lat="46.36253" lon="5.35821">
        <ele>364</ele>
        <time>2014-03-19T15:47:06Z</time>
      </trkpt>
      <trkpt lat="46.36247" lon="5.35839">
        <ele>365.4</ele>
        <time>2014-03-19T15:47:11Z</time>
      </trkpt>
      <trkpt lat="46.36234" lon="5.35857">
        <ele>367.2</ele>
        <time>2014-03-19T15:47:17Z</time>
      </trkpt>
      <trkpt lat="46.36224" lon="5.35873">
        <ele>368.8</ele>
        <time>2014-03-19T15:47:23Z</time>
      </trkpt>
      <trkpt lat="46.36219" lon="5.35901">
        <ele>370.8</ele>
        <time>2014-03-19T15:47:30Z</time>
      </trkpt>
      <trkpt lat="46.36217" lon="5.35927">
        <ele>372.4</ele>
        <time>2014-03-19T15:47:36Z</time>
      </trkpt>
      <trkpt lat="46.36215" lon="5.35945">
        <ele>373.6</ele>
        <time>2014-03-19T15:47:41Z</time>
      </trkpt>
      <trkpt lat="46.36209" lon="5.35968">
        <ele>375.2</ele>
        <time>2014-03-19T15:47:47Z</time>
      </trkpt>
      <trkpt lat="46.36207" lon="5.35979">
        <ele>376</ele>
        <time>2014-03-19T15:47:50Z</time>
      </trkpt>
      <trkpt lat="46.36207" lon="5.35982">
        <ele>376.2</ele>
        <time>2014-03-19T15:47:51Z</time>
      </trkpt>
      <trkpt lat="46.36206" lon="5.35985">
        <ele>376.4</ele>
        <time>2014-03-19T15:47:52Z</time>
      </trkpt>
      <trkpt lat="46.36202" lon="5.3599">
        <ele>376.8</ele>
        <time>2014-03-19T15:47:54Z</time>
      </trkpt>
      <trkpt lat="46.36199" lon="5.35994">
        <ele>377.4</ele>
        <time>2014-03-19T15:47:56Z</time>
      </trkpt>
      <trkpt lat="46.36198" lon="5.35999">
        <ele>378</ele>
        <time>2014-03-19T15:47:58Z</time>
      </trkpt>
      <trkpt lat="46.36195" lon="5.36004">
        <ele>378.4</ele>
        <time>2014-03-19T15:48:00Z</time>
      </trkpt>
      <trkpt lat="46.36194" lon="5.36009">
        <ele>379</ele>
        <time>2014-03-19T15:48:02Z</time>
      </trkpt>
      <trkpt lat="46.3619" lon="5.36019">
        <ele>380</ele>
        <time>2014-03-19T15:48:06Z</time>
      </trkpt>
      <trkpt lat="46.36188" lon="5.36022">
        <ele>380.2</ele>
        <time>2014-03-19T15:48:07Z</time>
      </trkpt>
      <trkpt lat="46.36182" lon="5.36033">
        <ele>381.4</ele>
        <time>2014-03-19T15:48:12Z</time>
      </trkpt>
      <trkpt lat="46.36175" lon="5.36051">
        <ele>383</ele>
        <time>2014-03-19T15:48:18Z</time>
      </trkpt>
      <trkpt lat="46.36174" lon="5.36057">
        <ele>383.6</ele>
        <time>2014-03-19T15:48:20Z</time>
      </trkpt>
      <trkpt lat="46.3617" lon="5.36062">
        <ele>384</ele>
        <time>2014-03-19T15:48:22Z</time>
      </trkpt>
      <trkpt lat="46.36163" lon="5.36072">
        <ele>385.2</ele>
        <time>2014-03-19T15:48:26Z</time>
      </trkpt>
      <trkpt lat="46.36159" lon="5.3608">
        <ele>386</ele>
        <time>2014-03-19T15:48:29Z</time>
      </trkpt>
      <trkpt lat="46.36156" lon="5.36085">
        <ele>386.6</ele>
        <time>2014-03-19T15:48:31Z</time>
      </trkpt>
      <trkpt lat="46.3615" lon="5.36097">
        <ele>388</ele>
        <time>2014-03-19T15:48:35Z</time>
      </trkpt>
      <trkpt lat="46.36143" lon="5.36113">
        <ele>389.4</ele>
        <time>2014-03-19T15:48:40Z</time>
      </trkpt>
      <trkpt lat="46.36143" lon="5.36116">
        <ele>389.6</ele>
        <time>2014-03-19T15:48:41Z</time>
      </trkpt>
      <trkpt lat="46.3614" lon="5.36122">
        <ele>390.4</ele>
        <time>2014-03-19T15:48:43Z</time>
      </trkpt>
      <trkpt lat="46.36135" lon="5.3613">
        <ele>391.2</ele>
        <time>2014-03-19T15:48:46Z</time>
      </trkpt>
      <trkpt lat="46.36132" lon="5.36137">
        <ele>391.8</ele>
        <time>2014-03-19T15:48:48Z</time>
      </trkpt>
      <trkpt lat="46.3613" lon="5.36141">
        <ele>392.2</ele>
        <time>2014-03-19T15:48:49Z</time>
      </trkpt>
      <trkpt lat="46.36123" lon="5.36159">
        <ele>393.8</ele>
        <time>2014-03-19T15:48:54Z</time>
      </trkpt>
      <trkpt lat="46.36119" lon="5.36167">
        <ele>395</ele>
        <time>2014-03-19T15:48:57Z</time>
      </trkpt>
      <trkpt lat="46.36117" lon="5.3617">
        <ele>395.2</ele>
        <time>2014-03-19T15:48:58Z</time>
      </trkpt>
      <trkpt lat="46.36113" lon="5.36182">
        <ele>396.6</ele>
        <time>2014-03-19T15:49:02Z</time>
      </trkpt>
      <trkpt lat="46.36108" lon="5.36197">
        <ele>398.6</ele>
        <time>2014-03-19T15:49:07Z</time>
      </trkpt>
      <trkpt lat="46.36104" lon="5.36214">
        <ele>400.8</ele>
        <time>2014-03-19T15:49:13Z</time>
      </trkpt>
      <trkpt lat="46.36103" lon="5.36225">
        <ele>401.8</ele>
        <time>2014-03-19T15:49:16Z</time>
      </trkpt>
      <trkpt lat="46.36101" lon="5.36233">
        <ele>402.4</ele>
        <time>2014-03-19T15:49:18Z</time>
      </trkpt>
      <trkpt lat="46.36095" lon="5.36252">
        <ele>404</ele>
        <time>2014-03-19T15:49:23Z</time>
      </trkpt>
      <trkpt lat="46.36091" lon="5.36267">
        <ele>405.2</ele>
        <time>2014-03-19T15:49:27Z</time>
      </trkpt>
      <trkpt lat="46.3609" lon="5.36271">
        <ele>405.6</ele>
        <time>2014-03-19T15:49:28Z</time>
      </trkpt>
      <trkpt lat="46.36085" lon="5.36287">
        <ele>406.8</ele>
        <time>2014-03-19T15:49:32Z</time>
      </trkpt>
      <trkpt lat="46.36084" lon="5.36295">
        <ele>407.4</ele>
        <time>2014-03-19T15:49:34Z</time>
      </trkpt>
      <trkpt lat="46.36085" lon="5.36306">
        <ele>408.2</ele>
        <time>2014-03-19T15:49:37Z</time>
      </trkpt>
      <trkpt lat="46.36085" lon="5.36315">
        <ele>408.8</ele>
        <time>2014-03-19T15:49:39Z</time>
      </trkpt>
      <trkpt lat="46.36084" lon="5.36329">
        <ele>409.8</ele>
        <time>2014-03-19T15:49:42Z</time>
      </trkpt>
      <trkpt lat="46.36083" lon="5.36349">
        <ele>411</ele>
        <time>2014-03-19T15:49:46Z</time>
      </trkpt>
      <trkpt lat="46.3608" lon="5.36367">
        <ele>412.4</ele>
        <time>2014-03-19T15:49:50Z</time>
      </trkpt>
      <trkpt lat="46.36081" lon="5.36372">
        <ele>412.6</ele>
        <time>2014-03-19T15:49:51Z</time>
      </trkpt>
      <trkpt lat="46.36083" lon="5.36381">
        <ele>413.6</ele>
        <time>2014-03-19T15:49:54Z</time>
      </trkpt>
      <trkpt lat="46.36086" lon="5.36386">
        <ele>414.8</ele>
        <time>2014-03-19T15:49:58Z</time>
      </trkpt>
      <trkpt lat="46.3609" lon="5.36387">
        <ele>415.2</ele>
        <time>2014-03-19T15:49:59Z</time>
      </trkpt>
      <trkpt lat="46.36093" lon="5.36385">
        <ele>415.8</ele>
        <time>2014-03-19T15:50:01Z</time>
      </trkpt>
      <trkpt lat="46.36104" lon="5.36377">
        <ele>417</ele>
        <time>2014-03-19T15:50:05Z</time>
      </trkpt>
      <trkpt lat="46.36111" lon="5.3637">
        <ele>418</ele>
        <time>2014-03-19T15:50:09Z</time>
      </trkpt>
      <trkpt lat="46.36114" lon="5.36369">
        <ele>418.2</ele>
        <time>2014-03-19T15:50:10Z</time>
      </trkpt>
      <trkpt lat="46.36127" lon="5.36364">
        <ele>419.2</ele>
        <time>2014-03-19T15:50:14Z</time>
      </trkpt>
      <trkpt lat="46.3614" lon="5.36362">
        <ele>420</ele>
        <time>2014-03-19T15:50:18Z</time>
      </trkpt>
      <trkpt lat="46.36158" lon="5.36362">
        <ele>420.8</ele>
        <time>2014-03-19T15:50:23Z</time>
      </trkpt>
      <trkpt lat="46.3617" lon="5.36368">
        <ele>421.4</ele>
        <time>2014-03-19T15:50:27Z</time>
      </trkpt>
      <trkpt lat="46.36182" lon="5.36371">
        <ele>422</ele>
        <time>2014-03-19T15:50:32Z</time>
      </trkpt>
      <trkpt lat="46.36194" lon="5.36375">
        <ele>422.6</ele>
        <time>2014-03-19T15:50:36Z</time>
      </trkpt>
      <trkpt lat="46.36209" lon="5.36384">
        <ele>423</ele>
        <time>2014-03-19T15:50:41Z</time>
      </trkpt>
      <trkpt lat="46.3622" lon="5.36394">
        <ele>423.4</ele>
        <time>2014-03-19T15:50:46Z</time>
      </trkpt>
      <trkpt lat="46.36228" lon="5.3641">
        <ele>423.6</ele>
        <time>2014-03-19T15:50:51Z</time>
      </trkpt>
      <trkpt lat="46.36239" lon="5.36425">
        <ele>423.6</ele>
        <time>2014-03-19T15:50:56Z</time>
      </trkpt>
      <trkpt lat="46.36251" lon="5.36443">
        <ele>424</ele>
        <time>2014-03-19T15:51:01Z</time>
      </trkpt>
      <trkpt lat="46.36263" lon="5.36459">
        <ele>424.2</ele>
        <time>2014-03-19T15:51:06Z</time>
      </trkpt>
      <trkpt lat="46.36276" lon="5.36479">
        <ele>424.6</ele>
        <time>2014-03-19T15:51:12Z</time>
      </trkpt>
      <trkpt lat="46.36286" lon="5.36501">
        <ele>425</ele>
        <time>2014-03-19T15:51:18Z</time>
      </trkpt>
      <trkpt lat="46.36297" lon="5.36521">
        <ele>425.4</ele>
        <time>2014-03-19T15:51:24Z</time>
      </trkpt>
      <trkpt lat="46.36305" lon="5.36536">
        <ele>425.8</ele>
        <time>2014-03-19T15:51:28Z</time>
      </trkpt>
      <trkpt lat="46.36307" lon="5.36545">
        <ele>426</ele>
        <time>2014-03-19T15:51:30Z</time>
      </trkpt>
      <trkpt lat="46.36306" lon="5.36555">
        <ele>426.2</ele>
        <time>2014-03-19T15:51:32Z</time>
      </trkpt>
      <trkpt lat="46.36301" lon="5.36582">
        <ele>426.8</ele>
        <time>2014-03-19T15:51:38Z</time>
      </trkpt>
      <trkpt lat="46.36293" lon="5.36605">
        <ele>427.6</ele>
        <time>2014-03-19T15:51:44Z</time>
      </trkpt>
      <trkpt lat="46.36286" lon="5.36623">
        <ele>428.2</ele>
        <time>2014-03-19T15:51:49Z</time>
      </trkpt>
      <trkpt lat="46.3628" lon="5.36642">
        <ele>429</ele>
        <time>2014-03-19T15:51:54Z</time>
      </trkpt>
      <trkpt lat="46.36277" lon="5.36654">
        <ele>429.6</ele>
        <time>2014-03-19T15:51:59Z</time>
      </trkpt>
      <trkpt lat="46.36278" lon="5.36658">
        <ele>430.2</ele>
        <time>2014-03-19T15:52:03Z</time>
      </trkpt>
      <trkpt lat="46.36277" lon="5.36654">
        <ele>430.6</ele>
        <time>2014-03-19T15:52:06Z</time>
      </trkpt>
      <trkpt lat="46.36276" lon="5.3665">
        <ele>431</ele>
        <time>2014-03-19T15:52:08Z</time>
      </trkpt>
      <trkpt lat="46.36277" lon="5.36644">
        <ele>431.2</ele>
        <time>2014-03-19T15:52:11Z</time>
      </trkpt>
      <trkpt lat="46.36278" lon="5.36646">
        <ele>431.4</ele>
        <time>2014-03-19T15:52:12Z</time>
      </trkpt>
      <trkpt lat="46.36275" lon="5.36656">
        <ele>431.8</ele>
        <time>2014-03-19T15:52:15Z</time>
      </trkpt>
      <trkpt lat="46.3627" lon="5.36677">
        <ele>432.6</ele>
        <time>2014-03-19T15:52:21Z</time>
      </trkpt>
      <trkpt lat="46.36265" lon="5.36697">
        <ele>433.4</ele>
        <time>2014-03-19T15:52:27Z</time>
      </trkpt>
      <trkpt lat="46.36261" lon="5.36715">
        <ele>434.4</ele>
        <time>2014-03-19T15:52:33Z</time>
      </trkpt>
      <trkpt lat="46.36252" lon="5.36728">
        <ele>435.4</ele>
        <time>2014-03-19T15:52:38Z</time>
      </trkpt>
      <trkpt lat="46.36242" lon="5.36733">
        <ele>436.2</ele>
        <time>2014-03-19T15:52:43Z</time>
      </trkpt>
      <trkpt lat="46.36227" lon="5.36733">
        <ele>437.2</ele>
        <time>2014-03-19T15:52:49Z</time>
      </trkpt>
      <trkpt lat="46.3621" lon="5.36733">
        <ele>438.2</ele>
        <time>2014-03-19T15:52:55Z</time>
      </trkpt>
      <trkpt lat="46.36192" lon="5.36734">
        <ele>439.4</ele>
        <time>2014-03-19T15:53:01Z</time>
      </trkpt>
      <trkpt lat="46.36178" lon="5.36737">
        <ele>440.6</ele>
        <time>2014-03-19T15:53:07Z</time>
      </trkpt>
      <trkpt lat="46.36171" lon="5.36737">
        <ele>441.6</ele>
        <time>2014-03-19T15:53:12Z</time>
      </trkpt>
      <trkpt lat="46.36175" lon="5.36735">
        <ele>442.4</ele>
        <time>2014-03-19T15:53:16Z</time>
      </trkpt>
      <trkpt lat="46.36176" lon="5.36735">
        <ele>442.8</ele>
        <time>2014-03-19T15:53:18Z</time>
      </trkpt>
      <trkpt lat="46.36176" lon="5.36735">
        <ele>443.6</ele>
        <time>2014-03-19T15:53:23Z</time>
      </trkpt>
      <trkpt lat="46.36172" lon="5.36736">
        <ele>446.8</ele>
        <time>2014-03-19T15:53:43Z</time>
      </trkpt>
      <trkpt lat="46.3617" lon="5.36736">
        <ele>447.6</ele>
        <time>2014-03-19T15:53:48Z</time>
      </trkpt>
      <trkpt lat="46.36169" lon="5.36735">
        <ele>449.2</ele>
        <time>2014-03-19T15:54:01Z</time>
      </trkpt>
      <trkpt lat="46.36167" lon="5.36733">
        <ele>449.4</ele>
        <time>2014-03-19T15:54:03Z</time>
      </trkpt>
      <trkpt lat="46.36167" lon="5.36732">
        <ele>449.6</ele>
        <time>2014-03-19T15:54:05Z</time>
      </trkpt>
      <trkpt lat="46.36164" lon="5.36728">
        <ele>450.2</ele>
        <time>2014-03-19T15:54:09Z</time>
      </trkpt>
      <trkpt lat="46.36163" lon="5.36728">
        <ele>450.4</ele>
        <time>2014-03-19T15:54:10Z</time>
      </trkpt>
      <trkpt lat="46.36159" lon="5.36727">
        <ele>450.4</ele>
        <time>2014-03-19T15:54:12Z</time>
      </trkpt>
      <trkpt lat="46.36153" lon="5.36723">
        <ele>450.6</ele>
        <time>2014-03-19T15:54:14Z</time>
      </trkpt>
      <trkpt lat="46.36149" lon="5.36719">
        <ele>450.8</ele>
        <time>2014-03-19T15:54:17Z</time>
      </trkpt>
      <trkpt lat="46.36146" lon="5.36721">
        <ele>451</ele>
        <time>2014-03-19T15:54:21Z</time>
      </trkpt>
      <trkpt lat="46.36146" lon="5.36721">
        <ele>451.2</ele>
        <time>2014-03-19T15:54:22Z</time>
      </trkpt>
      <trkpt lat="46.3614" lon="5.36721">
        <ele>451.4</ele>
        <time>2014-03-19T15:54:28Z</time>
      </trkpt>
      <trkpt lat="46.36131" lon="5.36722">
        <ele>451.6</ele>
        <time>2014-03-19T15:54:33Z</time>
      </trkpt>
      <trkpt lat="46.3613" lon="5.36722">
        <ele>451.6</ele>
        <time>2014-03-19T15:54:34Z</time>
      </trkpt>
      <trkpt lat="46.36126" lon="5.36723">
        <ele>451.6</ele>
        <time>2014-03-19T15:54:36Z</time>
      </trkpt>
      <trkpt lat="46.36125" lon="5.36724">
        <ele>451.6</ele>
        <time>2014-03-19T15:54:37Z</time>
      </trkpt>
      <trkpt lat="46.36118" lon="5.36718">
        <ele>452</ele>
        <time>2014-03-19T15:54:41Z</time>
      </trkpt>
      <trkpt lat="46.36112" lon="5.36714">
        <ele>452.2</ele>
        <time>2014-03-19T15:54:43Z</time>
      </trkpt>
      <trkpt lat="46.36108" lon="5.36711">
        <ele>452.2</ele>
        <time>2014-03-19T15:54:45Z</time>
      </trkpt>
      <trkpt lat="46.36095" lon="5.36696">
        <ele>453</ele>
        <time>2014-03-19T15:54:52Z</time>
      </trkpt>
      <trkpt lat="46.36084" lon="5.36683">
        <ele>453.6</ele>
        <time>2014-03-19T15:54:58Z</time>
      </trkpt>
      <trkpt lat="46.36075" lon="5.36675">
        <ele>454.4</ele>
        <time>2014-03-19T15:55:03Z</time>
      </trkpt>
      <trkpt lat="46.36065" lon="5.36663">
        <ele>454.8</ele>
        <time>2014-03-19T15:55:08Z</time>
      </trkpt>
      <trkpt lat="46.36054" lon="5.36653">
        <ele>455</ele>
        <time>2014-03-19T15:55:12Z</time>
      </trkpt>
      <trkpt lat="46.36038" lon="5.36635">
        <ele>455.2</ele>
        <time>2014-03-19T15:55:19Z</time>
      </trkpt>
      <trkpt lat="46.36031" lon="5.36629">
        <ele>455.2</ele>
        <time>2014-03-19T15:55:22Z</time>
      </trkpt>
      <trkpt lat="46.36026" lon="5.36624">
        <ele>455.2</ele>
        <time>2014-03-19T15:55:24Z</time>
      </trkpt>
      <trkpt lat="46.36018" lon="5.36617">
        <ele>455.2</ele>
        <time>2014-03-19T15:55:27Z</time>
      </trkpt>
      <trkpt lat="46.3601" lon="5.3661">
        <ele>455</ele>
        <time>2014-03-19T15:55:30Z</time>
      </trkpt>
      <trkpt lat="46.35995" lon="5.36598">
        <ele>455</ele>
        <time>2014-03-19T15:55:36Z</time>
      </trkpt>
      <trkpt lat="46.35983" lon="5.36589">
        <ele>455</ele>
        <time>2014-03-19T15:55:41Z</time>
      </trkpt>
      <trkpt lat="46.35976" lon="5.36584">
        <ele>455</ele>
        <time>2014-03-19T15:55:44Z</time>
      </trkpt>
      <trkpt lat="46.35974" lon="5.36584">
        <ele>455</ele>
        <time>2014-03-19T15:55:45Z</time>
      </trkpt>
      <trkpt lat="46.35967" lon="5.36584">
        <ele>454.8</ele>
        <time>2014-03-19T15:55:49Z</time>
      </trkpt>
      <trkpt lat="46.35967" lon="5.36586">
        <ele>454.8</ele>
        <time>2014-03-19T15:55:58Z</time>
      </trkpt>
      <trkpt lat="46.35963" lon="5.36582">
        <ele>454.6</ele>
        <time>2014-03-19T15:56:08Z</time>
      </trkpt>
      <trkpt lat="46.35961" lon="5.3658">
        <ele>454.6</ele>
        <time>2014-03-19T15:56:09Z</time>
      </trkpt>
      <trkpt lat="46.35953" lon="5.36575">
        <ele>454.6</ele>
        <time>2014-03-19T15:56:13Z</time>
      </trkpt>
      <trkpt lat="46.35946" lon="5.3657">
        <ele>454.6</ele>
        <time>2014-03-19T15:56:17Z</time>
      </trkpt>
      <trkpt lat="46.35934" lon="5.36563">
        <ele>454.6</ele>
        <time>2014-03-19T15:56:24Z</time>
      </trkpt>
      <trkpt lat="46.35923" lon="5.36558">
        <ele>454.8</ele>
        <time>2014-03-19T15:56:29Z</time>
      </trkpt>
      <trkpt lat="46.35908" lon="5.36551">
        <ele>455.6</ele>
        <time>2014-03-19T15:56:35Z</time>
      </trkpt>
      <trkpt lat="46.35895" lon="5.36548">
        <ele>456.2</ele>
        <time>2014-03-19T15:56:40Z</time>
      </trkpt>
      <trkpt lat="46.35877" lon="5.36545">
        <ele>457.2</ele>
        <time>2014-03-19T15:56:47Z</time>
      </trkpt>
      <trkpt lat="46.35865" lon="5.36544">
        <ele>457.8</ele>
        <time>2014-03-19T15:56:52Z</time>
      </trkpt>
      <trkpt lat="46.35851" lon="5.36549">
        <ele>458.6</ele>
        <time>2014-03-19T15:56:58Z</time>
      </trkpt>
      <trkpt lat="46.3584" lon="5.36552">
        <ele>459.2</ele>
        <time>2014-03-19T15:57:03Z</time>
      </trkpt>
      <trkpt lat="46.35828" lon="5.36554">
        <ele>459.6</ele>
        <time>2014-03-19T15:57:08Z</time>
      </trkpt>
      <trkpt lat="46.35816" lon="5.36556">
        <ele>460</ele>
        <time>2014-03-19T15:57:13Z</time>
      </trkpt>
      <trkpt lat="46.35803" lon="5.36557">
        <ele>460.4</ele>
        <time>2014-03-19T15:57:18Z</time>
      </trkpt>
      <trkpt lat="46.35791" lon="5.3656">
        <ele>460.8</ele>
        <time>2014-03-19T15:57:23Z</time>
      </trkpt>
      <trkpt lat="46.35777" lon="5.36564">
        <ele>461.2</ele>
        <time>2014-03-19T15:57:29Z</time>
      </trkpt>
      <trkpt lat="46.35765" lon="5.36568">
        <ele>461.8</ele>
        <time>2014-03-19T15:57:34Z</time>
      </trkpt>
      <trkpt lat="46.35753" lon="5.36572">
        <ele>462.6</ele>
        <time>2014-03-19T15:57:39Z</time>
      </trkpt>
      <trkpt lat="46.35737" lon="5.36577">
        <ele>463.8</ele>
        <time>2014-03-19T15:57:46Z</time>
      </trkpt>
      <trkpt lat="46.35721" lon="5.36581">
        <ele>465.2</ele>
        <time>2014-03-19T15:57:53Z</time>
      </trkpt>
      <trkpt lat="46.35709" lon="5.36584">
        <ele>466.4</ele>
        <time>2014-03-19T15:57:58Z</time>
      </trkpt>
      <trkpt lat="46.35696" lon="5.36587">
        <ele>467.8</ele>
        <time>2014-03-19T15:58:04Z</time>
      </trkpt>
      <trkpt lat="46.3569" lon="5.36589">
        <ele>468.6</ele>
        <time>2014-03-19T15:58:07Z</time>
      </trkpt>
      <trkpt lat="46.35687" lon="5.36593">
        <ele>469</ele>
        <time>2014-03-19T15:58:09Z</time>
      </trkpt>
      <trkpt lat="46.35681" lon="5.36604">
        <ele>470.2</ele>
        <time>2014-03-19T15:58:14Z</time>
      </trkpt>
      <trkpt lat="46.35672" lon="5.36618">
        <ele>471.4</ele>
        <time>2014-03-19T15:58:20Z</time>
      </trkpt>
      <trkpt lat="46.35664" lon="5.36628">
        <ele>472.2</ele>
        <time>2014-03-19T15:58:25Z</time>
      </trkpt>
      <trkpt lat="46.35658" lon="5.36633">
        <ele>472.8</ele>
        <time>2014-03-19T15:58:28Z</time>
      </trkpt>
      <trkpt lat="46.35656" lon="5.36635">
        <ele>473</ele>
        <time>2014-03-19T15:58:29Z</time>
      </trkpt>
      <trkpt lat="46.3565" lon="5.36639">
        <ele>473.4</ele>
        <time>2014-03-19T15:58:32Z</time>
      </trkpt>
      <trkpt lat="46.35647" lon="5.36642">
        <ele>473.8</ele>
        <time>2014-03-19T15:58:34Z</time>
      </trkpt>
      <trkpt lat="46.3564" lon="5.36653">
        <ele>474.4</ele>
        <time>2014-03-19T15:58:39Z</time>
      </trkpt>
      <trkpt lat="46.35638" lon="5.36654">
        <ele>474.6</ele>
        <time>2014-03-19T15:58:40Z</time>
      </trkpt>
      <trkpt lat="46.35635" lon="5.36659">
        <ele>475.2</ele>
        <time>2014-03-19T15:58:42Z</time>
      </trkpt>
      <trkpt lat="46.3563" lon="5.36666">
        <ele>475.6</ele>
        <time>2014-03-19T15:58:45Z</time>
      </trkpt>
      <trkpt lat="46.35627" lon="5.3667">
        <ele>476</ele>
        <time>2014-03-19T15:58:47Z</time>
      </trkpt>
      <trkpt lat="46.3562" lon="5.36682">
        <ele>476.8</ele>
        <time>2014-03-19T15:58:52Z</time>
      </trkpt>
      <trkpt lat="46.35611" lon="5.36695">
        <ele>477.8</ele>
        <time>2014-03-19T15:58:57Z</time>
      </trkpt>
      <trkpt lat="46.35604" lon="5.36708">
        <ele>478.8</ele>
        <time>2014-03-19T15:59:02Z</time>
      </trkpt>
      <trkpt lat="46.35593" lon="5.36722">
        <ele>479.8</ele>
        <time>2014-03-19T15:59:08Z</time>
      </trkpt>
      <trkpt lat="46.35583" lon="5.36731">
        <ele>480.8</ele>
        <time>2014-03-19T15:59:13Z</time>
      </trkpt>
      <trkpt lat="46.35572" lon="5.36739">
        <ele>481.8</ele>
        <time>2014-03-19T15:59:18Z</time>
      </trkpt>
      <trkpt lat="46.35562" lon="5.3675">
        <ele>482.8</ele>
        <time>2014-03-19T15:59:23Z</time>
      </trkpt>
      <trkpt lat="46.35555" lon="5.36765">
        <ele>484.2</ele>
        <time>2014-03-19T15:59:29Z</time>
      </trkpt>
      <trkpt lat="46.35554" lon="5.36785">
        <ele>485.8</ele>
        <time>2014-03-19T15:59:35Z</time>
      </trkpt>
      <trkpt lat="46.35557" lon="5.36807">
        <ele>487.4</ele>
        <time>2014-03-19T15:59:41Z</time>
      </trkpt>
      <trkpt lat="46.35561" lon="5.36827">
        <ele>489.2</ele>
        <time>2014-03-19T15:59:47Z</time>
      </trkpt>
      <trkpt lat="46.35561" lon="5.36835">
        <ele>489.8</ele>
        <time>2014-03-19T15:59:49Z</time>
      </trkpt>
      <trkpt lat="46.35563" lon="5.36842">
        <ele>490.4</ele>
        <time>2014-03-19T15:59:51Z</time>
      </trkpt>
      <trkpt lat="46.35568" lon="5.36859">
        <ele>491.8</ele>
        <time>2014-03-19T15:59:56Z</time>
      </trkpt>
      <trkpt lat="46.3557" lon="5.36862">
        <ele>492</ele>
        <time>2014-03-19T15:59:57Z</time>
      </trkpt>
      <trkpt lat="46.35576" lon="5.36875">
        <ele>493.2</ele>
        <time>2014-03-19T16:00:01Z</time>
      </trkpt>
      <trkpt lat="46.35584" lon="5.36898">
        <ele>494.4</ele>
        <time>2014-03-19T16:00:07Z</time>
      </trkpt>
      <trkpt lat="46.35589" lon="5.36923">
        <ele>495.8</ele>
        <time>2014-03-19T16:00:13Z</time>
      </trkpt>
      <trkpt lat="46.35589" lon="5.36927">
        <ele>496</ele>
        <time>2014-03-19T16:00:14Z</time>
      </trkpt>
      <trkpt lat="46.35586" lon="5.36954">
        <ele>497.2</ele>
        <time>2014-03-19T16:00:20Z</time>
      </trkpt>
      <trkpt lat="46.35577" lon="5.36975">
        <ele>498.4</ele>
        <time>2014-03-19T16:00:25Z</time>
      </trkpt>
      <trkpt lat="46.35563" lon="5.36995">
        <ele>500</ele>
        <time>2014-03-19T16:00:31Z</time>
      </trkpt>
      <trkpt lat="46.35549" lon="5.3701">
        <ele>501.4</ele>
        <time>2014-03-19T16:00:37Z</time>
      </trkpt>
      <trkpt lat="46.3554" lon="5.37019">
        <ele>502.4</ele>
        <time>2014-03-19T16:00:42Z</time>
      </trkpt>
      <trkpt lat="46.35525" lon="5.3703">
        <ele>503.6</ele>
        <time>2014-03-19T16:00:48Z</time>
      </trkpt>
      <trkpt lat="46.35507" lon="5.37038">
        <ele>504.8</ele>
        <time>2014-03-19T16:00:54Z</time>
      </trkpt>
      <trkpt lat="46.35488" lon="5.37045">
        <ele>506.2</ele>
        <time>2014-03-19T16:01:00Z</time>
      </trkpt>
      <trkpt lat="46.35476" lon="5.37048">
        <ele>507.4</ele>
        <time>2014-03-19T16:01:05Z</time>
      </trkpt>
      <trkpt lat="46.35458" lon="5.37055">
        <ele>508.8</ele>
        <time>2014-03-19T16:01:11Z</time>
      </trkpt>
      <trkpt lat="46.35438" lon="5.37065">
        <ele>510.6</ele>
        <time>2014-03-19T16:01:17Z</time>
      </trkpt>
      <trkpt lat="46.35418" lon="5.37076">
        <ele>512.2</ele>
        <time>2014-03-19T16:01:23Z</time>
      </trkpt>
      <trkpt lat="46.35415" lon="5.37078">
        <ele>512.6</ele>
        <time>2014-03-19T16:01:24Z</time>
      </trkpt>
      <trkpt lat="46.35395" lon="5.37089">
        <ele>514.2</ele>
        <time>2014-03-19T16:01:30Z</time>
      </trkpt>
      <trkpt lat="46.35389" lon="5.37093">
        <ele>514.8</ele>
        <time>2014-03-19T16:01:32Z</time>
      </trkpt>
      <trkpt lat="46.35371" lon="5.37104">
        <ele>516.4</ele>
        <time>2014-03-19T16:01:38Z</time>
      </trkpt>
      <trkpt lat="46.35358" lon="5.37119">
        <ele>517.8</ele>
        <time>2014-03-19T16:01:44Z</time>
      </trkpt>
      <trkpt lat="46.35353" lon="5.37134">
        <ele>519</ele>
        <time>2014-03-19T16:01:48Z</time>
      </trkpt>
      <trkpt lat="46.35346" lon="5.37148">
        <ele>520</ele>
        <time>2014-03-19T16:01:52Z</time>
      </trkpt>
      <trkpt lat="46.35339" lon="5.3717">
        <ele>521.6</ele>
        <time>2014-03-19T16:01:58Z</time>
      </trkpt>
      <trkpt lat="46.35331" lon="5.37192">
        <ele>522.6</ele>
        <time>2014-03-19T16:02:03Z</time>
      </trkpt>
      <trkpt lat="46.35324" lon="5.37215">
        <ele>523.4</ele>
        <time>2014-03-19T16:02:08Z</time>
      </trkpt>
      <trkpt lat="46.35312" lon="5.37235">
        <ele>524.2</ele>
        <time>2014-03-19T16:02:13Z</time>
      </trkpt>
      <trkpt lat="46.3531" lon="5.37238">
        <ele>524.4</ele>
        <time>2014-03-19T16:02:14Z</time>
      </trkpt>
      <trkpt lat="46.35296" lon="5.37259">
        <ele>525.6</ele>
        <time>2014-03-19T16:02:20Z</time>
      </trkpt>
      <trkpt lat="46.35293" lon="5.37263">
        <ele>525.8</ele>
        <time>2014-03-19T16:02:21Z</time>
      </trkpt>
      <trkpt lat="46.35283" lon="5.37281">
        <ele>526.8</ele>
        <time>2014-03-19T16:02:26Z</time>
      </trkpt>
      <trkpt lat="46.35274" lon="5.37304">
        <ele>527.8</ele>
        <time>2014-03-19T16:02:32Z</time>
      </trkpt>
      <trkpt lat="46.35263" lon="5.37329">
        <ele>529</ele>
        <time>2014-03-19T16:02:38Z</time>
      </trkpt>
      <trkpt lat="46.35261" lon="5.37332">
        <ele>529.2</ele>
        <time>2014-03-19T16:02:39Z</time>
      </trkpt>
      <trkpt lat="46.35247" lon="5.37354">
        <ele>530.2</ele>
        <time>2014-03-19T16:02:45Z</time>
      </trkpt>
      <trkpt lat="46.35239" lon="5.37363">
        <ele>530.8</ele>
        <time>2014-03-19T16:02:49Z</time>
      </trkpt>
      <trkpt lat="46.3524" lon="5.37362">
        <ele>531</ele>
        <time>2014-03-19T16:02:50Z</time>
      </trkpt>
      <trkpt lat="46.35242" lon="5.37361">
        <ele>531.2</ele>
        <time>2014-03-19T16:02:53Z</time>
      </trkpt>
      <trkpt lat="46.3524" lon="5.37361">
        <ele>531.8</ele>
        <time>2014-03-19T16:03:01Z</time>
      </trkpt>
      <trkpt lat="46.35237" lon="5.37365">
        <ele>532</ele>
        <time>2014-03-19T16:03:03Z</time>
      </trkpt>
      <trkpt lat="46.35226" lon="5.3738">
        <ele>532.4</ele>
        <time>2014-03-19T16:03:08Z</time>
      </trkpt>
      <trkpt lat="46.35213" lon="5.374">
        <ele>532.6</ele>
        <time>2014-03-19T16:03:14Z</time>
      </trkpt>
      <trkpt lat="46.35203" lon="5.37418">
        <ele>533</ele>
        <time>2014-03-19T16:03:19Z</time>
      </trkpt>
      <trkpt lat="46.35189" lon="5.3744">
        <ele>533</ele>
        <time>2014-03-19T16:03:25Z</time>
      </trkpt>
      <trkpt lat="46.35176" lon="5.37461">
        <ele>532.8</ele>
        <time>2014-03-19T16:03:30Z</time>
      </trkpt>
      <trkpt lat="46.35164" lon="5.37481">
        <ele>532.6</ele>
        <time>2014-03-19T16:03:36Z</time>
      </trkpt>
      <trkpt lat="46.35155" lon="5.37502">
        <ele>532.4</ele>
        <time>2014-03-19T16:03:41Z</time>
      </trkpt>
      <trkpt lat="46.35148" lon="5.37519">
        <ele>532.4</ele>
        <time>2014-03-19T16:03:45Z</time>
      </trkpt>
      <trkpt lat="46.35146" lon="5.37539">
        <ele>532</ele>
        <time>2014-03-19T16:03:49Z</time>
      </trkpt>
      <trkpt lat="46.35147" lon="5.37566">
        <ele>531.8</ele>
        <time>2014-03-19T16:03:54Z</time>
      </trkpt>
      <trkpt lat="46.35147" lon="5.37582">
        <ele>531.6</ele>
        <time>2014-03-19T16:03:57Z</time>
      </trkpt>
      <trkpt lat="46.35145" lon="5.37601">
        <ele>531.4</ele>
        <time>2014-03-19T16:04:01Z</time>
      </trkpt>
      <trkpt lat="46.35139" lon="5.37618">
        <ele>531</ele>
        <time>2014-03-19T16:04:05Z</time>
      </trkpt>
      <trkpt lat="46.35128" lon="5.37638">
        <ele>530.6</ele>
        <time>2014-03-19T16:04:10Z</time>
      </trkpt>
      <trkpt lat="46.35114" lon="5.37655">
        <ele>530.2</ele>
        <time>2014-03-19T16:04:15Z</time>
      </trkpt>
      <trkpt lat="46.35094" lon="5.37666">
        <ele>529.8</ele>
        <time>2014-03-19T16:04:20Z</time>
      </trkpt>
      <trkpt lat="46.3509" lon="5.37669">
        <ele>529.6</ele>
        <time>2014-03-19T16:04:21Z</time>
      </trkpt>
      <trkpt lat="46.35074" lon="5.37686">
        <ele>529</ele>
        <time>2014-03-19T16:04:26Z</time>
      </trkpt>
      <trkpt lat="46.35057" lon="5.37701">
        <ele>528.6</ele>
        <time>2014-03-19T16:04:31Z</time>
      </trkpt>
      <trkpt lat="46.3504" lon="5.37715">
        <ele>528</ele>
        <time>2014-03-19T16:04:36Z</time>
      </trkpt>
      <trkpt lat="46.35033" lon="5.3772">
        <ele>527.8</ele>
        <time>2014-03-19T16:04:38Z</time>
      </trkpt>
      <trkpt lat="46.35015" lon="5.3773">
        <ele>527.2</ele>
        <time>2014-03-19T16:04:43Z</time>
      </trkpt>
      <trkpt lat="46.34998" lon="5.3774">
        <ele>526.6</ele>
        <time>2014-03-19T16:04:48Z</time>
      </trkpt>
      <trkpt lat="46.34994" lon="5.37742">
        <ele>526.4</ele>
        <time>2014-03-19T16:04:49Z</time>
      </trkpt>
      <trkpt lat="46.34977" lon="5.37751">
        <ele>525.6</ele>
        <time>2014-03-19T16:04:54Z</time>
      </trkpt>
      <trkpt lat="46.34967" lon="5.37755">
        <ele>525</ele>
        <time>2014-03-19T16:04:59Z</time>
      </trkpt>
      <trkpt lat="46.34966" lon="5.37755">
        <ele>524.8</ele>
        <time>2014-03-19T16:05:01Z</time>
      </trkpt>
      <trkpt lat="46.34966" lon="5.37755">
        <ele>524.4</ele>
        <time>2014-03-19T16:05:03Z</time>
      </trkpt>
      <trkpt lat="46.34966" lon="5.37754">
        <ele>523.4</ele>
        <time>2014-03-19T16:05:11Z</time>
      </trkpt>
      <trkpt lat="46.34961" lon="5.37757">
        <ele>522.2</ele>
        <time>2014-03-19T16:05:20Z</time>
      </trkpt>
      <trkpt lat="46.34948" lon="5.37763">
        <ele>521.8</ele>
        <time>2014-03-19T16:05:24Z</time>
      </trkpt>
      <trkpt lat="46.3493" lon="5.3777">
        <ele>521.2</ele>
        <time>2014-03-19T16:05:29Z</time>
      </trkpt>
      <trkpt lat="46.34927" lon="5.37771">
        <ele>521</ele>
        <time>2014-03-19T16:05:30Z</time>
      </trkpt>
      <trkpt lat="46.34908" lon="5.37775">
        <ele>520.2</ele>
        <time>2014-03-19T16:05:35Z</time>
      </trkpt>
      <trkpt lat="46.34899" lon="5.37782">
        <ele>519.6</ele>
        <time>2014-03-19T16:05:39Z</time>
      </trkpt>
      <trkpt lat="46.34895" lon="5.37804">
        <ele>518.8</ele>
        <time>2014-03-19T16:05:44Z</time>
      </trkpt>
      <trkpt lat="46.34884" lon="5.37825">
        <ele>518</ele>
        <time>2014-03-19T16:05:49Z</time>
      </trkpt>
      <trkpt lat="46.34872" lon="5.37844">
        <ele>517.2</ele>
        <time>2014-03-19T16:05:54Z</time>
      </trkpt>
      <trkpt lat="46.34861" lon="5.37869">
        <ele>516.2</ele>
        <time>2014-03-19T16:05:59Z</time>
      </trkpt>
      <trkpt lat="46.34852" lon="5.37891">
        <ele>515.4</ele>
        <time>2014-03-19T16:06:04Z</time>
      </trkpt>
      <trkpt lat="46.34846" lon="5.37904">
        <ele>514.4</ele>
        <time>2014-03-19T16:06:09Z</time>
      </trkpt>
      <trkpt lat="46.34839" lon="5.37924">
        <ele>513.4</ele>
        <time>2014-03-19T16:06:15Z</time>
      </trkpt>
      <trkpt lat="46.34827" lon="5.37933">
        <ele>512.6</ele>
        <time>2014-03-19T16:06:19Z</time>
      </trkpt>
      <trkpt lat="46.34809" lon="5.37944">
        <ele>511.4</ele>
        <time>2014-03-19T16:06:25Z</time>
      </trkpt>
      <trkpt lat="46.34791" lon="5.37957">
        <ele>510.4</ele>
        <time>2014-03-19T16:06:31Z</time>
      </trkpt>
      <trkpt lat="46.34778" lon="5.37965">
        <ele>509.6</ele>
        <time>2014-03-19T16:06:36Z</time>
      </trkpt>
      <trkpt lat="46.34763" lon="5.37978">
        <ele>508.8</ele>
        <time>2014-03-19T16:06:41Z</time>
      </trkpt>
      <trkpt lat="46.34748" lon="5.37994">
        <ele>508</ele>
        <time>2014-03-19T16:06:46Z</time>
      </trkpt>
      <trkpt lat="46.34743" lon="5.37998">
        <ele>507.8</ele>
        <time>2014-03-19T16:06:47Z</time>
      </trkpt>
      <trkpt lat="46.34727" lon="5.38011">
        <ele>507</ele>
        <time>2014-03-19T16:06:52Z</time>
      </trkpt>
      <trkpt lat="46.34712" lon="5.38024">
        <ele>506</ele>
        <time>2014-03-19T16:06:57Z</time>
      </trkpt>
      <trkpt lat="46.34699" lon="5.38038">
        <ele>505.2</ele>
        <time>2014-03-19T16:07:02Z</time>
      </trkpt>
      <trkpt lat="46.34686" lon="5.38059">
        <ele>504</ele>
        <time>2014-03-19T16:07:08Z</time>
      </trkpt>
      <trkpt lat="46.3467" lon="5.38077">
        <ele>503</ele>
        <time>2014-03-19T16:07:14Z</time>
      </trkpt>
      <trkpt lat="46.34653" lon="5.3809">
        <ele>501.8</ele>
        <time>2014-03-19T16:07:20Z</time>
      </trkpt>
      <trkpt lat="46.34638" lon="5.38108">
        <ele>500.6</ele>
        <time>2014-03-19T16:07:26Z</time>
      </trkpt>
      <trkpt lat="46.34623" lon="5.38129">
        <ele>499.4</ele>
        <time>2014-03-19T16:07:32Z</time>
      </trkpt>
      <trkpt lat="46.3461" lon="5.38153">
        <ele>498.2</ele>
        <time>2014-03-19T16:07:38Z</time>
      </trkpt>
      <trkpt lat="46.346" lon="5.38173">
        <ele>497.2</ele>
        <time>2014-03-19T16:07:43Z</time>
      </trkpt>
      <trkpt lat="46.34593" lon="5.38194">
        <ele>496</ele>
        <time>2014-03-19T16:07:48Z</time>
      </trkpt>
      <trkpt lat="46.34591" lon="5.38216">
        <ele>495</ele>
        <time>2014-03-19T16:07:53Z</time>
      </trkpt>
      <trkpt lat="46.34589" lon="5.38239">
        <ele>493.8</ele>
        <time>2014-03-19T16:07:58Z</time>
      </trkpt>
      <trkpt lat="46.34592" lon="5.38263">
        <ele>492.6</ele>
        <time>2014-03-19T16:08:03Z</time>
      </trkpt>
      <trkpt lat="46.34593" lon="5.38291">
        <ele>491.2</ele>
        <time>2014-03-19T16:08:09Z</time>
      </trkpt>
      <trkpt lat="46.34591" lon="5.38321">
        <ele>489.6</ele>
        <time>2014-03-19T16:08:15Z</time>
      </trkpt>
      <trkpt lat="46.3459" lon="5.38326">
        <ele>489.4</ele>
        <time>2014-03-19T16:08:16Z</time>
      </trkpt>
      <trkpt lat="46.34587" lon="5.38351">
        <ele>488.2</ele>
        <time>2014-03-19T16:08:21Z</time>
      </trkpt>
      <trkpt lat="46.34587" lon="5.38356">
        <ele>487.8</ele>
        <time>2014-03-19T16:08:22Z</time>
      </trkpt>
      <trkpt lat="46.34584" lon="5.3838">
        <ele>486.6</ele>
        <time>2014-03-19T16:08:27Z</time>
      </trkpt>
      <trkpt lat="46.34583" lon="5.38405">
        <ele>485.4</ele>
        <time>2014-03-19T16:08:32Z</time>
      </trkpt>
      <trkpt lat="46.34585" lon="5.38435">
        <ele>483.8</ele>
        <time>2014-03-19T16:08:38Z</time>
      </trkpt>
      <trkpt lat="46.34584" lon="5.38457">
        <ele>482.8</ele>
        <time>2014-03-19T16:08:42Z</time>
      </trkpt>
      <trkpt lat="46.34581" lon="5.38482">
        <ele>481.4</ele>
        <time>2014-03-19T16:08:47Z</time>
      </trkpt>
      <trkpt lat="46.34574" lon="5.38512">
        <ele>480</ele>
        <time>2014-03-19T16:08:53Z</time>
      </trkpt>
      <trkpt lat="46.34567" lon="5.38537">
        <ele>478.8</ele>
        <time>2014-03-19T16:08:58Z</time>
      </trkpt>
      <trkpt lat="46.34567" lon="5.38541">
        <ele>478.4</ele>
        <time>2014-03-19T16:08:59Z</time>
      </trkpt>
      <trkpt lat="46.34562" lon="5.38562">
        <ele>477.2</ele>
        <time>2014-03-19T16:09:04Z</time>
      </trkpt>
      <trkpt lat="46.3456" lon="5.38563">
        <ele>476.4</ele>
        <time>2014-03-19T16:09:07Z</time>
      </trkpt>
      <trkpt lat="46.3456" lon="5.38567">
        <ele>476.2</ele>
        <time>2014-03-19T16:09:08Z</time>
      </trkpt>
      <trkpt lat="46.34559" lon="5.38581">
        <ele>475.4</ele>
        <time>2014-03-19T16:09:11Z</time>
      </trkpt>
      <trkpt lat="46.34555" lon="5.38611">
        <ele>473.8</ele>
        <time>2014-03-19T16:09:17Z</time>
      </trkpt>
      <trkpt lat="46.34554" lon="5.38616">
        <ele>473.6</ele>
        <time>2014-03-19T16:09:18Z</time>
      </trkpt>
      <trkpt lat="46.3455" lon="5.38641">
        <ele>472.4</ele>
        <time>2014-03-19T16:09:23Z</time>
      </trkpt>
      <trkpt lat="46.34549" lon="5.38663">
        <ele>471.2</ele>
        <time>2014-03-19T16:09:27Z</time>
      </trkpt>
      <trkpt lat="46.34552" lon="5.38688">
        <ele>470</ele>
        <time>2014-03-19T16:09:32Z</time>
      </trkpt>
      <trkpt lat="46.34561" lon="5.38708">
        <ele>468.8</ele>
        <time>2014-03-19T16:09:37Z</time>
      </trkpt>
      <trkpt lat="46.34573" lon="5.3873">
        <ele>467.4</ele>
        <time>2014-03-19T16:09:42Z</time>
      </trkpt>
      <trkpt lat="46.34581" lon="5.38753">
        <ele>466.2</ele>
        <time>2014-03-19T16:09:47Z</time>
      </trkpt>
      <trkpt lat="46.34581" lon="5.38783">
        <ele>464.6</ele>
        <time>2014-03-19T16:09:53Z</time>
      </trkpt>
      <trkpt lat="46.34581" lon="5.38787">
        <ele>464.4</ele>
        <time>2014-03-19T16:09:54Z</time>
      </trkpt>
      <trkpt lat="46.34584" lon="5.38817">
        <ele>462.8</ele>
        <time>2014-03-19T16:10:00Z</time>
      </trkpt>
      <trkpt lat="46.34591" lon="5.38843">
        <ele>461</ele>
        <time>2014-03-19T16:10:06Z</time>
      </trkpt>
      <trkpt lat="46.34601" lon="5.38858">
        <ele>459.8</ele>
        <time>2014-03-19T16:10:11Z</time>
      </trkpt>
      <trkpt lat="46.34606" lon="5.38873">
        <ele>458.4</ele>
        <time>2014-03-19T16:10:16Z</time>
      </trkpt>
      <trkpt lat="46.34604" lon="5.38875">
        <ele>458.2</ele>
        <time>2014-03-19T16:10:17Z</time>
      </trkpt>
      <trkpt lat="46.34592" lon="5.38881">
        <ele>457</ele>
        <time>2014-03-19T16:10:21Z</time>
      </trkpt>
      <trkpt lat="46.34578" lon="5.38882">
        <ele>456</ele>
        <time>2014-03-19T16:10:25Z</time>
      </trkpt>
      <trkpt lat="46.34575" lon="5.38882">
        <ele>455.8</ele>
        <time>2014-03-19T16:10:26Z</time>
      </trkpt>
      <trkpt lat="46.34556" lon="5.38879">
        <ele>454</ele>
        <time>2014-03-19T16:10:33Z</time>
      </trkpt>
      <trkpt lat="46.34542" lon="5.38879">
        <ele>452.6</ele>
        <time>2014-03-19T16:10:39Z</time>
      </trkpt>
      <trkpt lat="46.34523" lon="5.38886">
        <ele>451.2</ele>
        <time>2014-03-19T16:10:46Z</time>
      </trkpt>
      <trkpt lat="46.34509" lon="5.38896">
        <ele>450</ele>
        <time>2014-03-19T16:10:52Z</time>
      </trkpt>
      <trkpt lat="46.34497" lon="5.38905">
        <ele>449</ele>
        <time>2014-03-19T16:10:57Z</time>
      </trkpt>
      <trkpt lat="46.3448" lon="5.38917">
        <ele>448</ele>
        <time>2014-03-19T16:11:03Z</time>
      </trkpt>
      <trkpt lat="46.34466" lon="5.38926">
        <ele>447.2</ele>
        <time>2014-03-19T16:11:08Z</time>
      </trkpt>
      <trkpt lat="46.34449" lon="5.38937">
        <ele>446.4</ele>
        <time>2014-03-19T16:11:14Z</time>
      </trkpt>
      <trkpt lat="46.34446" lon="5.38939">
        <ele>446.2</ele>
        <time>2014-03-19T16:11:15Z</time>
      </trkpt>
      <trkpt lat="46.34432" lon="5.38948">
        <ele>445.6</ele>
        <time>2014-03-19T16:11:20Z</time>
      </trkpt>
      <trkpt lat="46.34413" lon="5.38959">
        <ele>444.8</ele>
        <time>2014-03-19T16:11:27Z</time>
      </trkpt>
      <trkpt lat="46.34395" lon="5.38972">
        <ele>444</ele>
        <time>2014-03-19T16:11:34Z</time>
      </trkpt>
      <trkpt lat="46.34393" lon="5.38973">
        <ele>444</ele>
        <time>2014-03-19T16:11:35Z</time>
      </trkpt>
      <trkpt lat="46.34392" lon="5.38983">
        <ele>443.8</ele>
        <time>2014-03-19T16:11:38Z</time>
      </trkpt>
      <trkpt lat="46.34393" lon="5.38986">
        <ele>443.6</ele>
        <time>2014-03-19T16:11:39Z</time>
      </trkpt>
      <trkpt lat="46.34401" lon="5.39004">
        <ele>443.2</ele>
        <time>2014-03-19T16:11:44Z</time>
      </trkpt>
      <trkpt lat="46.34408" lon="5.39025">
        <ele>442.8</ele>
        <time>2014-03-19T16:11:50Z</time>
      </trkpt>
      <trkpt lat="46.34413" lon="5.39043">
        <ele>442.4</ele>
        <time>2014-03-19T16:11:55Z</time>
      </trkpt>
      <trkpt lat="46.34424" lon="5.39062">
        <ele>442</ele>
        <time>2014-03-19T16:12:01Z</time>
      </trkpt>
      <trkpt lat="46.34439" lon="5.39075">
        <ele>441.6</ele>
        <time>2014-03-19T16:12:07Z</time>
      </trkpt>
      <trkpt lat="46.34453" lon="5.39087">
        <ele>441.4</ele>
        <time>2014-03-19T16:12:12Z</time>
      </trkpt>
      <trkpt lat="46.34469" lon="5.39105">
        <ele>441.2</ele>
        <time>2014-03-19T16:12:18Z</time>
      </trkpt>
      <trkpt lat="46.34476" lon="5.39123">
        <ele>441</ele>
        <time>2014-03-19T16:12:23Z</time>
      </trkpt>
      <trkpt lat="46.34484" lon="5.39146">
        <ele>440.6</ele>
        <time>2014-03-19T16:12:29Z</time>
      </trkpt>
      <trkpt lat="46.34493" lon="5.39171">
        <ele>440.4</ele>
        <time>2014-03-19T16:12:35Z</time>
      </trkpt>
      <trkpt lat="46.34496" lon="5.392">
        <ele>440.2</ele>
        <time>2014-03-19T16:12:41Z</time>
      </trkpt>
      <trkpt lat="46.34492" lon="5.39228">
        <ele>440.2</ele>
        <time>2014-03-19T16:12:47Z</time>
      </trkpt>
      <trkpt lat="46.34483" lon="5.3925">
        <ele>440</ele>
        <time>2014-03-19T16:12:52Z</time>
      </trkpt>
      <trkpt lat="46.3447" lon="5.39266">
        <ele>439.8</ele>
        <time>2014-03-19T16:12:57Z</time>
      </trkpt>
      <trkpt lat="46.34457" lon="5.39278">
        <ele>439.6</ele>
        <time>2014-03-19T16:13:01Z</time>
      </trkpt>
      <trkpt lat="46.34441" lon="5.3929">
        <ele>439.4</ele>
        <time>2014-03-19T16:13:06Z</time>
      </trkpt>
      <trkpt lat="46.34435" lon="5.39294">
        <ele>439.4</ele>
        <time>2014-03-19T16:13:08Z</time>
      </trkpt>
      <trkpt lat="46.34422" lon="5.39304">
        <ele>439.2</ele>
        <time>2014-03-19T16:13:13Z</time>
      </trkpt>
      <trkpt lat="46.34409" lon="5.39309">
        <ele>438.8</ele>
        <time>2014-03-19T16:13:18Z</time>
      </trkpt>
      <trkpt lat="46.34408" lon="5.39308">
        <ele>438.8</ele>
        <time>2014-03-19T16:13:19Z</time>
      </trkpt>
      <trkpt lat="46.34406" lon="5.39309">
        <ele>438.8</ele>
        <time>2014-03-19T16:13:21Z</time>
      </trkpt>
      <trkpt lat="46.34404" lon="5.39309">
        <ele>438.6</ele>
        <time>2014-03-19T16:13:24Z</time>
      </trkpt>
      <trkpt lat="46.34404" lon="5.39309">
        <ele>438.6</ele>
        <time>2014-03-19T16:13:25Z</time>
      </trkpt>
      <trkpt lat="46.34397" lon="5.3931">
        <ele>437.4</ele>
        <time>2014-03-19T16:13:52Z</time>
      </trkpt>
      <trkpt lat="46.34391" lon="5.39316">
        <ele>437.2</ele>
        <time>2014-03-19T16:13:57Z</time>
      </trkpt>
      <trkpt lat="46.34378" lon="5.39324">
        <ele>437</ele>
        <time>2014-03-19T16:14:03Z</time>
      </trkpt>
      <trkpt lat="46.34367" lon="5.39333">
        <ele>436.8</ele>
        <time>2014-03-19T16:14:08Z</time>
      </trkpt>
      <trkpt lat="46.34354" lon="5.39343">
        <ele>436.6</ele>
        <time>2014-03-19T16:14:13Z</time>
      </trkpt>
      <trkpt lat="46.34345" lon="5.3935">
        <ele>436.4</ele>
        <time>2014-03-19T16:14:17Z</time>
      </trkpt>
      <trkpt lat="46.34333" lon="5.3936">
        <ele>436.2</ele>
        <time>2014-03-19T16:14:22Z</time>
      </trkpt>
      <trkpt lat="46.34321" lon="5.39369">
        <ele>435.8</ele>
        <time>2014-03-19T16:14:27Z</time>
      </trkpt>
      <trkpt lat="46.34302" lon="5.39379">
        <ele>435.4</ele>
        <time>2014-03-19T16:14:35Z</time>
      </trkpt>
      <trkpt lat="46.34289" lon="5.39387">
        <ele>435</ele>
        <time>2014-03-19T16:14:41Z</time>
      </trkpt>
      <trkpt lat="46.34279" lon="5.39395">
        <ele>434.8</ele>
        <time>2014-03-19T16:14:46Z</time>
      </trkpt>
      <trkpt lat="46.3427" lon="5.39403">
        <ele>434.6</ele>
        <time>2014-03-19T16:14:51Z</time>
      </trkpt>
      <trkpt lat="46.34266" lon="5.39408">
        <ele>434.4</ele>
        <time>2014-03-19T16:14:55Z</time>
      </trkpt>
      <trkpt lat="46.34259" lon="5.39413">
        <ele>434.2</ele>
        <time>2014-03-19T16:15:00Z</time>
      </trkpt>
      <trkpt lat="46.3425" lon="5.39418">
        <ele>434.2</ele>
        <time>2014-03-19T16:15:06Z</time>
      </trkpt>
      <trkpt lat="46.34248" lon="5.39418">
        <ele>434</ele>
        <time>2014-03-19T16:15:07Z</time>
      </trkpt>
      <trkpt lat="46.34243" lon="5.3942">
        <ele>434</ele>
        <time>2014-03-19T16:15:11Z</time>
      </trkpt>
      <trkpt lat="46.34237" lon="5.39425">
        <ele>434</ele>
        <time>2014-03-19T16:15:16Z</time>
      </trkpt>
      <trkpt lat="46.34235" lon="5.39426">
        <ele>434</ele>
        <time>2014-03-19T16:15:17Z</time>
      </trkpt>
      <trkpt lat="46.34228" lon="5.39429">
        <ele>434</ele>
        <time>2014-03-19T16:15:22Z</time>
      </trkpt>
      <trkpt lat="46.34221" lon="5.39435">
        <ele>434</ele>
        <time>2014-03-19T16:15:28Z</time>
      </trkpt>
      <trkpt lat="46.34213" lon="5.3944">
        <ele>434.2</ele>
        <time>2014-03-19T16:15:34Z</time>
      </trkpt>
      <trkpt lat="46.34208" lon="5.39443">
        <ele>434.6</ele>
        <time>2014-03-19T16:15:38Z</time>
      </trkpt>
      <trkpt lat="46.34204" lon="5.39445">
        <ele>434.8</ele>
        <time>2014-03-19T16:15:41Z</time>
      </trkpt>
      <trkpt lat="46.34203" lon="5.39446">
        <ele>435</ele>
        <time>2014-03-19T16:15:42Z</time>
      </trkpt>
      <trkpt lat="46.34197" lon="5.39451">
        <ele>435.6</ele>
        <time>2014-03-19T16:15:47Z</time>
      </trkpt>
      <trkpt lat="46.34192" lon="5.39456">
        <ele>436.4</ele>
        <time>2014-03-19T16:15:53Z</time>
      </trkpt>
      <trkpt lat="46.34191" lon="5.39456">
        <ele>436.6</ele>
        <time>2014-03-19T16:15:54Z</time>
      </trkpt>
      <trkpt lat="46.34187" lon="5.39456">
        <ele>437</ele>
        <time>2014-03-19T16:15:57Z</time>
      </trkpt>
      <trkpt lat="46.34184" lon="5.39455">
        <ele>437.4</ele>
        <time>2014-03-19T16:15:59Z</time>
      </trkpt>
      <trkpt lat="46.34176" lon="5.39457">
        <ele>438.8</ele>
        <time>2014-03-19T16:16:06Z</time>
      </trkpt>
      <trkpt lat="46.34167" lon="5.39459">
        <ele>440</ele>
        <time>2014-03-19T16:16:12Z</time>
      </trkpt>
      <trkpt lat="46.34164" lon="5.3946">
        <ele>440.8</ele>
        <time>2014-03-19T16:16:15Z</time>
      </trkpt>
      <trkpt lat="46.34162" lon="5.39461">
        <ele>441.2</ele>
        <time>2014-03-19T16:16:17Z</time>
      </trkpt>
      <trkpt lat="46.34157" lon="5.39464">
        <ele>442.6</ele>
        <time>2014-03-19T16:16:22Z</time>
      </trkpt>
      <trkpt lat="46.34153" lon="5.39467">
        <ele>443.2</ele>
        <time>2014-03-19T16:16:25Z</time>
      </trkpt>
      <trkpt lat="46.34151" lon="5.39469">
        <ele>443.8</ele>
        <time>2014-03-19T16:16:27Z</time>
      </trkpt>
      <trkpt lat="46.34147" lon="5.39471">
        <ele>444.8</ele>
        <time>2014-03-19T16:16:30Z</time>
      </trkpt>
      <trkpt lat="46.3414" lon="5.39476">
        <ele>446.4</ele>
        <time>2014-03-19T16:16:36Z</time>
      </trkpt>
      <trkpt lat="46.34135" lon="5.39477">
        <ele>447.6</ele>
        <time>2014-03-19T16:16:40Z</time>
      </trkpt>
      <trkpt lat="46.34128" lon="5.39476">
        <ele>449.2</ele>
        <time>2014-03-19T16:16:46Z</time>
      </trkpt>
      <trkpt lat="46.3412" lon="5.39481">
        <ele>451.2</ele>
        <time>2014-03-19T16:16:53Z</time>
      </trkpt>
      <trkpt lat="46.34119" lon="5.39485">
        <ele>452</ele>
        <time>2014-03-19T16:16:56Z</time>
      </trkpt>
      <trkpt lat="46.3412" lon="5.39487">
        <ele>452.6</ele>
        <time>2014-03-19T16:16:58Z</time>
      </trkpt>
      <trkpt lat="46.3412" lon="5.39489">
        <ele>453.2</ele>
        <time>2014-03-19T16:17:00Z</time>
      </trkpt>
      <trkpt lat="46.34118" lon="5.3949">
        <ele>453.6</ele>
        <time>2014-03-19T16:17:02Z</time>
      </trkpt>
      <trkpt lat="46.34113" lon="5.39495">
        <ele>454.8</ele>
        <time>2014-03-19T16:17:07Z</time>
      </trkpt>
      <trkpt lat="46.34112" lon="5.39493">
        <ele>455</ele>
        <time>2014-03-19T16:17:08Z</time>
      </trkpt>
      <trkpt lat="46.34107" lon="5.39496">
        <ele>456</ele>
        <time>2014-03-19T16:17:13Z</time>
      </trkpt>
      <trkpt lat="46.34105" lon="5.39497">
        <ele>456.6</ele>
        <time>2014-03-19T16:17:15Z</time>
      </trkpt>
      <trkpt lat="46.34103" lon="5.395">
        <ele>457.2</ele>
        <time>2014-03-19T16:17:18Z</time>
      </trkpt>
      <trkpt lat="46.34103" lon="5.39501">
        <ele>457.4</ele>
        <time>2014-03-19T16:17:19Z</time>
      </trkpt>
      <trkpt lat="46.34102" lon="5.39508">
        <ele>458.2</ele>
        <time>2014-03-19T16:17:23Z</time>
      </trkpt>
      <trkpt lat="46.34098" lon="5.39511">
        <ele>459.2</ele>
        <time>2014-03-19T16:17:27Z</time>
      </trkpt>
      <trkpt lat="46.34098" lon="5.3951">
        <ele>459.4</ele>
        <time>2014-03-19T16:17:28Z</time>
      </trkpt>
      <trkpt lat="46.34096" lon="5.39514">
        <ele>460.6</ele>
        <time>2014-03-19T16:17:33Z</time>
      </trkpt>
      <trkpt lat="46.34095" lon="5.39515">
        <ele>460.8</ele>
        <time>2014-03-19T16:17:34Z</time>
      </trkpt>
      <trkpt lat="46.34096" lon="5.3952">
        <ele>461.8</ele>
        <time>2014-03-19T16:17:38Z</time>
      </trkpt>
      <trkpt lat="46.34097" lon="5.39522">
        <ele>462.2</ele>
        <time>2014-03-19T16:17:39Z</time>
      </trkpt>
      <trkpt lat="46.34097" lon="5.39526">
        <ele>462.8</ele>
        <time>2014-03-19T16:17:42Z</time>
      </trkpt>
      <trkpt lat="46.34092" lon="5.3953">
        <ele>463.8</ele>
        <time>2014-03-19T16:17:46Z</time>
      </trkpt>
      <trkpt lat="46.3409" lon="5.39532">
        <ele>464.2</ele>
        <time>2014-03-19T16:17:48Z</time>
      </trkpt>
      <trkpt lat="46.34089" lon="5.39534">
        <ele>464.6</ele>
        <time>2014-03-19T16:17:50Z</time>
      </trkpt>
      <trkpt lat="46.34087" lon="5.39535">
        <ele>465</ele>
        <time>2014-03-19T16:17:52Z</time>
      </trkpt>
      <trkpt lat="46.34083" lon="5.3954">
        <ele>466.4</ele>
        <time>2014-03-19T16:17:58Z</time>
      </trkpt>
      <trkpt lat="46.34079" lon="5.39545">
        <ele>467.4</ele>
        <time>2014-03-19T16:18:03Z</time>
      </trkpt>
      <trkpt lat="46.34079" lon="5.39547">
        <ele>467.6</ele>
        <time>2014-03-19T16:18:04Z</time>
      </trkpt>
      <trkpt lat="46.34078" lon="5.39548">
        <ele>467.8</ele>
        <time>2014-03-19T16:18:05Z</time>
      </trkpt>
      <trkpt lat="46.34074" lon="5.39552">
        <ele>468.6</ele>
        <time>2014-03-19T16:18:09Z</time>
      </trkpt>
      <trkpt lat="46.34071" lon="5.39553">
        <ele>469.2</ele>
        <time>2014-03-19T16:18:11Z</time>
      </trkpt>
      <trkpt lat="46.34068" lon="5.39557">
        <ele>470</ele>
        <time>2014-03-19T16:18:15Z</time>
      </trkpt>
      <trkpt lat="46.34066" lon="5.39558">
        <ele>470.2</ele>
        <time>2014-03-19T16:18:16Z</time>
      </trkpt>
      <trkpt lat="46.34065" lon="5.39559">
        <ele>470.8</ele>
        <time>2014-03-19T16:18:18Z</time>
      </trkpt>
      <trkpt lat="46.34061" lon="5.39561">
        <ele>471.6</ele>
        <time>2014-03-19T16:18:21Z</time>
      </trkpt>
      <trkpt lat="46.34061" lon="5.39563">
        <ele>471.8</ele>
        <time>2014-03-19T16:18:22Z</time>
      </trkpt>
      <trkpt lat="46.34058" lon="5.39567">
        <ele>472.8</ele>
        <time>2014-03-19T16:18:26Z</time>
      </trkpt>
      <trkpt lat="46.34062" lon="5.39568">
        <ele>473.6</ele>
        <time>2014-03-19T16:18:29Z</time>
      </trkpt>
      <trkpt lat="46.34071" lon="5.39567">
        <ele>474.6</ele>
        <time>2014-03-19T16:18:34Z</time>
      </trkpt>
      <trkpt lat="46.3408" lon="5.39557">
        <ele>475.2</ele>
        <time>2014-03-19T16:18:39Z</time>
      </trkpt>
      <trkpt lat="46.34086" lon="5.39552">
        <ele>475.2</ele>
        <time>2014-03-19T16:18:42Z</time>
      </trkpt>
      <trkpt lat="46.34091" lon="5.39544">
        <ele>475</ele>
        <time>2014-03-19T16:18:45Z</time>
      </trkpt>
      <trkpt lat="46.34095" lon="5.39541">
        <ele>475</ele>
        <time>2014-03-19T16:18:47Z</time>
      </trkpt>
      <trkpt lat="46.34101" lon="5.39535">
        <ele>475</ele>
        <time>2014-03-19T16:18:50Z</time>
      </trkpt>
      <trkpt lat="46.34112" lon="5.39527">
        <ele>474.6</ele>
        <time>2014-03-19T16:18:55Z</time>
      </trkpt>
      <trkpt lat="46.34116" lon="5.39526">
        <ele>474.4</ele>
        <time>2014-03-19T16:18:58Z</time>
      </trkpt>
      <trkpt lat="46.34116" lon="5.39528">
        <ele>474.4</ele>
        <time>2014-03-19T16:18:59Z</time>
      </trkpt>
      <trkpt lat="46.34116" lon="5.39527">
        <ele>474.2</ele>
        <time>2014-03-19T16:19:04Z</time>
      </trkpt>
      <trkpt lat="46.34116" lon="5.39528">
        <ele>474</ele>
        <time>2014-03-19T16:19:08Z</time>
      </trkpt>
      <trkpt lat="46.34117" lon="5.39531">
        <ele>473.6</ele>
        <time>2014-03-19T16:19:18Z</time>
      </trkpt>
      <trkpt lat="46.34119" lon="5.39536">
        <ele>473.4</ele>
        <time>2014-03-19T16:19:20Z</time>
      </trkpt>
      <trkpt lat="46.34121" lon="5.39545">
        <ele>473.4</ele>
        <time>2014-03-19T16:19:25Z</time>
      </trkpt>
      <trkpt lat="46.34122" lon="5.39556">
        <ele>473.4</ele>
        <time>2014-03-19T16:19:29Z</time>
      </trkpt>
      <trkpt lat="46.34125" lon="5.39567">
        <ele>473.2</ele>
        <time>2014-03-19T16:19:33Z</time>
      </trkpt>
      <trkpt lat="46.3413" lon="5.39586">
        <ele>473.2</ele>
        <time>2014-03-19T16:19:39Z</time>
      </trkpt>
      <trkpt lat="46.34134" lon="5.39599">
        <ele>473.4</ele>
        <time>2014-03-19T16:19:44Z</time>
      </trkpt>
      <trkpt lat="46.34134" lon="5.39601">
        <ele>473.4</ele>
        <time>2014-03-19T16:19:45Z</time>
      </trkpt>
      <trkpt lat="46.34134" lon="5.39606">
        <ele>473.4</ele>
        <time>2014-03-19T16:19:47Z</time>
      </trkpt>
      <trkpt lat="46.34134" lon="5.39611">
        <ele>473.6</ele>
        <time>2014-03-19T16:19:49Z</time>
      </trkpt>
      <trkpt lat="46.34137" lon="5.39624">
        <ele>474.2</ele>
        <time>2014-03-19T16:19:54Z</time>
      </trkpt>
      <trkpt lat="46.34138" lon="5.3964">
        <ele>475</ele>
        <time>2014-03-19T16:19:59Z</time>
      </trkpt>
      <trkpt lat="46.34138" lon="5.39647">
        <ele>475.2</ele>
        <time>2014-03-19T16:20:01Z</time>
      </trkpt>
      <trkpt lat="46.3414" lon="5.39655">
        <ele>475.6</ele>
        <time>2014-03-19T16:20:03Z</time>
      </trkpt>
      <trkpt lat="46.34143" lon="5.39665">
        <ele>476.2</ele>
        <time>2014-03-19T16:20:07Z</time>
      </trkpt>
      <trkpt lat="46.34143" lon="5.39674">
        <ele>476.6</ele>
        <time>2014-03-19T16:20:10Z</time>
      </trkpt>
      <trkpt lat="46.34143" lon="5.39677">
        <ele>476.8</ele>
        <time>2014-03-19T16:20:11Z</time>
      </trkpt>
      <trkpt lat="46.34145" lon="5.39686">
        <ele>477.4</ele>
        <time>2014-03-19T16:20:15Z</time>
      </trkpt>
      <trkpt lat="46.34145" lon="5.39691">
        <ele>477.8</ele>
        <time>2014-03-19T16:20:17Z</time>
      </trkpt>
      <trkpt lat="46.34144" lon="5.39697">
        <ele>478.2</ele>
        <time>2014-03-19T16:20:19Z</time>
      </trkpt>
      <trkpt lat="46.34145" lon="5.39708">
        <ele>479.6</ele>
        <time>2014-03-19T16:20:24Z</time>
      </trkpt>
      <trkpt lat="46.34146" lon="5.39719">
        <ele>480.8</ele>
        <time>2014-03-19T16:20:29Z</time>
      </trkpt>
      <trkpt lat="46.34147" lon="5.39723">
        <ele>481.4</ele>
        <time>2014-03-19T16:20:31Z</time>
      </trkpt>
      <trkpt lat="46.34146" lon="5.39725">
        <ele>481.6</ele>
        <time>2014-03-19T16:20:32Z</time>
      </trkpt>
      <trkpt lat="46.34146" lon="5.39727">
        <ele>482.2</ele>
        <time>2014-03-19T16:20:34Z</time>
      </trkpt>
      <trkpt lat="46.34146" lon="5.39734">
        <ele>483.2</ele>
        <time>2014-03-19T16:20:38Z</time>
      </trkpt>
      <trkpt lat="46.34147" lon="5.39737">
        <ele>483.4</ele>
        <time>2014-03-19T16:20:39Z</time>
      </trkpt>
      <trkpt lat="46.34148" lon="5.39748">
        <ele>484.8</ele>
        <time>2014-03-19T16:20:44Z</time>
      </trkpt>
      <trkpt lat="46.3415" lon="5.39758">
        <ele>486.2</ele>
        <time>2014-03-19T16:20:49Z</time>
      </trkpt>
      <trkpt lat="46.34153" lon="5.39764">
        <ele>487.6</ele>
        <time>2014-03-19T16:20:54Z</time>
      </trkpt>
      <trkpt lat="46.34154" lon="5.39766">
        <ele>488</ele>
        <time>2014-03-19T16:20:55Z</time>
      </trkpt>
      <trkpt lat="46.34156" lon="5.39772">
        <ele>489.4</ele>
        <time>2014-03-19T16:20:59Z</time>
      </trkpt>
      <trkpt lat="46.34157" lon="5.39776">
        <ele>490.2</ele>
        <time>2014-03-19T16:21:01Z</time>
      </trkpt>
      <trkpt lat="46.34161" lon="5.39784">
        <ele>491.2</ele>
        <time>2014-03-19T16:21:04Z</time>
      </trkpt>
      <trkpt lat="46.34167" lon="5.39794">
        <ele>492.6</ele>
        <time>2014-03-19T16:21:09Z</time>
      </trkpt>
      <trkpt lat="46.34169" lon="5.39799">
        <ele>493.2</ele>
        <time>2014-03-19T16:21:11Z</time>
      </trkpt>
      <trkpt lat="46.3417" lon="5.39802">
        <ele>493.6</ele>
        <time>2014-03-19T16:21:12Z</time>
      </trkpt>
      <trkpt lat="46.3417" lon="5.39808">
        <ele>494.2</ele>
        <time>2014-03-19T16:21:14Z</time>
      </trkpt>
      <trkpt lat="46.34172" lon="5.39812">
        <ele>494.8</ele>
        <time>2014-03-19T16:21:16Z</time>
      </trkpt>
      <trkpt lat="46.34175" lon="5.39816">
        <ele>495.4</ele>
        <time>2014-03-19T16:21:18Z</time>
      </trkpt>
      <trkpt lat="46.34178" lon="5.39823">
        <ele>496.6</ele>
        <time>2014-03-19T16:21:22Z</time>
      </trkpt>
      <trkpt lat="46.3418" lon="5.39825">
        <ele>497</ele>
        <time>2014-03-19T16:21:23Z</time>
      </trkpt>
      <trkpt lat="46.34182" lon="5.39827">
        <ele>497.2</ele>
        <time>2014-03-19T16:21:24Z</time>
      </trkpt>
      <trkpt lat="46.34182" lon="5.39828">
        <ele>497.4</ele>
        <time>2014-03-19T16:21:25Z</time>
      </trkpt>
      <trkpt lat="46.34184" lon="5.39834">
        <ele>498.4</ele>
        <time>2014-03-19T16:21:28Z</time>
      </trkpt>
      <trkpt lat="46.3419" lon="5.39848">
        <ele>500</ele>
        <time>2014-03-19T16:21:34Z</time>
      </trkpt>
      <trkpt lat="46.34195" lon="5.39856">
        <ele>501.2</ele>
        <time>2014-03-19T16:21:38Z</time>
      </trkpt>
      <trkpt lat="46.34197" lon="5.39865">
        <ele>502.4</ele>
        <time>2014-03-19T16:21:42Z</time>
      </trkpt>
      <trkpt lat="46.34201" lon="5.39872">
        <ele>503.8</ele>
        <time>2014-03-19T16:21:46Z</time>
      </trkpt>
      <trkpt lat="46.34202" lon="5.39876">
        <ele>504.4</ele>
        <time>2014-03-19T16:21:48Z</time>
      </trkpt>
      <trkpt lat="46.34205" lon="5.39885">
        <ele>505.8</ele>
        <time>2014-03-19T16:21:52Z</time>
      </trkpt>
      <trkpt lat="46.34206" lon="5.39887">
        <ele>506</ele>
        <time>2014-03-19T16:21:53Z</time>
      </trkpt>
      <trkpt lat="46.34212" lon="5.39897">
        <ele>507.4</ele>
        <time>2014-03-19T16:21:57Z</time>
      </trkpt>
      <trkpt lat="46.34219" lon="5.39911">
        <ele>508.8</ele>
        <time>2014-03-19T16:22:01Z</time>
      </trkpt>
      <trkpt lat="46.3422" lon="5.39913">
        <ele>509</ele>
        <time>2014-03-19T16:22:02Z</time>
      </trkpt>
      <trkpt lat="46.34223" lon="5.39928">
        <ele>510</ele>
        <time>2014-03-19T16:22:06Z</time>
      </trkpt>
      <trkpt lat="46.34225" lon="5.39936">
        <ele>510.8</ele>
        <time>2014-03-19T16:22:10Z</time>
      </trkpt>
      <trkpt lat="46.34226" lon="5.39939">
        <ele>511.4</ele>
        <time>2014-03-19T16:22:13Z</time>
      </trkpt>
      <trkpt lat="46.34226" lon="5.39941">
        <ele>511.8</ele>
        <time>2014-03-19T16:22:15Z</time>
      </trkpt>
      <trkpt lat="46.34227" lon="5.39944">
        <ele>512.2</ele>
        <time>2014-03-19T16:22:17Z</time>
      </trkpt>
      <trkpt lat="46.3423" lon="5.39947">
        <ele>512.8</ele>
        <time>2014-03-19T16:22:20Z</time>
      </trkpt>
      <trkpt lat="46.34233" lon="5.39951">
        <ele>513.4</ele>
        <time>2014-03-19T16:22:23Z</time>
      </trkpt>
      <trkpt lat="46.34233" lon="5.39952">
        <ele>513.6</ele>
        <time>2014-03-19T16:22:24Z</time>
      </trkpt>
      <trkpt lat="46.34233" lon="5.39956">
        <ele>514.2</ele>
        <time>2014-03-19T16:22:27Z</time>
      </trkpt>
      <trkpt lat="46.34233" lon="5.39957">
        <ele>514.2</ele>
        <time>2014-03-19T16:22:28Z</time>
      </trkpt>
      <trkpt lat="46.34235" lon="5.39967">
        <ele>515.2</ele>
        <time>2014-03-19T16:22:33Z</time>
      </trkpt>
      <trkpt lat="46.34243" lon="5.39981">
        <ele>516</ele>
        <time>2014-03-19T16:22:38Z</time>
      </trkpt>
      <trkpt lat="46.34244" lon="5.39983">
        <ele>516.4</ele>
        <time>2014-03-19T16:22:40Z</time>
      </trkpt>
      <trkpt lat="46.34245" lon="5.39983">
        <ele>516.6</ele>
        <time>2014-03-19T16:22:41Z</time>
      </trkpt>
      <trkpt lat="46.34245" lon="5.39985">
        <ele>517</ele>
        <time>2014-03-19T16:22:43Z</time>
      </trkpt>
      <trkpt lat="46.34246" lon="5.39989">
        <ele>517.4</ele>
        <time>2014-03-19T16:22:46Z</time>
      </trkpt>
      <trkpt lat="46.34249" lon="5.40003">
        <ele>518</ele>
        <time>2014-03-19T16:22:50Z</time>
      </trkpt>
      <trkpt lat="46.34254" lon="5.40017">
        <ele>518.6</ele>
        <time>2014-03-19T16:22:54Z</time>
      </trkpt>
      <trkpt lat="46.34256" lon="5.40021">
        <ele>518.8</ele>
        <time>2014-03-19T16:22:55Z</time>
      </trkpt>
      <trkpt lat="46.34257" lon="5.40036">
        <ele>519.4</ele>
        <time>2014-03-19T16:22:59Z</time>
      </trkpt>
      <trkpt lat="46.34257" lon="5.40053">
        <ele>520</ele>
        <time>2014-03-19T16:23:03Z</time>
      </trkpt>
      <trkpt lat="46.34257" lon="5.4006">
        <ele>520.6</ele>
        <time>2014-03-19T16:23:06Z</time>
      </trkpt>
      <trkpt lat="46.34258" lon="5.40062">
        <ele>520.8</ele>
        <time>2014-03-19T16:23:07Z</time>
      </trkpt>
      <trkpt lat="46.34259" lon="5.40069">
        <ele>521.2</ele>
        <time>2014-03-19T16:23:10Z</time>
      </trkpt>
      <trkpt lat="46.34259" lon="5.40072">
        <ele>521.2</ele>
        <time>2014-03-19T16:23:11Z</time>
      </trkpt>
      <trkpt lat="46.34259" lon="5.40074">
        <ele>521.4</ele>
        <time>2014-03-19T16:23:12Z</time>
      </trkpt>
      <trkpt lat="46.34256" lon="5.40089">
        <ele>522.2</ele>
        <time>2014-03-19T16:23:18Z</time>
      </trkpt>
      <trkpt lat="46.34255" lon="5.40105">
        <ele>522.4</ele>
        <time>2014-03-19T16:23:22Z</time>
      </trkpt>
      <trkpt lat="46.34254" lon="5.40109">
        <ele>522.6</ele>
        <time>2014-03-19T16:23:24Z</time>
      </trkpt>
      <trkpt lat="46.34254" lon="5.40112">
        <ele>522.8</ele>
        <time>2014-03-19T16:23:26Z</time>
      </trkpt>
      <trkpt lat="46.34252" lon="5.40113">
        <ele>523.2</ele>
        <time>2014-03-19T16:23:29Z</time>
      </trkpt>
      <trkpt lat="46.34252" lon="5.40115">
        <ele>523.4</ele>
        <time>2014-03-19T16:23:31Z</time>
      </trkpt>
      <trkpt lat="46.34251" lon="5.40118">
        <ele>523.8</ele>
        <time>2014-03-19T16:23:36Z</time>
      </trkpt>
      <trkpt lat="46.3425" lon="5.40123">
        <ele>524.4</ele>
        <time>2014-03-19T16:23:41Z</time>
      </trkpt>
      <trkpt lat="46.34249" lon="5.40129">
        <ele>524.8</ele>
        <time>2014-03-19T16:23:45Z</time>
      </trkpt>
      <trkpt lat="46.34248" lon="5.40129">
        <ele>524.8</ele>
        <time>2014-03-19T16:23:46Z</time>
      </trkpt>
      <trkpt lat="46.34245" lon="5.40131">
        <ele>525</ele>
        <time>2014-03-19T16:23:49Z</time>
      </trkpt>
      <trkpt lat="46.34237" lon="5.40135">
        <ele>525.2</ele>
        <time>2014-03-19T16:23:52Z</time>
      </trkpt>
      <trkpt lat="46.34237" lon="5.40135">
        <ele>525.2</ele>
        <time>2014-03-19T16:23:53Z</time>
      </trkpt>
      <trkpt lat="46.34237" lon="5.40136">
        <ele>525.2</ele>
        <time>2014-03-19T16:23:54Z</time>
      </trkpt>
      <trkpt lat="46.34236" lon="5.40136">
        <ele>525.4</ele>
        <time>2014-03-19T16:23:55Z</time>
      </trkpt>
      <trkpt lat="46.34234" lon="5.40139">
        <ele>525.4</ele>
        <time>2014-03-19T16:23:57Z</time>
      </trkpt>
      <trkpt lat="46.34232" lon="5.40142">
        <ele>525.6</ele>
        <time>2014-03-19T16:23:59Z</time>
      </trkpt>
      <trkpt lat="46.34227" lon="5.40145">
        <ele>526</ele>
        <time>2014-03-19T16:24:04Z</time>
      </trkpt>
      <trkpt lat="46.34221" lon="5.4015">
        <ele>526.4</ele>
        <time>2014-03-19T16:24:08Z</time>
      </trkpt>
      <trkpt lat="46.34216" lon="5.40154">
        <ele>526.8</ele>
        <time>2014-03-19T16:24:11Z</time>
      </trkpt>
      <trkpt lat="46.34211" lon="5.40154">
        <ele>527.4</ele>
        <time>2014-03-19T16:24:16Z</time>
      </trkpt>
      <trkpt lat="46.34207" lon="5.40153">
        <ele>528.2</ele>
        <time>2014-03-19T16:24:20Z</time>
      </trkpt>
      <trkpt lat="46.34205" lon="5.40153">
        <ele>528.4</ele>
        <time>2014-03-19T16:24:22Z</time>
      </trkpt>
      <trkpt lat="46.34201" lon="5.40154">
        <ele>529</ele>
        <time>2014-03-19T16:24:25Z</time>
      </trkpt>
      <trkpt lat="46.34195" lon="5.4016">
        <ele>529.8</ele>
        <time>2014-03-19T16:24:29Z</time>
      </trkpt>
      <trkpt lat="46.3419" lon="5.40164">
        <ele>530.4</ele>
        <time>2014-03-19T16:24:32Z</time>
      </trkpt>
      <trkpt lat="46.34185" lon="5.40169">
        <ele>530.8</ele>
        <time>2014-03-19T16:24:35Z</time>
      </trkpt>
      <trkpt lat="46.34184" lon="5.40169">
        <ele>531</ele>
        <time>2014-03-19T16:24:36Z</time>
      </trkpt>
      <trkpt lat="46.34181" lon="5.40171">
        <ele>531.2</ele>
        <time>2014-03-19T16:24:38Z</time>
      </trkpt>
      <trkpt lat="46.3418" lon="5.4017">
        <ele>531.4</ele>
        <time>2014-03-19T16:24:39Z</time>
      </trkpt>
      <trkpt lat="46.34175" lon="5.40173">
        <ele>532.2</ele>
        <time>2014-03-19T16:24:43Z</time>
      </trkpt>
      <trkpt lat="46.34169" lon="5.40172">
        <ele>533</ele>
        <time>2014-03-19T16:24:47Z</time>
      </trkpt>
      <trkpt lat="46.34166" lon="5.40173">
        <ele>533.8</ele>
        <time>2014-03-19T16:24:51Z</time>
      </trkpt>
      <trkpt lat="46.34164" lon="5.40172">
        <ele>534</ele>
        <time>2014-03-19T16:24:52Z</time>
      </trkpt>
      <trkpt lat="46.34163" lon="5.40171">
        <ele>534.2</ele>
        <time>2014-03-19T16:24:53Z</time>
      </trkpt>
      <trkpt lat="46.3416" lon="5.40171">
        <ele>535</ele>
        <time>2014-03-19T16:24:57Z</time>
      </trkpt>
      <trkpt lat="46.3416" lon="5.40171">
        <ele>535.2</ele>
        <time>2014-03-19T16:24:58Z</time>
      </trkpt>
      <trkpt lat="46.34159" lon="5.40169">
        <ele>536.2</ele>
        <time>2014-03-19T16:25:02Z</time>
      </trkpt>
      <trkpt lat="46.34161" lon="5.40165">
        <ele>537</ele>
        <time>2014-03-19T16:25:06Z</time>
      </trkpt>
      <trkpt lat="46.34161" lon="5.40161">
        <ele>538</ele>
        <time>2014-03-19T16:25:10Z</time>
      </trkpt>
      <trkpt lat="46.3416" lon="5.40155">
        <ele>539</ele>
        <time>2014-03-19T16:25:15Z</time>
      </trkpt>
      <trkpt lat="46.34157" lon="5.40149">
        <ele>540</ele>
        <time>2014-03-19T16:25:20Z</time>
      </trkpt>
      <trkpt lat="46.34151" lon="5.40146">
        <ele>540.8</ele>
        <time>2014-03-19T16:25:25Z</time>
      </trkpt>
      <trkpt lat="46.34146" lon="5.40142">
        <ele>541.6</ele>
        <time>2014-03-19T16:25:29Z</time>
      </trkpt>
      <trkpt lat="46.34145" lon="5.40142">
        <ele>541.8</ele>
        <time>2014-03-19T16:25:30Z</time>
      </trkpt>
      <trkpt lat="46.34138" lon="5.40135">
        <ele>542.6</ele>
        <time>2014-03-19T16:25:35Z</time>
      </trkpt>
      <trkpt lat="46.34136" lon="5.40135">
        <ele>542.8</ele>
        <time>2014-03-19T16:25:36Z</time>
      </trkpt>
      <trkpt lat="46.34131" lon="5.40132">
        <ele>543.6</ele>
        <time>2014-03-19T16:25:39Z</time>
      </trkpt>
      <trkpt lat="46.34131" lon="5.40131">
        <ele>543.8</ele>
        <time>2014-03-19T16:25:40Z</time>
      </trkpt>
      <trkpt lat="46.34129" lon="5.40129">
        <ele>544.2</ele>
        <time>2014-03-19T16:25:42Z</time>
      </trkpt>
      <trkpt lat="46.34128" lon="5.40127">
        <ele>544.8</ele>
        <time>2014-03-19T16:25:44Z</time>
      </trkpt>
      <trkpt lat="46.34125" lon="5.40123">
        <ele>545.4</ele>
        <time>2014-03-19T16:25:46Z</time>
      </trkpt>
      <trkpt lat="46.34121" lon="5.40117">
        <ele>546.2</ele>
        <time>2014-03-19T16:25:49Z</time>
      </trkpt>
      <trkpt lat="46.3412" lon="5.40116">
        <ele>546.4</ele>
        <time>2014-03-19T16:25:50Z</time>
      </trkpt>
      <trkpt lat="46.34118" lon="5.40115">
        <ele>546.8</ele>
        <time>2014-03-19T16:25:51Z</time>
      </trkpt>
      <trkpt lat="46.34113" lon="5.40105">
        <ele>548.2</ele>
        <time>2014-03-19T16:25:56Z</time>
      </trkpt>
      <trkpt lat="46.34107" lon="5.40097">
        <ele>549.4</ele>
        <time>2014-03-19T16:26:00Z</time>
      </trkpt>
      <trkpt lat="46.34106" lon="5.40097">
        <ele>549.8</ele>
        <time>2014-03-19T16:26:01Z</time>
      </trkpt>
      <trkpt lat="46.34104" lon="5.40095">
        <ele>550.4</ele>
        <time>2014-03-19T16:26:03Z</time>
      </trkpt>
      <trkpt lat="46.34103" lon="5.40097">
        <ele>550.8</ele>
        <time>2014-03-19T16:26:04Z</time>
      </trkpt>
      <trkpt lat="46.34102" lon="5.40095">
        <ele>551.4</ele>
        <time>2014-03-19T16:26:06Z</time>
      </trkpt>
      <trkpt lat="46.341" lon="5.40091">
        <ele>552.6</ele>
        <time>2014-03-19T16:26:10Z</time>
      </trkpt>
      <trkpt lat="46.34092" lon="5.40087">
        <ele>554</ele>
        <time>2014-03-19T16:26:15Z</time>
      </trkpt>
      <trkpt lat="46.34089" lon="5.40085">
        <ele>554.8</ele>
        <time>2014-03-19T16:26:18Z</time>
      </trkpt>
      <trkpt lat="46.34088" lon="5.40085">
        <ele>555</ele>
        <time>2014-03-19T16:26:19Z</time>
      </trkpt>
      <trkpt lat="46.34087" lon="5.40084">
        <ele>555.2</ele>
        <time>2014-03-19T16:26:20Z</time>
      </trkpt>
      <trkpt lat="46.34082" lon="5.40082">
        <ele>556.2</ele>
        <time>2014-03-19T16:26:24Z</time>
      </trkpt>
      <trkpt lat="46.34078" lon="5.4008">
        <ele>557.4</ele>
        <time>2014-03-19T16:26:28Z</time>
      </trkpt>
      <trkpt lat="46.34077" lon="5.4008">
        <ele>557.6</ele>
        <time>2014-03-19T16:26:29Z</time>
      </trkpt>
      <trkpt lat="46.3407" lon="5.40079">
        <ele>559</ele>
        <time>2014-03-19T16:26:34Z</time>
      </trkpt>
      <trkpt lat="46.34064" lon="5.40078">
        <ele>560.2</ele>
        <time>2014-03-19T16:26:38Z</time>
      </trkpt>
      <trkpt lat="46.34062" lon="5.40078">
        <ele>560.4</ele>
        <time>2014-03-19T16:26:39Z</time>
      </trkpt>
      <trkpt lat="46.34057" lon="5.40077">
        <ele>561.2</ele>
        <time>2014-03-19T16:26:42Z</time>
      </trkpt>
      <trkpt lat="46.34049" lon="5.40078">
        <ele>562.4</ele>
        <time>2014-03-19T16:26:46Z</time>
      </trkpt>
      <trkpt lat="46.34044" lon="5.40081">
        <ele>563.6</ele>
        <time>2014-03-19T16:26:50Z</time>
      </trkpt>
      <trkpt lat="46.34036" lon="5.40081">
        <ele>565</ele>
        <time>2014-03-19T16:26:54Z</time>
      </trkpt>
      <trkpt lat="46.34034" lon="5.40083">
        <ele>565.8</ele>
        <time>2014-03-19T16:26:56Z</time>
      </trkpt>
      <trkpt lat="46.34033" lon="5.40083">
        <ele>566</ele>
        <time>2014-03-19T16:26:57Z</time>
      </trkpt>
      <trkpt lat="46.34029" lon="5.40081">
        <ele>566.6</ele>
        <time>2014-03-19T16:26:59Z</time>
      </trkpt>
      <trkpt lat="46.34022" lon="5.40079">
        <ele>568.2</ele>
        <time>2014-03-19T16:27:04Z</time>
      </trkpt>
      <trkpt lat="46.34017" lon="5.4008">
        <ele>569.2</ele>
        <time>2014-03-19T16:27:07Z</time>
      </trkpt>
      <trkpt lat="46.34014" lon="5.4008">
        <ele>569.8</ele>
        <time>2014-03-19T16:27:09Z</time>
      </trkpt>
      <trkpt lat="46.34012" lon="5.40079">
        <ele>570.2</ele>
        <time>2014-03-19T16:27:10Z</time>
      </trkpt>
      <trkpt lat="46.34004" lon="5.40077">
        <ele>571.6</ele>
        <time>2014-03-19T16:27:14Z</time>
      </trkpt>
      <trkpt lat="46.34002" lon="5.40077">
        <ele>572.4</ele>
        <time>2014-03-19T16:27:16Z</time>
      </trkpt>
      <trkpt lat="46.33997" lon="5.40076">
        <ele>573.6</ele>
        <time>2014-03-19T16:27:20Z</time>
      </trkpt>
      <trkpt lat="46.33996" lon="5.40074">
        <ele>574.2</ele>
        <time>2014-03-19T16:27:22Z</time>
      </trkpt>
      <trkpt lat="46.33994" lon="5.40073">
        <ele>574.6</ele>
        <time>2014-03-19T16:27:23Z</time>
      </trkpt>
      <trkpt lat="46.33994" lon="5.40073">
        <ele>574.8</ele>
        <time>2014-03-19T16:27:24Z</time>
      </trkpt>
      <trkpt lat="46.33991" lon="5.40072">
        <ele>575.4</ele>
        <time>2014-03-19T16:27:26Z</time>
      </trkpt>
      <trkpt lat="46.33987" lon="5.40071">
        <ele>576.4</ele>
        <time>2014-03-19T16:27:29Z</time>
      </trkpt>
      <trkpt lat="46.33986" lon="5.40067">
        <ele>577.4</ele>
        <time>2014-03-19T16:27:33Z</time>
      </trkpt>
      <trkpt lat="46.33981" lon="5.40062">
        <ele>578</ele>
        <time>2014-03-19T16:27:36Z</time>
      </trkpt>
      <trkpt lat="46.33975" lon="5.40058">
        <ele>579</ele>
        <time>2014-03-19T16:27:39Z</time>
      </trkpt>
      <trkpt lat="46.33971" lon="5.40056">
        <ele>579.8</ele>
        <time>2014-03-19T16:27:41Z</time>
      </trkpt>
      <trkpt lat="46.3397" lon="5.40054">
        <ele>580.2</ele>
        <time>2014-03-19T16:27:42Z</time>
      </trkpt>
      <trkpt lat="46.33964" lon="5.40049">
        <ele>581.4</ele>
        <time>2014-03-19T16:27:46Z</time>
      </trkpt>
      <trkpt lat="46.33961" lon="5.40046">
        <ele>582.2</ele>
        <time>2014-03-19T16:27:48Z</time>
      </trkpt>
      <trkpt lat="46.33954" lon="5.40042">
        <ele>583.6</ele>
        <time>2014-03-19T16:27:52Z</time>
      </trkpt>
      <trkpt lat="46.33948" lon="5.4004">
        <ele>584.6</ele>
        <time>2014-03-19T16:27:55Z</time>
      </trkpt>
      <trkpt lat="46.33947" lon="5.40039">
        <ele>585</ele>
        <time>2014-03-19T16:27:56Z</time>
      </trkpt>
      <trkpt lat="46.33938" lon="5.4004">
        <ele>586.8</ele>
        <time>2014-03-19T16:28:01Z</time>
      </trkpt>
      <trkpt lat="46.3393" lon="5.40043">
        <ele>588</ele>
        <time>2014-03-19T16:28:05Z</time>
      </trkpt>
      <trkpt lat="46.3393" lon="5.40043">
        <ele>588.8</ele>
        <time>2014-03-19T16:28:07Z</time>
      </trkpt>
      <trkpt lat="46.33929" lon="5.40043">
        <ele>589</ele>
        <time>2014-03-19T16:28:08Z</time>
      </trkpt>
      <trkpt lat="46.33921" lon="5.40042">
        <ele>591.8</ele>
        <time>2014-03-19T16:28:20Z</time>
      </trkpt>
      <trkpt lat="46.33911" lon="5.40044">
        <ele>592.8</ele>
        <time>2014-03-19T16:28:25Z</time>
      </trkpt>
      <trkpt lat="46.33904" lon="5.40049">
        <ele>593.6</ele>
        <time>2014-03-19T16:28:29Z</time>
      </trkpt>
      <trkpt lat="46.33891" lon="5.40053">
        <ele>594.2</ele>
        <time>2014-03-19T16:28:33Z</time>
      </trkpt>
      <trkpt lat="46.33876" lon="5.40049">
        <ele>595.2</ele>
        <time>2014-03-19T16:28:39Z</time>
      </trkpt>
      <trkpt lat="46.33866" lon="5.40043">
        <ele>596</ele>
        <time>2014-03-19T16:28:44Z</time>
      </trkpt>
      <trkpt lat="46.33854" lon="5.40031">
        <ele>596.6</ele>
        <time>2014-03-19T16:28:49Z</time>
      </trkpt>
      <trkpt lat="46.3384" lon="5.40019">
        <ele>597.8</ele>
        <time>2014-03-19T16:28:55Z</time>
      </trkpt>
      <trkpt lat="46.33825" lon="5.40015">
        <ele>598.8</ele>
        <time>2014-03-19T16:29:01Z</time>
      </trkpt>
      <trkpt lat="46.33821" lon="5.40017">
        <ele>599</ele>
        <time>2014-03-19T16:29:03Z</time>
      </trkpt>
      <trkpt lat="46.33816" lon="5.40019">
        <ele>599.2</ele>
        <time>2014-03-19T16:29:05Z</time>
      </trkpt>
      <trkpt lat="46.338" lon="5.40023">
        <ele>600.2</ele>
        <time>2014-03-19T16:29:11Z</time>
      </trkpt>
      <trkpt lat="46.33788" lon="5.40025">
        <ele>601</ele>
        <time>2014-03-19T16:29:16Z</time>
      </trkpt>
      <trkpt lat="46.33772" lon="5.40027">
        <ele>602.4</ele>
        <time>2014-03-19T16:29:22Z</time>
      </trkpt>
      <trkpt lat="46.33756" lon="5.40026">
        <ele>603.6</ele>
        <time>2014-03-19T16:29:28Z</time>
      </trkpt>
      <trkpt lat="46.33737" lon="5.40022">
        <ele>605.4</ele>
        <time>2014-03-19T16:29:35Z</time>
      </trkpt>
      <trkpt lat="46.3372" lon="5.40016">
        <ele>607</ele>
        <time>2014-03-19T16:29:42Z</time>
      </trkpt>
      <trkpt lat="46.33713" lon="5.40014">
        <ele>607.6</ele>
        <time>2014-03-19T16:29:45Z</time>
      </trkpt>
      <trkpt lat="46.33708" lon="5.40012">
        <ele>608</ele>
        <time>2014-03-19T16:29:47Z</time>
      </trkpt>
      <trkpt lat="46.33694" lon="5.4001">
        <ele>608.8</ele>
        <time>2014-03-19T16:29:52Z</time>
      </trkpt>
      <trkpt lat="46.3368" lon="5.4001">
        <ele>609.8</ele>
        <time>2014-03-19T16:29:57Z</time>
      </trkpt>
      <trkpt lat="46.33669" lon="5.40012">
        <ele>610.6</ele>
        <time>2014-03-19T16:30:02Z</time>
      </trkpt>
      <trkpt lat="46.33658" lon="5.40014">
        <ele>611.4</ele>
        <time>2014-03-19T16:30:06Z</time>
      </trkpt>
      <trkpt lat="46.3365" lon="5.40015">
        <ele>612.2</ele>
        <time>2014-03-19T16:30:10Z</time>
      </trkpt>
      <trkpt lat="46.33637" lon="5.40019">
        <ele>613.4</ele>
        <time>2014-03-19T16:30:15Z</time>
      </trkpt>
      <trkpt lat="46.33623" lon="5.40023">
        <ele>614.4</ele>
        <time>2014-03-19T16:30:20Z</time>
      </trkpt>
      <trkpt lat="46.33613" lon="5.40024">
        <ele>615.2</ele>
        <time>2014-03-19T16:30:24Z</time>
      </trkpt>
      <trkpt lat="46.33598" lon="5.40024">
        <ele>616.6</ele>
        <time>2014-03-19T16:30:30Z</time>
      </trkpt>
      <trkpt lat="46.33585" lon="5.40025">
        <ele>617.6</ele>
        <time>2014-03-19T16:30:36Z</time>
      </trkpt>
      <trkpt lat="46.33572" lon="5.40025">
        <ele>618.4</ele>
        <time>2014-03-19T16:30:41Z</time>
      </trkpt>
      <trkpt lat="46.33557" lon="5.40021">
        <ele>619.4</ele>
        <time>2014-03-19T16:30:47Z</time>
      </trkpt>
      <trkpt lat="46.33545" lon="5.40017">
        <ele>620.2</ele>
        <time>2014-03-19T16:30:52Z</time>
      </trkpt>
      <trkpt lat="46.33534" lon="5.40011">
        <ele>621.4</ele>
        <time>2014-03-19T16:30:57Z</time>
      </trkpt>
      <trkpt lat="46.33519" lon="5.40004">
        <ele>622.6</ele>
        <time>2014-03-19T16:31:03Z</time>
      </trkpt>
      <trkpt lat="46.3351" lon="5.4">
        <ele>623.4</ele>
        <time>2014-03-19T16:31:07Z</time>
      </trkpt>
      <trkpt lat="46.335" lon="5.39994">
        <ele>624.2</ele>
        <time>2014-03-19T16:31:11Z</time>
      </trkpt>
      <trkpt lat="46.33487" lon="5.39989">
        <ele>625.2</ele>
        <time>2014-03-19T16:31:16Z</time>
      </trkpt>
      <trkpt lat="46.33471" lon="5.3998">
        <ele>626.4</ele>
        <time>2014-03-19T16:31:22Z</time>
      </trkpt>
      <trkpt lat="46.33457" lon="5.39972">
        <ele>627.4</ele>
        <time>2014-03-19T16:31:27Z</time>
      </trkpt>
      <trkpt lat="46.33441" lon="5.39961">
        <ele>628.6</ele>
        <time>2014-03-19T16:31:33Z</time>
      </trkpt>
      <trkpt lat="46.33431" lon="5.39953">
        <ele>629.6</ele>
        <time>2014-03-19T16:31:38Z</time>
      </trkpt>
      <trkpt lat="46.33416" lon="5.39945">
        <ele>630.6</ele>
        <time>2014-03-19T16:31:44Z</time>
      </trkpt>
      <trkpt lat="46.33403" lon="5.39936">
        <ele>631.2</ele>
        <time>2014-03-19T16:31:49Z</time>
      </trkpt>
      <trkpt lat="46.33392" lon="5.39927">
        <ele>631.8</ele>
        <time>2014-03-19T16:31:53Z</time>
      </trkpt>
      <trkpt lat="46.33376" lon="5.39916">
        <ele>632.8</ele>
        <time>2014-03-19T16:31:59Z</time>
      </trkpt>
      <trkpt lat="46.33358" lon="5.39904">
        <ele>633.8</ele>
        <time>2014-03-19T16:32:06Z</time>
      </trkpt>
      <trkpt lat="46.33341" lon="5.39894">
        <ele>634.8</ele>
        <time>2014-03-19T16:32:12Z</time>
      </trkpt>
      <trkpt lat="46.33338" lon="5.39893">
        <ele>635</ele>
        <time>2014-03-19T16:32:13Z</time>
      </trkpt>
      <trkpt lat="46.33323" lon="5.3989">
        <ele>636</ele>
        <time>2014-03-19T16:32:19Z</time>
      </trkpt>
      <trkpt lat="46.33308" lon="5.39888">
        <ele>636.8</ele>
        <time>2014-03-19T16:32:25Z</time>
      </trkpt>
      <trkpt lat="46.33293" lon="5.39885">
        <ele>637.6</ele>
        <time>2014-03-19T16:32:31Z</time>
      </trkpt>
      <trkpt lat="46.33279" lon="5.39879">
        <ele>638.4</ele>
        <time>2014-03-19T16:32:37Z</time>
      </trkpt>
      <trkpt lat="46.33268" lon="5.39878">
        <ele>639</ele>
        <time>2014-03-19T16:32:41Z</time>
      </trkpt>
      <trkpt lat="46.33251" lon="5.39874">
        <ele>640.4</ele>
        <time>2014-03-19T16:32:47Z</time>
      </trkpt>
      <trkpt lat="46.33237" lon="5.39872">
        <ele>641.6</ele>
        <time>2014-03-19T16:32:52Z</time>
      </trkpt>
      <trkpt lat="46.33219" lon="5.39867">
        <ele>643.8</ele>
        <time>2014-03-19T16:32:59Z</time>
      </trkpt>
      <trkpt lat="46.33201" lon="5.39863">
        <ele>645.6</ele>
        <time>2014-03-19T16:33:05Z</time>
      </trkpt>
      <trkpt lat="46.33184" lon="5.39857">
        <ele>647.2</ele>
        <time>2014-03-19T16:33:11Z</time>
      </trkpt>
      <trkpt lat="46.33168" lon="5.39853">
        <ele>648.6</ele>
        <time>2014-03-19T16:33:17Z</time>
      </trkpt>
      <trkpt lat="46.33153" lon="5.3985">
        <ele>649.6</ele>
        <time>2014-03-19T16:33:23Z</time>
      </trkpt>
      <trkpt lat="46.33137" lon="5.39849">
        <ele>650.4</ele>
        <time>2014-03-19T16:33:29Z</time>
      </trkpt>
      <trkpt lat="46.33116" lon="5.39848">
        <ele>651.4</ele>
        <time>2014-03-19T16:33:36Z</time>
      </trkpt>
      <trkpt lat="46.33099" lon="5.39847">
        <ele>652.2</ele>
        <time>2014-03-19T16:33:43Z</time>
      </trkpt>
      <trkpt lat="46.33084" lon="5.39845">
        <ele>652.8</ele>
        <time>2014-03-19T16:33:48Z</time>
      </trkpt>
      <trkpt lat="46.3307" lon="5.3984">
        <ele>653.4</ele>
        <time>2014-03-19T16:33:53Z</time>
      </trkpt>
      <trkpt lat="46.33051" lon="5.39832">
        <ele>654</ele>
        <time>2014-03-19T16:33:59Z</time>
      </trkpt>
      <trkpt lat="46.33032" lon="5.39826">
        <ele>654.8</ele>
        <time>2014-03-19T16:34:05Z</time>
      </trkpt>
      <trkpt lat="46.33012" lon="5.39821">
        <ele>655.4</ele>
        <time>2014-03-19T16:34:11Z</time>
      </trkpt>
      <trkpt lat="46.32992" lon="5.39818">
        <ele>655.8</ele>
        <time>2014-03-19T16:34:17Z</time>
      </trkpt>
      <trkpt lat="46.32972" lon="5.39816">
        <ele>656.4</ele>
        <time>2014-03-19T16:34:23Z</time>
      </trkpt>
      <trkpt lat="46.32956" lon="5.3981">
        <ele>656.8</ele>
        <time>2014-03-19T16:34:28Z</time>
      </trkpt>
      <trkpt lat="46.32937" lon="5.39809">
        <ele>657</ele>
        <time>2014-03-19T16:34:34Z</time>
      </trkpt>
      <trkpt lat="46.32933" lon="5.39812">
        <ele>657</ele>
        <time>2014-03-19T16:34:36Z</time>
      </trkpt>
      <trkpt lat="46.3293" lon="5.39816">
        <ele>657</ele>
        <time>2014-03-19T16:34:38Z</time>
      </trkpt>
      <trkpt lat="46.32928" lon="5.39825">
        <ele>657.2</ele>
        <time>2014-03-19T16:34:41Z</time>
      </trkpt>
      <trkpt lat="46.32928" lon="5.39828">
        <ele>657.2</ele>
        <time>2014-03-19T16:34:42Z</time>
      </trkpt>
      <trkpt lat="46.32925" lon="5.39843">
        <ele>657.6</ele>
        <time>2014-03-19T16:34:47Z</time>
      </trkpt>
      <trkpt lat="46.32924" lon="5.3986">
        <ele>658.4</ele>
        <time>2014-03-19T16:34:53Z</time>
      </trkpt>
      <trkpt lat="46.32925" lon="5.39874">
        <ele>659</ele>
        <time>2014-03-19T16:34:57Z</time>
      </trkpt>
      <trkpt lat="46.32927" lon="5.39875">
        <ele>659.4</ele>
        <time>2014-03-19T16:34:59Z</time>
      </trkpt>
      <trkpt lat="46.32927" lon="5.39876">
        <ele>659.4</ele>
        <time>2014-03-19T16:35:00Z</time>
      </trkpt>
      <trkpt lat="46.32925" lon="5.39874">
        <ele>660.4</ele>
        <time>2014-03-19T16:35:06Z</time>
      </trkpt>
      <trkpt lat="46.32924" lon="5.39874">
        <ele>661.2</ele>
        <time>2014-03-19T16:35:12Z</time>
      </trkpt>
      <trkpt lat="46.32923" lon="5.39874">
        <ele>661.8</ele>
        <time>2014-03-19T16:35:17Z</time>
      </trkpt>
      <trkpt lat="46.32924" lon="5.39867">
        <ele>662.6</ele>
        <time>2014-03-19T16:35:26Z</time>
      </trkpt>
      <trkpt lat="46.32924" lon="5.39868">
        <ele>663</ele>
        <time>2014-03-19T16:35:30Z</time>
      </trkpt>
      <trkpt lat="46.32922" lon="5.3987">
        <ele>663.6</ele>
        <time>2014-03-19T16:35:38Z</time>
      </trkpt>
      <trkpt lat="46.32923" lon="5.39869">
        <ele>664</ele>
        <time>2014-03-19T16:35:42Z</time>
      </trkpt>
      <trkpt lat="46.32923" lon="5.39869">
        <ele>664.6</ele>
        <time>2014-03-19T16:35:55Z</time>
      </trkpt>
      <trkpt lat="46.32924" lon="5.39873">
        <ele>664.8</ele>
        <time>2014-03-19T16:35:59Z</time>
      </trkpt>
      <trkpt lat="46.32925" lon="5.39876">
        <ele>664.8</ele>
        <time>2014-03-19T16:36:01Z</time>
      </trkpt>
      <trkpt lat="46.32927" lon="5.39876">
        <ele>665</ele>
        <time>2014-03-19T16:36:04Z</time>
      </trkpt>
      <trkpt lat="46.32927" lon="5.39876">
        <ele>665.2</ele>
        <time>2014-03-19T16:36:10Z</time>
      </trkpt>
      <trkpt lat="46.32925" lon="5.39877">
        <ele>665.2</ele>
        <time>2014-03-19T16:36:19Z</time>
      </trkpt>
      <trkpt lat="46.32922" lon="5.39874">
        <ele>665.2</ele>
        <time>2014-03-19T16:36:24Z</time>
      </trkpt>
      <trkpt lat="46.32922" lon="5.39875">
        <ele>665.4</ele>
        <time>2014-03-19T16:36:28Z</time>
      </trkpt>
      <trkpt lat="46.3292" lon="5.39874">
        <ele>665.4</ele>
        <time>2014-03-19T16:36:37Z</time>
      </trkpt>
      <trkpt lat="46.32916" lon="5.3987">
        <ele>665.4</ele>
        <time>2014-03-19T16:36:50Z</time>
      </trkpt>
      <trkpt lat="46.32915" lon="5.39869">
        <ele>665.4</ele>
        <time>2014-03-19T16:36:52Z</time>
      </trkpt>
      <trkpt lat="46.32914" lon="5.39868">
        <ele>665.4</ele>
        <time>2014-03-19T16:36:55Z</time>
      </trkpt>
      <trkpt lat="46.32915" lon="5.39868">
        <ele>665.4</ele>
        <time>2014-03-19T16:37:00Z</time>
      </trkpt>
      <trkpt lat="46.32912" lon="5.39865">
        <ele>665.4</ele>
        <time>2014-03-19T16:37:05Z</time>
      </trkpt>
      <trkpt lat="46.32911" lon="5.39865">
        <ele>665.4</ele>
        <time>2014-03-19T16:37:06Z</time>
      </trkpt>
      <trkpt lat="46.3291" lon="5.39864">
        <ele>665.2</ele>
        <time>2014-03-19T16:37:09Z</time>
      </trkpt>
      <trkpt lat="46.32907" lon="5.39865">
        <ele>665.2</ele>
        <time>2014-03-19T16:37:13Z</time>
      </trkpt>
      <trkpt lat="46.32904" lon="5.39866">
        <ele>665.2</ele>
        <time>2014-03-19T16:37:16Z</time>
      </trkpt>
      <trkpt lat="46.32898" lon="5.39865">
        <ele>665.2</ele>
        <time>2014-03-19T16:37:21Z</time>
      </trkpt>
      <trkpt lat="46.32896" lon="5.39861">
        <ele>665</ele>
        <time>2014-03-19T16:37:25Z</time>
      </trkpt>
      <trkpt lat="46.32888" lon="5.39858">
        <ele>664.8</ele>
        <time>2014-03-19T16:37:38Z</time>
      </trkpt>
      <trkpt lat="46.32883" lon="5.39856">
        <ele>664.8</ele>
        <time>2014-03-19T16:37:42Z</time>
      </trkpt>
      <trkpt lat="46.32875" lon="5.39852">
        <ele>664.8</ele>
        <time>2014-03-19T16:37:45Z</time>
      </trkpt>
      <trkpt lat="46.32858" lon="5.39844">
        <ele>664.6</ele>
        <time>2014-03-19T16:37:50Z</time>
      </trkpt>
      <trkpt lat="46.32838" lon="5.39836">
        <ele>664.6</ele>
        <time>2014-03-19T16:37:55Z</time>
      </trkpt>
      <trkpt lat="46.32824" lon="5.39829">
        <ele>664.4</ele>
        <time>2014-03-19T16:37:59Z</time>
      </trkpt>
      <trkpt lat="46.32807" lon="5.39822">
        <ele>664.2</ele>
        <time>2014-03-19T16:38:05Z</time>
      </trkpt>
      <trkpt lat="46.32796" lon="5.39813">
        <ele>664</ele>
        <time>2014-03-19T16:38:09Z</time>
      </trkpt>
      <trkpt lat="46.32783" lon="5.3981">
        <ele>663.8</ele>
        <time>2014-03-19T16:38:13Z</time>
      </trkpt>
      <trkpt lat="46.32773" lon="5.39803">
        <ele>663.6</ele>
        <time>2014-03-19T16:38:17Z</time>
      </trkpt>
      <trkpt lat="46.3276" lon="5.39798">
        <ele>663.4</ele>
        <time>2014-03-19T16:38:21Z</time>
      </trkpt>
      <trkpt lat="46.32747" lon="5.39788">
        <ele>663.2</ele>
        <time>2014-03-19T16:38:25Z</time>
      </trkpt>
      <trkpt lat="46.32749" lon="5.39779">
        <ele>662.8</ele>
        <time>2014-03-19T16:38:28Z</time>
      </trkpt>
      <trkpt lat="46.32751" lon="5.39778">
        <ele>662.4</ele>
        <time>2014-03-19T16:38:31Z</time>
      </trkpt>
      <trkpt lat="46.32746" lon="5.39768">
        <ele>661.6</ele>
        <time>2014-03-19T16:38:39Z</time>
      </trkpt>
      <trkpt lat="46.32734" lon="5.39752">
        <ele>660.8</ele>
        <time>2014-03-19T16:38:44Z</time>
      </trkpt>
      <trkpt lat="46.32724" lon="5.39733">
        <ele>660</ele>
        <time>2014-03-19T16:38:49Z</time>
      </trkpt>
      <trkpt lat="46.32715" lon="5.3972">
        <ele>659.2</ele>
        <time>2014-03-19T16:38:53Z</time>
      </trkpt>
      <trkpt lat="46.32713" lon="5.39719">
        <ele>659</ele>
        <time>2014-03-19T16:38:54Z</time>
      </trkpt>
      <trkpt lat="46.32707" lon="5.39716">
        <ele>658.6</ele>
        <time>2014-03-19T16:38:56Z</time>
      </trkpt>
      <trkpt lat="46.32695" lon="5.39709">
        <ele>657.6</ele>
        <time>2014-03-19T16:39:00Z</time>
      </trkpt>
      <trkpt lat="46.32681" lon="5.39698">
        <ele>656.4</ele>
        <time>2014-03-19T16:39:05Z</time>
      </trkpt>
      <trkpt lat="46.32679" lon="5.39699">
        <ele>656.2</ele>
        <time>2014-03-19T16:39:06Z</time>
      </trkpt>
      <trkpt lat="46.32675" lon="5.39701">
        <ele>655.6</ele>
        <time>2014-03-19T16:39:08Z</time>
      </trkpt>
      <trkpt lat="46.32666" lon="5.39699">
        <ele>655</ele>
        <time>2014-03-19T16:39:11Z</time>
      </trkpt>
      <trkpt lat="46.32662" lon="5.39698">
        <ele>654.6</ele>
        <time>2014-03-19T16:39:12Z</time>
      </trkpt>
      <trkpt lat="46.32655" lon="5.39701">
        <ele>654</ele>
        <time>2014-03-19T16:39:15Z</time>
      </trkpt>
      <trkpt lat="46.32651" lon="5.39701">
        <ele>653.4</ele>
        <time>2014-03-19T16:39:17Z</time>
      </trkpt>
      <trkpt lat="46.32649" lon="5.39703">
        <ele>653.2</ele>
        <time>2014-03-19T16:39:18Z</time>
      </trkpt>
      <trkpt lat="46.3264" lon="5.3971">
        <ele>652</ele>
        <time>2014-03-19T16:39:23Z</time>
      </trkpt>
      <trkpt lat="46.32629" lon="5.39708">
        <ele>651</ele>
        <time>2014-03-19T16:39:27Z</time>
      </trkpt>
      <trkpt lat="46.32626" lon="5.39706">
        <ele>650.6</ele>
        <time>2014-03-19T16:39:29Z</time>
      </trkpt>
      <trkpt lat="46.32622" lon="5.39705">
        <ele>650.2</ele>
        <time>2014-03-19T16:39:31Z</time>
      </trkpt>
      <trkpt lat="46.32616" lon="5.39707">
        <ele>649.2</ele>
        <time>2014-03-19T16:39:35Z</time>
      </trkpt>
      <trkpt lat="46.32615" lon="5.39709">
        <ele>648.8</ele>
        <time>2014-03-19T16:39:36Z</time>
      </trkpt>
      <trkpt lat="46.32611" lon="5.39714">
        <ele>648.2</ele>
        <time>2014-03-19T16:39:39Z</time>
      </trkpt>
      <trkpt lat="46.32608" lon="5.39709">
        <ele>647.2</ele>
        <time>2014-03-19T16:39:43Z</time>
      </trkpt>
      <trkpt lat="46.32604" lon="5.39705">
        <ele>645.8</ele>
        <time>2014-03-19T16:39:48Z</time>
      </trkpt>
      <trkpt lat="46.32604" lon="5.39705">
        <ele>645.6</ele>
        <time>2014-03-19T16:39:49Z</time>
      </trkpt>
      <trkpt lat="46.32603" lon="5.39707">
        <ele>644.6</ele>
        <time>2014-03-19T16:39:53Z</time>
      </trkpt>
      <trkpt lat="46.32601" lon="5.39707">
        <ele>642</ele>
        <time>2014-03-19T16:40:05Z</time>
      </trkpt>
      <trkpt lat="46.32599" lon="5.39705">
        <ele>634.8</ele>
        <time>2014-03-19T16:40:46Z</time>
      </trkpt>
      <trkpt lat="46.32598" lon="5.39701">
        <ele>634</ele>
        <time>2014-03-19T16:40:51Z</time>
      </trkpt>
      <trkpt lat="46.32593" lon="5.39698">
        <ele>633.2</ele>
        <time>2014-03-19T16:40:55Z</time>
      </trkpt>
      <trkpt lat="46.32592" lon="5.39696">
        <ele>633</ele>
        <time>2014-03-19T16:40:56Z</time>
      </trkpt>
      <trkpt lat="46.32589" lon="5.39691">
        <ele>632.4</ele>
        <time>2014-03-19T16:40:59Z</time>
      </trkpt>
      <trkpt lat="46.32582" lon="5.39687">
        <ele>631.6</ele>
        <time>2014-03-19T16:41:03Z</time>
      </trkpt>
      <trkpt lat="46.3258" lon="5.39686">
        <ele>631.4</ele>
        <time>2014-03-19T16:41:04Z</time>
      </trkpt>
      <trkpt lat="46.3257" lon="5.39678">
        <ele>630.4</ele>
        <time>2014-03-19T16:41:09Z</time>
      </trkpt>
      <trkpt lat="46.32565" lon="5.39672">
        <ele>629.8</ele>
        <time>2014-03-19T16:41:12Z</time>
      </trkpt>
      <trkpt lat="46.3256" lon="5.3967">
        <ele>629.2</ele>
        <time>2014-03-19T16:41:14Z</time>
      </trkpt>
      <trkpt lat="46.3255" lon="5.39662">
        <ele>628.4</ele>
        <time>2014-03-19T16:41:18Z</time>
      </trkpt>
      <trkpt lat="46.32548" lon="5.3966">
        <ele>628</ele>
        <time>2014-03-19T16:41:19Z</time>
      </trkpt>
      <trkpt lat="46.32546" lon="5.39657">
        <ele>627.8</ele>
        <time>2014-03-19T16:41:20Z</time>
      </trkpt>
      <trkpt lat="46.32541" lon="5.3965">
        <ele>627.2</ele>
        <time>2014-03-19T16:41:22Z</time>
      </trkpt>
      <trkpt lat="46.32536" lon="5.39651">
        <ele>626.8</ele>
        <time>2014-03-19T16:41:24Z</time>
      </trkpt>
      <trkpt lat="46.32535" lon="5.39652">
        <ele>626.4</ele>
        <time>2014-03-19T16:41:25Z</time>
      </trkpt>
      <trkpt lat="46.32532" lon="5.39649">
        <ele>626.2</ele>
        <time>2014-03-19T16:41:26Z</time>
      </trkpt>
      <trkpt lat="46.32529" lon="5.39647">
        <ele>625.6</ele>
        <time>2014-03-19T16:41:28Z</time>
      </trkpt>
      <trkpt lat="46.32522" lon="5.39638">
        <ele>624.6</ele>
        <time>2014-03-19T16:41:31Z</time>
      </trkpt>
      <trkpt lat="46.32516" lon="5.39636">
        <ele>623.8</ele>
        <time>2014-03-19T16:41:34Z</time>
      </trkpt>
      <trkpt lat="46.32504" lon="5.39628">
        <ele>622.6</ele>
        <time>2014-03-19T16:41:38Z</time>
      </trkpt>
      <trkpt lat="46.32493" lon="5.39621">
        <ele>621.2</ele>
        <time>2014-03-19T16:41:42Z</time>
      </trkpt>
      <trkpt lat="46.32481" lon="5.39612">
        <ele>619.4</ele>
        <time>2014-03-19T16:41:47Z</time>
      </trkpt>
      <trkpt lat="46.32473" lon="5.39603">
        <ele>617.8</ele>
        <time>2014-03-19T16:41:51Z</time>
      </trkpt>
      <trkpt lat="46.32468" lon="5.39605">
        <ele>616.4</ele>
        <time>2014-03-19T16:41:55Z</time>
      </trkpt>
      <trkpt lat="46.32468" lon="5.39612">
        <ele>615.2</ele>
        <time>2014-03-19T16:41:58Z</time>
      </trkpt>
      <trkpt lat="46.32464" lon="5.39615">
        <ele>614</ele>
        <time>2014-03-19T16:42:01Z</time>
      </trkpt>
      <trkpt lat="46.32462" lon="5.39616">
        <ele>613.6</ele>
        <time>2014-03-19T16:42:02Z</time>
      </trkpt>
      <trkpt lat="46.3246" lon="5.39617">
        <ele>612.4</ele>
        <time>2014-03-19T16:42:05Z</time>
      </trkpt>
      <trkpt lat="46.32454" lon="5.3962">
        <ele>611</ele>
        <time>2014-03-19T16:42:08Z</time>
      </trkpt>
      <trkpt lat="46.3245" lon="5.3962">
        <ele>610.2</ele>
        <time>2014-03-19T16:42:10Z</time>
      </trkpt>
      <trkpt lat="46.3244" lon="5.39621">
        <ele>607.8</ele>
        <time>2014-03-19T16:42:15Z</time>
      </trkpt>
      <trkpt lat="46.32438" lon="5.3962">
        <ele>607.4</ele>
        <time>2014-03-19T16:42:16Z</time>
      </trkpt>
      <trkpt lat="46.32429" lon="5.39616">
        <ele>604.8</ele>
        <time>2014-03-19T16:42:21Z</time>
      </trkpt>
      <trkpt lat="46.3242" lon="5.39616">
        <ele>602.8</ele>
        <time>2014-03-19T16:42:25Z</time>
      </trkpt>
      <trkpt lat="46.32413" lon="5.39615">
        <ele>600.6</ele>
        <time>2014-03-19T16:42:29Z</time>
      </trkpt>
      <trkpt lat="46.32411" lon="5.39614">
        <ele>600</ele>
        <time>2014-03-19T16:42:30Z</time>
      </trkpt>
      <trkpt lat="46.32407" lon="5.39614">
        <ele>599</ele>
        <time>2014-03-19T16:42:32Z</time>
      </trkpt>
      <trkpt lat="46.32405" lon="5.39613">
        <ele>598.6</ele>
        <time>2014-03-19T16:42:33Z</time>
      </trkpt>
      <trkpt lat="46.324" lon="5.39611">
        <ele>597</ele>
        <time>2014-03-19T16:42:36Z</time>
      </trkpt>
      <trkpt lat="46.32395" lon="5.39611">
        <ele>596</ele>
        <time>2014-03-19T16:42:38Z</time>
      </trkpt>
      <trkpt lat="46.32394" lon="5.39609">
        <ele>595.4</ele>
        <time>2014-03-19T16:42:39Z</time>
      </trkpt>
      <trkpt lat="46.32389" lon="5.39606">
        <ele>593.8</ele>
        <time>2014-03-19T16:42:42Z</time>
      </trkpt>
      <trkpt lat="46.32386" lon="5.39603">
        <ele>592.8</ele>
        <time>2014-03-19T16:42:44Z</time>
      </trkpt>
      <trkpt lat="46.32379" lon="5.39599">
        <ele>591</ele>
        <time>2014-03-19T16:42:47Z</time>
      </trkpt>
      <trkpt lat="46.32372" lon="5.39592">
        <ele>588.2</ele>
        <time>2014-03-19T16:42:52Z</time>
      </trkpt>
      <trkpt lat="46.32366" lon="5.39589">
        <ele>585.6</ele>
        <time>2014-03-19T16:42:56Z</time>
      </trkpt>
      <trkpt lat="46.32362" lon="5.39584">
        <ele>582.6</ele>
        <time>2014-03-19T16:43:01Z</time>
      </trkpt>
      <trkpt lat="46.32357" lon="5.39577">
        <ele>580</ele>
        <time>2014-03-19T16:43:05Z</time>
      </trkpt>
      <trkpt lat="46.32351" lon="5.39573">
        <ele>577.4</ele>
        <time>2014-03-19T16:43:09Z</time>
      </trkpt>
      <trkpt lat="46.32348" lon="5.39573">
        <ele>575.6</ele>
        <time>2014-03-19T16:43:12Z</time>
      </trkpt>
      <trkpt lat="46.32346" lon="5.39574">
        <ele>575</ele>
        <time>2014-03-19T16:43:13Z</time>
      </trkpt>
      <trkpt lat="46.32342" lon="5.39572">
        <ele>572.4</ele>
        <time>2014-03-19T16:43:17Z</time>
      </trkpt>
      <trkpt lat="46.32337" lon="5.39569">
        <ele>569.8</ele>
        <time>2014-03-19T16:43:21Z</time>
      </trkpt>
      <trkpt lat="46.32336" lon="5.39569">
        <ele>569.2</ele>
        <time>2014-03-19T16:43:22Z</time>
      </trkpt>
      <trkpt lat="46.32333" lon="5.39568">
        <ele>567.2</ele>
        <time>2014-03-19T16:43:25Z</time>
      </trkpt>
      <trkpt lat="46.32332" lon="5.39567">
        <ele>565.8</ele>
        <time>2014-03-19T16:43:27Z</time>
      </trkpt>
      <trkpt lat="46.3233" lon="5.39566">
        <ele>565.2</ele>
        <time>2014-03-19T16:43:28Z</time>
      </trkpt>
      <trkpt lat="46.32329" lon="5.39564">
        <ele>563.8</ele>
        <time>2014-03-19T16:43:30Z</time>
      </trkpt>
      <trkpt lat="46.32325" lon="5.39568">
        <ele>561.6</ele>
        <time>2014-03-19T16:43:33Z</time>
      </trkpt>
      <trkpt lat="46.32324" lon="5.39568">
        <ele>561</ele>
        <time>2014-03-19T16:43:34Z</time>
      </trkpt>
      <trkpt lat="46.32323" lon="5.39568">
        <ele>556.4</ele>
        <time>2014-03-19T16:43:41Z</time>
      </trkpt>
      <trkpt lat="46.3232" lon="5.39568">
        <ele>554.6</ele>
        <time>2014-03-19T16:43:44Z</time>
      </trkpt>
      <trkpt lat="46.32318" lon="5.39564">
        <ele>553.8</ele>
        <time>2014-03-19T16:43:45Z</time>
      </trkpt>
      <trkpt lat="46.32317" lon="5.39556">
        <ele>551.4</ele>
        <time>2014-03-19T16:43:49Z</time>
      </trkpt>
      <trkpt lat="46.32314" lon="5.39537">
        <ele>548.2</ele>
        <time>2014-03-19T16:43:54Z</time>
      </trkpt>
      <trkpt lat="46.32315" lon="5.39536">
        <ele>547.6</ele>
        <time>2014-03-19T16:43:55Z</time>
      </trkpt>
      <trkpt lat="46.32314" lon="5.3953">
        <ele>546.4</ele>
        <time>2014-03-19T16:43:57Z</time>
      </trkpt>
      <trkpt lat="46.32312" lon="5.39523">
        <ele>544</ele>
        <time>2014-03-19T16:44:01Z</time>
      </trkpt>
      <trkpt lat="46.32312" lon="5.39523">
        <ele>543.4</ele>
        <time>2014-03-19T16:44:02Z</time>
      </trkpt>
      <trkpt lat="46.3231" lon="5.39523">
        <ele>541.6</ele>
        <time>2014-03-19T16:44:05Z</time>
      </trkpt>
      <trkpt lat="46.32308" lon="5.39521">
        <ele>541</ele>
        <time>2014-03-19T16:44:06Z</time>
      </trkpt>
      <trkpt lat="46.32306" lon="5.39524">
        <ele>539.4</ele>
        <time>2014-03-19T16:44:09Z</time>
      </trkpt>
      <trkpt lat="46.32305" lon="5.39532">
        <ele>537.8</ele>
        <time>2014-03-19T16:44:12Z</time>
      </trkpt>
      <trkpt lat="46.32304" lon="5.39536">
        <ele>537.2</ele>
        <time>2014-03-19T16:44:13Z</time>
      </trkpt>
      <trkpt lat="46.32303" lon="5.39551">
        <ele>535</ele>
        <time>2014-03-19T16:44:17Z</time>
      </trkpt>
      <trkpt lat="46.32302" lon="5.39559">
        <ele>534</ele>
        <time>2014-03-19T16:44:19Z</time>
      </trkpt>
      <trkpt lat="46.32301" lon="5.39566">
        <ele>532.8</ele>
        <time>2014-03-19T16:44:21Z</time>
      </trkpt>
      <trkpt lat="46.32301" lon="5.39574">
        <ele>531.8</ele>
        <time>2014-03-19T16:44:23Z</time>
      </trkpt>
      <trkpt lat="46.32301" lon="5.39583">
        <ele>530.8</ele>
        <time>2014-03-19T16:44:25Z</time>
      </trkpt>
      <trkpt lat="46.32302" lon="5.39604">
        <ele>528.8</ele>
        <time>2014-03-19T16:44:29Z</time>
      </trkpt>
      <trkpt lat="46.32307" lon="5.39621">
        <ele>526.8</ele>
        <time>2014-03-19T16:44:33Z</time>
      </trkpt>
      <trkpt lat="46.32313" lon="5.39639">
        <ele>524.8</ele>
        <time>2014-03-19T16:44:37Z</time>
      </trkpt>
      <trkpt lat="46.32313" lon="5.39646">
        <ele>524.2</ele>
        <time>2014-03-19T16:44:38Z</time>
      </trkpt>
      <trkpt lat="46.32315" lon="5.39652">
        <ele>523.2</ele>
        <time>2014-03-19T16:44:40Z</time>
      </trkpt>
      <trkpt lat="46.32319" lon="5.39672">
        <ele>521.4</ele>
        <time>2014-03-19T16:44:44Z</time>
      </trkpt>
      <trkpt lat="46.3232" lon="5.3969">
        <ele>519.6</ele>
        <time>2014-03-19T16:44:48Z</time>
      </trkpt>
      <trkpt lat="46.3232" lon="5.39695">
        <ele>519.2</ele>
        <time>2014-03-19T16:44:49Z</time>
      </trkpt>
      <trkpt lat="46.32315" lon="5.39712">
        <ele>517.4</ele>
        <time>2014-03-19T16:44:53Z</time>
      </trkpt>
      <trkpt lat="46.32308" lon="5.3973">
        <ele>515.6</ele>
        <time>2014-03-19T16:44:57Z</time>
      </trkpt>
      <trkpt lat="46.32304" lon="5.3975">
        <ele>513.8</ele>
        <time>2014-03-19T16:45:01Z</time>
      </trkpt>
      <trkpt lat="46.323" lon="5.39768">
        <ele>512</ele>
        <time>2014-03-19T16:45:05Z</time>
      </trkpt>
      <trkpt lat="46.3229" lon="5.3978">
        <ele>510.4</ele>
        <time>2014-03-19T16:45:09Z</time>
      </trkpt>
      <trkpt lat="46.32287" lon="5.39779">
        <ele>510</ele>
        <time>2014-03-19T16:45:10Z</time>
      </trkpt>
      <trkpt lat="46.32283" lon="5.39771">
        <ele>509</ele>
        <time>2014-03-19T16:45:12Z</time>
      </trkpt>
      <trkpt lat="46.32276" lon="5.39748">
        <ele>507</ele>
        <time>2014-03-19T16:45:17Z</time>
      </trkpt>
      <trkpt lat="46.3227" lon="5.39732">
        <ele>505.6</ele>
        <time>2014-03-19T16:45:20Z</time>
      </trkpt>
      <trkpt lat="46.32267" lon="5.39727">
        <ele>505.2</ele>
        <time>2014-03-19T16:45:21Z</time>
      </trkpt>
      <trkpt lat="46.32265" lon="5.39717">
        <ele>504.4</ele>
        <time>2014-03-19T16:45:23Z</time>
      </trkpt>
      <trkpt lat="46.32259" lon="5.39688">
        <ele>502.4</ele>
        <time>2014-03-19T16:45:28Z</time>
      </trkpt>
      <trkpt lat="46.32259" lon="5.39678">
        <ele>501.6</ele>
        <time>2014-03-19T16:45:30Z</time>
      </trkpt>
      <trkpt lat="46.32256" lon="5.39664">
        <ele>500.4</ele>
        <time>2014-03-19T16:45:33Z</time>
      </trkpt>
      <trkpt lat="46.32251" lon="5.39648">
        <ele>498.8</ele>
        <time>2014-03-19T16:45:37Z</time>
      </trkpt>
      <trkpt lat="46.32242" lon="5.39624">
        <ele>496.8</ele>
        <time>2014-03-19T16:45:42Z</time>
      </trkpt>
      <trkpt lat="46.32235" lon="5.39601">
        <ele>495</ele>
        <time>2014-03-19T16:45:47Z</time>
      </trkpt>
      <trkpt lat="46.32232" lon="5.39573">
        <ele>492.6</ele>
        <time>2014-03-19T16:45:53Z</time>
      </trkpt>
      <trkpt lat="46.32228" lon="5.39551">
        <ele>491</ele>
        <time>2014-03-19T16:45:57Z</time>
      </trkpt>
      <trkpt lat="46.32226" lon="5.39523">
        <ele>489.2</ele>
        <time>2014-03-19T16:46:02Z</time>
      </trkpt>
      <trkpt lat="46.32226" lon="5.39518">
        <ele>488.8</ele>
        <time>2014-03-19T16:46:03Z</time>
      </trkpt>
      <trkpt lat="46.32226" lon="5.39498">
        <ele>487.2</ele>
        <time>2014-03-19T16:46:07Z</time>
      </trkpt>
      <trkpt lat="46.32227" lon="5.39471">
        <ele>485.4</ele>
        <time>2014-03-19T16:46:12Z</time>
      </trkpt>
      <trkpt lat="46.32223" lon="5.39445">
        <ele>483.4</ele>
        <time>2014-03-19T16:46:17Z</time>
      </trkpt>
      <trkpt lat="46.32222" lon="5.39417">
        <ele>481.6</ele>
        <time>2014-03-19T16:46:22Z</time>
      </trkpt>
      <trkpt lat="46.32225" lon="5.39399">
        <ele>480</ele>
        <time>2014-03-19T16:46:26Z</time>
      </trkpt>
      <trkpt lat="46.32228" lon="5.3938">
        <ele>478.2</ele>
        <time>2014-03-19T16:46:30Z</time>
      </trkpt>
      <trkpt lat="46.32228" lon="5.39362">
        <ele>476.6</ele>
        <time>2014-03-19T16:46:34Z</time>
      </trkpt>
      <trkpt lat="46.32229" lon="5.39336">
        <ele>474.4</ele>
        <time>2014-03-19T16:46:39Z</time>
      </trkpt>
      <trkpt lat="46.32233" lon="5.39315">
        <ele>472.2</ele>
        <time>2014-03-19T16:46:44Z</time>
      </trkpt>
      <trkpt lat="46.32241" lon="5.39299">
        <ele>470.4</ele>
        <time>2014-03-19T16:46:48Z</time>
      </trkpt>
      <trkpt lat="46.3225" lon="5.39279">
        <ele>468.2</ele>
        <time>2014-03-19T16:46:53Z</time>
      </trkpt>
      <trkpt lat="46.32258" lon="5.39268">
        <ele>466.4</ele>
        <time>2014-03-19T16:46:57Z</time>
      </trkpt>
      <trkpt lat="46.32266" lon="5.39255">
        <ele>464.2</ele>
        <time>2014-03-19T16:47:02Z</time>
      </trkpt>
      <trkpt lat="46.32268" lon="5.39253">
        <ele>463.6</ele>
        <time>2014-03-19T16:47:03Z</time>
      </trkpt>
      <trkpt lat="46.32322" lon="5.39165">
        <ele>406.4</ele>
        <time>2014-03-19T16:50:07Z</time>
      </trkpt>
      <trkpt lat="46.32325" lon="5.39159">
        <ele>405.8</ele>
        <time>2014-03-19T16:50:10Z</time>
      </trkpt>
      <trkpt lat="46.32334" lon="5.39141">
        <ele>405</ele>
        <time>2014-03-19T16:50:16Z</time>
      </trkpt>
      <trkpt lat="46.32344" lon="5.3912">
        <ele>404.2</ele>
        <time>2014-03-19T16:50:21Z</time>
      </trkpt>
      <trkpt lat="46.32352" lon="5.391">
        <ele>403.4</ele>
        <time>2014-03-19T16:50:26Z</time>
      </trkpt>
      <trkpt lat="46.3236" lon="5.39077">
        <ele>402.6</ele>
        <time>2014-03-19T16:50:32Z</time>
      </trkpt>
      <trkpt lat="46.3237" lon="5.39063">
        <ele>402</ele>
        <time>2014-03-19T16:50:36Z</time>
      </trkpt>
      <trkpt lat="46.32378" lon="5.39053">
        <ele>401.6</ele>
        <time>2014-03-19T16:50:40Z</time>
      </trkpt>
      <trkpt lat="46.32387" lon="5.39047">
        <ele>401.2</ele>
        <time>2014-03-19T16:50:44Z</time>
      </trkpt>
      <trkpt lat="46.32392" lon="5.39047">
        <ele>401</ele>
        <time>2014-03-19T16:50:46Z</time>
      </trkpt>
      <trkpt lat="46.32398" lon="5.39043">
        <ele>400.8</ele>
        <time>2014-03-19T16:50:48Z</time>
      </trkpt>
      <trkpt lat="46.32411" lon="5.39033">
        <ele>400.4</ele>
        <time>2014-03-19T16:50:52Z</time>
      </trkpt>
      <trkpt lat="46.32416" lon="5.39031">
        <ele>400.2</ele>
        <time>2014-03-19T16:50:54Z</time>
      </trkpt>
      <trkpt lat="46.32421" lon="5.39025">
        <ele>400</ele>
        <time>2014-03-19T16:50:56Z</time>
      </trkpt>
      <trkpt lat="46.32429" lon="5.39008">
        <ele>399.4</ele>
        <time>2014-03-19T16:51:01Z</time>
      </trkpt>
      <trkpt lat="46.3243" lon="5.39004">
        <ele>399.4</ele>
        <time>2014-03-19T16:51:02Z</time>
      </trkpt>
      <trkpt lat="46.32431" lon="5.3899">
        <ele>399</ele>
        <time>2014-03-19T16:51:05Z</time>
      </trkpt>
      <trkpt lat="46.32432" lon="5.38966">
        <ele>398.4</ele>
        <time>2014-03-19T16:51:10Z</time>
      </trkpt>
      <trkpt lat="46.32433" lon="5.38945">
        <ele>398</ele>
        <time>2014-03-19T16:51:14Z</time>
      </trkpt>
      <trkpt lat="46.32433" lon="5.38925">
        <ele>397.6</ele>
        <time>2014-03-19T16:51:18Z</time>
      </trkpt>
      <trkpt lat="46.32431" lon="5.38901">
        <ele>397</ele>
        <time>2014-03-19T16:51:22Z</time>
      </trkpt>
      <trkpt lat="46.32427" lon="5.38874">
        <ele>396.4</ele>
        <time>2014-03-19T16:51:26Z</time>
      </trkpt>
      <trkpt lat="46.32425" lon="5.38867">
        <ele>396.2</ele>
        <time>2014-03-19T16:51:27Z</time>
      </trkpt>
      <trkpt lat="46.32425" lon="5.3886">
        <ele>396</ele>
        <time>2014-03-19T16:51:28Z</time>
      </trkpt>
      <trkpt lat="46.32424" lon="5.38849">
        <ele>395.6</ele>
        <time>2014-03-19T16:51:30Z</time>
      </trkpt>
      <trkpt lat="46.32423" lon="5.38844">
        <ele>395.4</ele>
        <time>2014-03-19T16:51:31Z</time>
      </trkpt>
      <trkpt lat="46.32423" lon="5.38839">
        <ele>395.2</ele>
        <time>2014-03-19T16:51:32Z</time>
      </trkpt>
      <trkpt lat="46.32422" lon="5.38817">
        <ele>394.6</ele>
        <time>2014-03-19T16:51:36Z</time>
      </trkpt>
      <trkpt lat="46.32422" lon="5.38806">
        <ele>394.2</ele>
        <time>2014-03-19T16:51:38Z</time>
      </trkpt>
      <trkpt lat="46.32421" lon="5.38784">
        <ele>393.4</ele>
        <time>2014-03-19T16:51:42Z</time>
      </trkpt>
      <trkpt lat="46.3242" lon="5.38753">
        <ele>392.4</ele>
        <time>2014-03-19T16:51:48Z</time>
      </trkpt>
      <trkpt lat="46.32419" lon="5.38748">
        <ele>392.2</ele>
        <time>2014-03-19T16:51:49Z</time>
      </trkpt>
      <trkpt lat="46.32418" lon="5.38721">
        <ele>391.2</ele>
        <time>2014-03-19T16:51:54Z</time>
      </trkpt>
      <trkpt lat="46.32418" lon="5.38711">
        <ele>390.8</ele>
        <time>2014-03-19T16:51:56Z</time>
      </trkpt>
      <trkpt lat="46.32415" lon="5.38681">
        <ele>389.6</ele>
        <time>2014-03-19T16:52:02Z</time>
      </trkpt>
      <trkpt lat="46.32414" lon="5.38654">
        <ele>388.2</ele>
        <time>2014-03-19T16:52:08Z</time>
      </trkpt>
      <trkpt lat="46.32417" lon="5.38627">
        <ele>387.2</ele>
        <time>2014-03-19T16:52:13Z</time>
      </trkpt>
      <trkpt lat="46.32421" lon="5.386">
        <ele>386</ele>
        <time>2014-03-19T16:52:19Z</time>
      </trkpt>
      <trkpt lat="46.32428" lon="5.38594">
        <ele>385.6</ele>
        <time>2014-03-19T16:52:21Z</time>
      </trkpt>
      <trkpt lat="46.32431" lon="5.38594">
        <ele>385.4</ele>
        <time>2014-03-19T16:52:22Z</time>
      </trkpt>
      <trkpt lat="46.32443" lon="5.38598">
        <ele>384.8</ele>
        <time>2014-03-19T16:52:25Z</time>
      </trkpt>
      <trkpt lat="46.32447" lon="5.386">
        <ele>384.4</ele>
        <time>2014-03-19T16:52:26Z</time>
      </trkpt>
      <trkpt lat="46.32465" lon="5.38608">
        <ele>383.4</ele>
        <time>2014-03-19T16:52:31Z</time>
      </trkpt>
      <trkpt lat="46.32473" lon="5.3861">
        <ele>383</ele>
        <time>2014-03-19T16:52:33Z</time>
      </trkpt>
      <trkpt lat="46.32491" lon="5.38621">
        <ele>382</ele>
        <time>2014-03-19T16:52:38Z</time>
      </trkpt>
      <trkpt lat="46.32505" lon="5.38622">
        <ele>381.4</ele>
        <time>2014-03-19T16:52:42Z</time>
      </trkpt>
      <trkpt lat="46.32524" lon="5.3863">
        <ele>380.4</ele>
        <time>2014-03-19T16:52:47Z</time>
      </trkpt>
      <trkpt lat="46.32528" lon="5.38631">
        <ele>380.2</ele>
        <time>2014-03-19T16:52:48Z</time>
      </trkpt>
      <trkpt lat="46.32543" lon="5.38636">
        <ele>379.4</ele>
        <time>2014-03-19T16:52:52Z</time>
      </trkpt>
      <trkpt lat="46.32557" lon="5.38639">
        <ele>378.6</ele>
        <time>2014-03-19T16:52:56Z</time>
      </trkpt>
      <trkpt lat="46.32573" lon="5.38645">
        <ele>378</ele>
        <time>2014-03-19T16:53:00Z</time>
      </trkpt>
      <trkpt lat="46.32592" lon="5.38651">
        <ele>377</ele>
        <time>2014-03-19T16:53:05Z</time>
      </trkpt>
      <trkpt lat="46.32611" lon="5.38658">
        <ele>376</ele>
        <time>2014-03-19T16:53:10Z</time>
      </trkpt>
      <trkpt lat="46.32629" lon="5.38666">
        <ele>375</ele>
        <time>2014-03-19T16:53:15Z</time>
      </trkpt>
      <trkpt lat="46.32647" lon="5.38672">
        <ele>374.2</ele>
        <time>2014-03-19T16:53:19Z</time>
      </trkpt>
      <trkpt lat="46.32656" lon="5.38676">
        <ele>373.8</ele>
        <time>2014-03-19T16:53:21Z</time>
      </trkpt>
      <trkpt lat="46.32672" lon="5.38683">
        <ele>373</ele>
        <time>2014-03-19T16:53:25Z</time>
      </trkpt>
      <trkpt lat="46.32692" lon="5.3869">
        <ele>372</ele>
        <time>2014-03-19T16:53:30Z</time>
      </trkpt>
      <trkpt lat="46.327" lon="5.38693">
        <ele>371.4</ele>
        <time>2014-03-19T16:53:32Z</time>
      </trkpt>
      <trkpt lat="46.32715" lon="5.38697">
        <ele>370.6</ele>
        <time>2014-03-19T16:53:36Z</time>
      </trkpt>
      <trkpt lat="46.32727" lon="5.387">
        <ele>370</ele>
        <time>2014-03-19T16:53:39Z</time>
      </trkpt>
      <trkpt lat="46.32745" lon="5.38701">
        <ele>369</ele>
        <time>2014-03-19T16:53:44Z</time>
      </trkpt>
      <trkpt lat="46.32749" lon="5.38701">
        <ele>368.8</ele>
        <time>2014-03-19T16:53:45Z</time>
      </trkpt>
      <trkpt lat="46.32771" lon="5.387">
        <ele>367.6</ele>
        <time>2014-03-19T16:53:51Z</time>
      </trkpt>
      <trkpt lat="46.32789" lon="5.38695">
        <ele>366.6</ele>
        <time>2014-03-19T16:53:56Z</time>
      </trkpt>
      <trkpt lat="46.32807" lon="5.38686">
        <ele>365.6</ele>
        <time>2014-03-19T16:54:01Z</time>
      </trkpt>
      <trkpt lat="46.32824" lon="5.38677">
        <ele>364.6</ele>
        <time>2014-03-19T16:54:06Z</time>
      </trkpt>
      <trkpt lat="46.32828" lon="5.38675">
        <ele>364.4</ele>
        <time>2014-03-19T16:54:07Z</time>
      </trkpt>
      <trkpt lat="46.32847" lon="5.38664">
        <ele>363.4</ele>
        <time>2014-03-19T16:54:12Z</time>
      </trkpt>
      <trkpt lat="46.32854" lon="5.3866">
        <ele>363</ele>
        <time>2014-03-19T16:54:14Z</time>
      </trkpt>
      <trkpt lat="46.32873" lon="5.3865">
        <ele>362</ele>
        <time>2014-03-19T16:54:19Z</time>
      </trkpt>
      <trkpt lat="46.32886" lon="5.38644">
        <ele>361.4</ele>
        <time>2014-03-19T16:54:22Z</time>
      </trkpt>
      <trkpt lat="46.32901" lon="5.38636">
        <ele>360.6</ele>
        <time>2014-03-19T16:54:26Z</time>
      </trkpt>
      <trkpt lat="46.32908" lon="5.38632">
        <ele>360.2</ele>
        <time>2014-03-19T16:54:28Z</time>
      </trkpt>
      <trkpt lat="46.32919" lon="5.38627">
        <ele>359.8</ele>
        <time>2014-03-19T16:54:31Z</time>
      </trkpt>
      <trkpt lat="46.3293" lon="5.38622">
        <ele>359.2</ele>
        <time>2014-03-19T16:54:34Z</time>
      </trkpt>
      <trkpt lat="46.32948" lon="5.38612">
        <ele>358.2</ele>
        <time>2014-03-19T16:54:39Z</time>
      </trkpt>
      <trkpt lat="46.32967" lon="5.38604">
        <ele>357.2</ele>
        <time>2014-03-19T16:54:44Z</time>
      </trkpt>
      <trkpt lat="46.32971" lon="5.38602">
        <ele>357.2</ele>
        <time>2014-03-19T16:54:45Z</time>
      </trkpt>
      <trkpt lat="46.32989" lon="5.38594">
        <ele>356.4</ele>
        <time>2014-03-19T16:54:49Z</time>
      </trkpt>
      <trkpt lat="46.32995" lon="5.38592">
        <ele>356.2</ele>
        <time>2014-03-19T16:54:50Z</time>
      </trkpt>
      <trkpt lat="46.33017" lon="5.38586">
        <ele>355.6</ele>
        <time>2014-03-19T16:54:54Z</time>
      </trkpt>
      <trkpt lat="46.33026" lon="5.38583">
        <ele>355.2</ele>
        <time>2014-03-19T16:54:56Z</time>
      </trkpt>
      <trkpt lat="46.33048" lon="5.38579">
        <ele>354.4</ele>
        <time>2014-03-19T16:55:01Z</time>
      </trkpt>
      <trkpt lat="46.33053" lon="5.38578">
        <ele>354.2</ele>
        <time>2014-03-19T16:55:02Z</time>
      </trkpt>
      <trkpt lat="46.33061" lon="5.38576">
        <ele>353.8</ele>
        <time>2014-03-19T16:55:04Z</time>
      </trkpt>
      <trkpt lat="46.33068" lon="5.38572">
        <ele>353.4</ele>
        <time>2014-03-19T16:55:06Z</time>
      </trkpt>
      <trkpt lat="46.3307" lon="5.38569">
        <ele>353.2</ele>
        <time>2014-03-19T16:55:07Z</time>
      </trkpt>
      <trkpt lat="46.33069" lon="5.3856">
        <ele>352.8</ele>
        <time>2014-03-19T16:55:10Z</time>
      </trkpt>
      <trkpt lat="46.33069" lon="5.38552">
        <ele>352.4</ele>
        <time>2014-03-19T16:55:12Z</time>
      </trkpt>
      <trkpt lat="46.33066" lon="5.38538">
        <ele>351.8</ele>
        <time>2014-03-19T16:55:16Z</time>
      </trkpt>
      <trkpt lat="46.33057" lon="5.38518">
        <ele>350.8</ele>
        <time>2014-03-19T16:55:22Z</time>
      </trkpt>
      <trkpt lat="46.33053" lon="5.385">
        <ele>350</ele>
        <time>2014-03-19T16:55:27Z</time>
      </trkpt>
      <trkpt lat="46.33051" lon="5.38479">
        <ele>349.2</ele>
        <time>2014-03-19T16:55:32Z</time>
      </trkpt>
    </trkseg>
  </trk>
</gpx>